Date StartTime U_cm/s V_cm/s W_cm/s Ustd_cm/s Vstd_cm/s Wstd_cm/s Uvar_(cm/s)^2 Vvar_(cm/s)^2 Wvar_(cm/s)^2 KE_(m/s)^2 TurbulentKE_(m/s)^2 HorizWindSpeed_cm/s FrictionSpeec_cm/s DragCoef SpeedOfSound_m/s SonicTemperature_C Pressure_mb 
11/16/2013  00:00:00      -34.972       34.900        5.946       45.870       19.091       15.189     2104.022      364.467      230.708        0.259        0.135       49.408       10.075        0.042      333.803        3.358      851.240
11/16/2013  00:01:00      -27.466        0.262        0.193       24.498       15.625       11.062      600.138      244.134      122.360        0.086        0.048       27.467        9.895        0.130      333.936        3.578      851.201
11/16/2013  00:02:00      -73.528      -46.854       -3.035       34.189       22.709       14.506     1168.884      515.704      210.420        0.475        0.095       87.188        7.099        0.007      333.928        3.566      851.208
11/16/2013  00:03:00      -43.610      -47.866        6.956       63.800       45.275       26.553     4070.419     2049.793      705.072        0.553        0.341       64.753       34.088        0.277      333.824        3.392      851.226
11/16/2013  00:04:00      -11.752       -6.248       10.286       22.657       25.426       14.200      513.357      646.488      201.651        0.082        0.068       13.310       12.434        0.873      333.864        3.460      851.182
11/16/2013  00:05:00       45.801       29.025        5.194       17.420       20.797       24.637      303.467      432.526      607.005        0.215        0.067       54.223       12.367        0.052      333.939        3.582      851.098
11/16/2013  00:06:00     -102.234      -39.685      -13.403       75.341       45.882       20.959     5676.231     2105.200      439.291        1.021        0.411      109.666       13.067        0.014      334.085        3.824      851.120
11/16/2013  00:07:00     -109.159     -109.936       -2.944       58.208       45.720       33.047     3388.180     2090.315     1092.099        1.529        0.329      154.925       29.513        0.036      333.954        3.607      851.139
11/16/2013  00:08:00        0.862      -52.396       -5.595       40.813       34.926       23.076     1665.698     1219.845      532.508        0.310        0.171       52.403       21.588        0.170      333.994        3.674      851.099
11/16/2013  00:09:00       12.736       45.147       61.244       27.117       33.398       29.277      735.312     1115.399      857.151        0.433        0.135       46.909       15.667        0.112      333.933        3.574      851.021
11/16/2013  00:10:00       39.780       25.214       58.703       55.134       41.784       34.130     3039.805     1745.886     1164.886        0.581        0.298       47.098       31.962        0.461      334.116        3.877      850.992
11/16/2013  00:11:00        2.724       13.407       28.463        9.895       15.884        9.162       97.905      252.294       83.938        0.072        0.022       13.680        5.560        0.165      334.208        4.029      850.999
11/16/2013  00:12:00       15.455       33.478        6.246       14.116       16.256       10.826      199.249      264.256      117.196        0.099        0.029       36.873        7.765        0.044      334.104        3.858      850.967
11/16/2013  00:13:00       24.539       45.068       -8.541       20.264       19.588       12.030      410.612      383.686      144.724        0.182        0.047       51.316       12.279        0.057      333.879        3.485      850.915
11/16/2013  00:14:00       23.247       24.600        5.545       28.447       24.097       17.146      809.228      580.641      293.985        0.143        0.084       33.847       14.723        0.189      333.798        3.349      850.870
11/16/2013  00:15:00       90.040       43.490       -1.143       28.460       22.259       20.760      809.979      495.452      430.968        0.587        0.087       99.993       10.694        0.011      333.798        3.349      850.819
11/16/2013  00:16:00       30.020       23.456       18.632       20.945       20.826       17.123      438.713      433.705      293.198        0.148        0.058       38.097       11.853        0.097      333.813        3.375      850.832
11/16/2013  00:17:00       95.919       90.241       63.567       35.337       59.378       44.460     1248.730     3525.693     1976.678        1.407        0.338      131.696       46.078        0.122      333.859        3.449      850.783
11/16/2013  00:18:00       34.731       98.299      128.547       54.536       75.113       34.227     2974.225     5641.981     1171.462        1.859        0.489      104.255       49.307        0.224      334.042        3.752      850.669
11/16/2013  00:19:00       -6.589      -67.711        0.024       54.560       45.351       33.987     2976.756     2056.752     1155.147        0.541        0.309       68.030       23.233        0.117      334.154        3.938      850.730
11/16/2013  00:20:00      -36.749      -25.532       -5.285       56.622       25.024       20.116     3206.015      626.195      404.671        0.313        0.212       44.748       21.878        0.239      334.067        3.794      850.764
11/16/2013  00:21:00       26.094       20.364       40.368       26.996       48.830       53.494      728.778     2384.328     2861.557        0.435        0.299       33.100       45.693        1.906      334.161        3.952      850.723
11/16/2013  00:22:00       18.231       37.733       95.683       53.623       83.386       53.207     2875.451     6953.199     2830.955        1.178        0.633       41.906       53.207        1.612      334.118        3.878      850.634
11/16/2013  00:23:00       60.772      -75.409       -8.758       48.169       52.182       32.935     2320.296     2722.986     1084.734        0.779        0.306       96.849       34.249        0.125      334.062        3.787      850.641
11/16/2013  00:24:00      -18.529      -21.559        5.035       35.360       35.377       18.084     1250.317     1251.499      327.031        0.183        0.141       28.427       20.654        0.528      334.169        3.966      850.675
11/16/2013  00:25:00      -48.073       -4.478       -3.911       26.501       20.083       13.417      702.327      403.325      180.029        0.182        0.064       48.281       11.949        0.061      334.112        3.870      850.713
11/16/2013  00:26:00      -48.409      -22.265       -4.276       58.101       32.258       19.011     3375.714     1040.561      361.422        0.382        0.239       53.284       20.960        0.155      334.029        3.732      850.743
11/16/2013  00:27:00       -1.237       33.366        9.928       22.197       36.695       15.017      492.714     1346.488      225.521        0.164        0.103       33.389        7.991        0.057      333.919        3.550      850.734
11/16/2013  00:28:00       29.563       79.806        0.382       26.011       46.266       25.810      676.560     2140.524      666.164        0.536        0.174       85.105       27.823        0.107      333.929        3.567      850.665
11/16/2013  00:29:00       42.582       13.987       -8.016       26.764       43.813       23.030      716.288     1919.563      530.359        0.262        0.158       44.820       19.203        0.184      333.826        3.395      850.634
11/16/2013  00:30:00        1.983       22.038       -2.404       14.112       10.548       13.942      199.152      111.259      194.373        0.050        0.025       22.127        8.607        0.151      333.879        3.485      850.667
11/16/2013  00:31:00      -91.451       27.251       -7.299       42.800       21.833       13.170     1831.869      476.669      173.437        0.582        0.124       95.425       15.593        0.027      333.893        3.508      850.688
11/16/2013  00:32:00     -126.316       -8.697      -15.140       43.039       29.180       18.858     1852.393      851.494      355.630        0.966        0.153      126.615       12.288        0.009      333.797        3.346      850.676
11/16/2013  00:33:00       49.607       41.754       24.473       55.106       52.574       37.830     3036.708     2764.076     1431.075        0.602        0.362       64.840       40.972        0.399      333.770        3.303      850.598
11/16/2013  00:34:00       66.007      133.919      105.908       56.000       38.868       39.111     3136.022     1510.712     1529.661        1.984        0.309      149.302       35.422        0.056      333.898        3.513      850.481
11/16/2013  00:35:00      -98.180       23.809        4.678      104.101       58.750       46.992    10837.045     3451.578     2208.252        1.336        0.825      101.026       59.114        0.342      333.857        3.445      850.512
11/16/2013  00:36:00     -144.795      -43.785       -6.620       86.259       53.554       34.301     7440.674     2868.041     1176.546        1.720        0.574      151.270       35.930        0.056      333.734        3.239      850.578
11/16/2013  00:37:00      -36.280       91.756      -17.587       38.253       39.379       18.390     1463.293     1550.725      338.185        0.670        0.168       98.668       13.205        0.018      333.666        3.130      850.542
11/16/2013  00:38:00      -12.123       15.861        0.382       18.501       19.872       12.522      342.283      394.878      156.793        0.065        0.045       19.963       11.682        0.342      333.819        3.384      850.495
11/16/2013  00:39:00       -9.299       -7.863       -8.517       22.130       35.877        9.926      489.737     1287.162       98.533        0.105        0.094       12.178        5.472        0.202      333.837        3.414      850.451
11/16/2013  00:40:00       -6.148       21.602       57.185       14.317       34.667       21.168      204.963     1201.776      448.092        0.281        0.093       22.460       22.677        1.019      333.817        3.380      850.364
11/16/2013  00:41:00      -13.763       18.289       43.271       30.601       40.672       24.839      936.429     1654.182      616.989        0.280        0.160       22.889       25.577        1.249      333.862        3.456      850.306
11/16/2013  00:42:00      -60.739       19.888      -12.442       43.766       26.757       21.449     1915.503      715.947      460.069        0.366        0.155       63.912       23.255        0.132      333.661        3.123      850.279
11/16/2013  00:43:00      -61.130      -32.539       -9.936       45.676       31.107       16.148     2086.285      967.635      260.763        0.410        0.166       69.251       13.230        0.036      333.567        2.967      850.205
11/16/2013  00:44:00       27.983       15.793       15.494       35.968       47.217       22.885     1293.696     2229.474      523.706        0.266        0.202       32.132       21.816        0.461      333.645        3.095      850.101
11/16/2013  00:45:00      -17.368       27.696       12.885       29.261       17.528       15.873      856.209      307.238      251.960        0.132        0.071       32.692       14.799        0.205      333.702        3.189      850.085
11/16/2013  00:46:00      -36.009       -5.956        3.826       25.925       19.798       13.293      672.093      391.975      176.710        0.129        0.062       36.498       13.416        0.135      333.697        3.184      850.066
11/16/2013  00:47:00      -15.513       -1.845        0.165       11.527        7.883        8.761      132.871       62.136       76.757        0.026        0.014       15.622        3.740        0.057      333.664        3.128      850.040
11/16/2013  00:48:00       34.982       31.427       15.683       41.440       16.857       13.715     1717.243      284.166      188.092        0.232        0.109       47.026       22.413        0.227      333.611        3.040      850.016
11/16/2013  00:49:00       85.802       89.406       72.334       53.620       45.876       52.406     2875.089     2104.622     2746.355        1.416        0.386      123.917       48.215        0.151      333.714        3.210      849.966
11/16/2013  00:50:00       48.804      111.356      106.538       61.450       58.677       50.579     3776.115     3442.948     2558.230        1.795        0.489      121.581       45.837        0.142      333.671        3.137      849.927
11/16/2013  00:51:00       52.779       35.521       44.555       42.538       45.096       39.439     1809.498     2033.665     1555.431        0.571        0.270       63.618       34.964        0.302      333.726        3.230      850.004
11/16/2013  00:52:00       41.093       32.547        6.835       19.933       13.425       18.951      397.329      180.231      359.124        0.187        0.047       52.420       10.697        0.042      333.690        3.170      850.063
11/16/2013  00:53:00       75.939       48.088        7.037       27.608       14.226       14.748      762.214      202.391      217.510        0.466        0.059       89.884        8.748        0.009      333.648        3.101      850.089
11/16/2013  00:54:00      130.316       81.728       19.268       32.288       27.584       23.257     1042.517      760.886      540.866        1.319        0.117      153.824        7.313        0.002      333.605        3.029      850.089
11/16/2013  00:55:00       13.232       76.991       75.500       31.986       31.883       21.652     1023.078     1016.517      468.810        0.716        0.125       78.120       18.599        0.057      333.600        3.020      850.091
11/16/2013  00:56:00       76.759       64.305       22.963       41.939       21.026       22.058     1758.857      442.103      486.535        0.662        0.134      100.135       26.434        0.070      333.504        2.862      850.110
11/16/2013  00:57:00       99.249       35.215       17.200       40.944       40.198       29.480     1676.414     1615.878      869.058        0.777        0.208      105.311       27.545        0.068      333.603        3.025      850.092
11/16/2013  00:58:00       81.709       72.122       57.250       32.219       25.189       33.568     1038.076      634.489     1126.790        0.898        0.140      108.985       24.877        0.052      333.559        2.953      850.096
11/16/2013  00:59:00      129.243       76.577       28.489       37.657       34.531       27.375     1418.086     1192.399      749.413        1.337        0.168      150.226       15.956        0.011      333.554        2.943      850.065
11/16/2013  01:00:00       55.329       61.891       46.297       58.932       36.437       28.357     3472.939     1327.691      804.147        0.732        0.280       83.017       28.928        0.121      333.543        2.926      850.011
11/16/2013  01:01:00       84.664       66.652       40.627       52.390       42.636       40.425     2744.723     1817.809     1634.189        0.973        0.310      107.752       32.218        0.089      333.521        2.889      849.970
11/16/2013  01:02:00      -21.059       35.518       -8.320       21.107       31.477       16.252      445.504      990.826      264.114        0.174        0.085       41.292       11.631        0.079      333.398        2.686      850.027
11/16/2013  01:03:00       35.972       39.567        7.314       53.995       33.278       17.672     2915.496     1107.439      312.315        0.362        0.217       53.475       20.610        0.149      333.450        2.771      850.068
11/16/2013  01:04:00      111.510       65.630        9.992       31.212       25.368       31.985      974.210      643.519     1023.043        0.974        0.132      129.390       27.778        0.046      333.459        2.785      850.037
11/16/2013  01:05:00      124.888       76.173       28.013       40.157       19.927       33.577     1612.577      397.066     1127.421        1.266        0.157      146.285       20.928        0.020      333.451        2.773      850.012
11/16/2013  01:06:00      136.906       78.929       23.043       27.352       21.334       24.882      748.140      455.131      619.106        1.366        0.091      158.029       15.918        0.010      333.379        2.655      849.981
11/16/2013  01:07:00       41.977       38.901       -3.589       46.369       29.439       20.277     2150.068      866.638      411.144        0.336        0.171       57.230       16.501        0.083      333.291        2.509      849.957
11/16/2013  01:08:00      -16.161       94.601      -22.700       31.651       25.725       12.887     1001.797      661.800      166.064        0.578        0.091       95.971       10.212        0.011      333.366        2.632      849.973
11/16/2013  01:09:00       29.993       58.420       -2.116       31.742       32.437       19.563     1007.543     1052.131      382.700        0.338        0.122       65.670       20.012        0.093      333.416        2.716      849.954
11/16/2013  01:10:00       47.830       49.298        2.362       30.716       24.768       25.271      943.497      613.437      638.624        0.346        0.110       68.688       17.999        0.069      333.277        2.487      849.881
11/16/2013  01:11:00       27.249       46.640       -0.265       27.160       41.152       21.725      737.655     1693.518      471.973        0.291        0.145       54.017       22.363        0.171      333.214        2.381      849.885
11/16/2013  01:12:00       40.256      100.861       -8.206       25.387       42.659       25.239      644.513     1819.782      637.009        0.748        0.155      108.598       22.820        0.044      333.252        2.444      849.914
11/16/2013  01:13:00       98.307       62.201       -3.971       71.648       47.420       25.930     5133.451     2248.647      672.372        1.080        0.403      116.333       16.834        0.021      333.282        2.493      849.875
11/16/2013  01:14:00      -51.248       72.699      -14.471       26.679       37.087       17.945      711.789     1375.472      322.025        0.526        0.120       88.947       17.802        0.040      333.368        2.636      849.936
11/16/2013  01:15:00       -6.344       74.523       -2.097       48.300       31.534       21.836     2332.847      994.416      476.789        0.470        0.190       74.792       25.925        0.120      333.330        2.574      849.939
11/16/2013  01:16:00       74.882       73.074       -1.102       61.122       41.132       33.402     3735.936     1691.853     1115.722        0.874        0.327      104.629       27.982        0.072      333.301        2.526      849.875
11/16/2013  01:17:00       20.855       28.581        3.255       28.092       29.800       26.683      789.183      888.050      712.009        0.183        0.119       35.381       13.374        0.143      333.244        2.431      849.884
11/16/2013  01:18:00       68.791       58.077       -0.066       40.766       36.487       26.417     1661.867     1331.331      697.856        0.590        0.185       90.028       23.662        0.069      333.283        2.497      849.883
11/16/2013  01:19:00       52.943       72.212        2.287       55.799       28.858       30.555     3113.534      832.772      933.624        0.645        0.244       89.540       18.969        0.045      333.278        2.487      849.881
11/16/2013  01:20:00       26.093      104.418       -5.319       26.249       56.423       29.957      689.024     3183.611      897.431        0.819        0.239      107.629       28.100        0.068      333.300        2.523      849.886
11/16/2013  01:21:00      105.576       78.822        0.338       52.272       38.541       35.640     2732.388     1485.384     1270.245        1.142        0.274      131.754       22.898        0.030      333.312        2.543      849.824
11/16/2013  01:22:00       55.424       27.586        1.170       49.540       36.871       27.348     2454.260     1359.445      747.909        0.420        0.228       61.910        7.856        0.016      333.260        2.456      849.839
11/16/2013  01:23:00       30.237       52.069       -4.375       21.026       21.737       14.277      442.080      472.505      203.837        0.238        0.056       60.212        7.615        0.016      333.249        2.440      849.906
11/16/2013  01:24:00      125.299       82.389       15.074       40.171       26.758       28.978     1613.675      716.009      839.743        1.294        0.158      149.959       12.944        0.007      333.318        2.555      849.888
11/16/2013  01:25:00       73.645       57.082        4.479       74.613       61.991       30.131     5567.156     3842.946      907.875        0.951        0.516       93.176       26.766        0.083      333.279        2.488      849.869
11/16/2013  01:26:00       88.527       41.111       28.666       87.331       50.556       49.307     7626.783     2555.933     2431.227        1.148        0.631       97.607       48.759        0.250      333.282        2.494      849.843
11/16/2013  01:27:00      -36.329        8.986       -3.027       24.190       26.988       27.575      585.166      728.349      760.375        0.174        0.104       37.424       19.331        0.267      333.338        2.587      849.884
11/16/2013  01:28:00      -61.352      -28.512       -2.022       30.553       34.949       17.023      933.490     1221.450      289.783        0.351        0.122       67.654       13.871        0.042      333.394        2.679      849.921
11/16/2013  01:29:00      -78.436       -0.493      -13.934       33.587       62.442       18.625     1128.104     3899.006      346.898        0.586        0.269       78.437       17.597        0.050      333.454        2.778      849.934
11/16/2013  01:30:00       76.462       68.082       -2.765       80.417       31.944       23.605     6466.924     1020.388      557.202        0.927        0.402      102.380       29.401        0.082      333.461        2.789      849.936
11/16/2013  01:31:00      100.011       92.378       38.542       57.140       31.186       33.334     3264.954      972.591     1111.167        1.268        0.267      136.146       27.318        0.040      333.419        2.721      849.884
11/16/2013  01:32:00      118.214       83.019        8.081       51.372       38.858       34.549     2639.090     1509.917     1193.638        1.314        0.267      144.453       17.949        0.015      333.433        2.742      849.924
11/16/2013  01:33:00      148.159      117.171       41.659       62.156       37.862       47.289     3863.384     1433.560     2236.216        2.247        0.377      188.892       40.686        0.046      333.403        2.694      849.903
11/16/2013  01:34:00      116.398      148.678      110.032       66.060       56.597       46.121     4363.980     3203.214     2127.154        2.873        0.485      188.822       35.686        0.036      333.402        2.690      849.879
11/16/2013  01:35:00       96.720      135.348      108.581       65.742       62.207       43.846     4322.048     3869.684     1922.511        2.479        0.506      166.354       42.111        0.064      333.411        2.707      849.886
11/16/2013  01:36:00      110.125       78.928       89.352       71.183       90.399       60.335     5066.993     8172.049     3640.316        2.161        0.844      135.488       62.074        0.210      333.413        2.709      849.923
11/16/2013  01:37:00       13.483      166.288      170.434       55.287       69.833       48.396     3056.632     4876.625     2342.151        3.358        0.514      166.834       43.918        0.069      333.455        2.777      849.819
11/16/2013  01:38:00       91.196      128.136      110.419       89.173       62.092       56.616     7951.769     3855.430     3205.325        2.597        0.751      157.275       57.378        0.133      333.427        2.731      849.746
11/16/2013  01:39:00      142.165       39.550       16.359       64.084       50.555       46.840     4106.817     2555.787     2193.963        1.545        0.443      147.564       21.940        0.022      333.350        2.608      849.844
11/16/2013  01:40:00      115.896       55.476        8.461       61.989       47.081       32.745     3842.581     2216.575     1072.209        1.185        0.357      128.489       16.507        0.017      333.252        2.445      849.899
11/16/2013  01:41:00       89.877       49.881       37.261       36.373       42.206       31.219     1323.006     1781.323      974.626        0.802        0.204      102.791       15.132        0.022      333.294        2.513      850.011
11/16/2013  01:42:00      166.629      128.088       95.655      103.527       82.856       92.911    10717.801     6865.156     8632.399        3.976        1.311      210.171       93.888        0.200      333.380        2.653      849.931
11/16/2013  01:43:00      130.241      160.612      191.288       98.287       96.357       59.616     9660.248     9284.637     3554.025        5.092        1.125      206.782       66.321        0.103      333.410        2.704      849.809
11/16/2013  01:44:00       71.736       18.296       80.758       85.768      105.201       60.887     7356.110    11067.304     3707.262        1.706        1.107       74.032       76.701        1.073      333.552        2.940      849.856
11/16/2013  01:45:00       56.956       75.081      115.472       91.306      105.303       74.139     8336.752    11088.744     5496.544        2.356        1.246       94.240       79.094        0.704      333.595        3.012      849.850
11/16/2013  01:46:00      124.460     -113.611       22.249       72.481       67.544       53.059     5253.499     4562.126     2815.309        2.076        0.632      168.516       49.466        0.086      333.642        3.089      849.961
11/16/2013  01:47:00       69.981       75.750      116.721       68.481       63.228       46.468     4689.670     3997.773     2159.319        1.755        0.542      103.128       46.551        0.204      333.623        3.060      849.994
11/16/2013  01:48:00      132.205       -4.308       54.234       93.424       89.268       51.510     8727.959     7968.861     2653.318        1.989        0.968      132.275       45.946        0.121      333.731        3.235      849.907
11/16/2013  01:49:00       52.918       22.819       70.152       67.950       89.503       54.086     4617.255     8010.860     2925.340        1.189        0.778       57.628       58.910        1.045      333.874        3.475      849.939
11/16/2013  01:50:00       62.942       60.487       44.075       38.778       40.441       31.061     1503.749     1635.496      964.767        0.683        0.205       87.295       22.760        0.068      333.621        3.055      849.988
11/16/2013  01:51:00       79.372       42.163        3.489       27.107       25.152       20.574      734.780      632.621      423.298        0.494        0.090       89.875       14.815        0.027      333.509        2.868      849.977
11/16/2013  01:52:00       67.489       92.422       62.555       45.579       42.574       54.123     2077.458     1812.513     2929.287        1.191        0.341      114.440       38.198        0.111      333.553        2.942      849.974
11/16/2013  01:53:00      140.910       79.953       35.478       64.120       49.518       50.918     4111.370     2452.040     2592.620        1.833        0.458      162.012       27.213        0.028      333.616        3.046      849.962
11/16/2013  01:54:00      181.148       78.665       32.640       53.560       48.388       40.950     2868.709     2341.432     1676.941        2.348        0.344      197.491       32.380        0.027      333.574        2.975      849.963
11/16/2013  01:55:00       43.809       51.253       52.234       37.608       42.298       30.871     1414.372     1789.136      953.001        0.571        0.208       67.425       27.818        0.170      333.693        3.175      850.063
11/16/2013  01:56:00       30.897       25.179        2.779       16.757       20.556       13.835      280.795      422.530      191.403        0.125        0.045       39.857       12.198        0.094      333.636        3.079      850.121
11/16/2013  01:57:00       10.655       85.143      -11.583       22.487       31.453       14.364      505.681      989.300      206.320        0.460        0.085       85.807        8.794        0.011      333.749        3.268      850.135
11/16/2013  01:58:00       -1.437       17.555       -0.334       30.775       28.721       13.498      947.126      824.878      182.186        0.113        0.098       17.614       12.580        0.510      333.736        3.247      850.136
11/16/2013  01:59:00      -55.843       -5.048       -1.456       57.987       25.986       15.284     3362.488      675.280      233.595        0.371        0.214       56.070       23.575        0.177      333.839        3.418      850.149
11/16/2013  02:00:00       46.113       33.872        1.245       22.912       25.648       23.444      524.954      657.842      549.636        0.250        0.087       57.217       21.010        0.135      333.784        3.327      850.124
11/16/2013  02:01:00        5.620       22.742       10.293       27.559       18.084       20.381      759.494      327.045      415.399        0.108        0.075       23.426       11.560        0.243      333.825        3.394      850.108
11/16/2013  02:02:00       47.798       51.335       15.945       19.470       11.097       20.759      379.098      123.141      430.938        0.305        0.047       70.142       11.054        0.025      333.797        3.347      850.092
11/16/2013  02:03:00      103.580       61.239       12.012       27.531       19.894       16.249      757.974      395.765      264.041        0.802        0.071      120.329        5.242        0.002      333.768        3.299      850.081
11/16/2013  02:04:00       86.383       83.613       43.993       67.380       25.255       46.811     4540.065      637.818     2191.276        1.188        0.368      120.221       48.157        0.160      333.746        3.262      850.034
11/16/2013  02:05:00       -8.582       14.597       23.508       27.506       42.583       18.713      756.597     1813.333      350.188        0.188        0.146       16.933       23.735        1.965      333.756        3.280      850.077
11/16/2013  02:06:00      -56.110       -4.415       -8.043       28.588       32.918       24.060      817.261     1083.598      578.867        0.286        0.124       56.284       20.423        0.132      333.856        3.445      850.166
11/16/2013  02:07:00      -45.471      -72.258        1.164       22.308       46.741       17.219      497.639     2184.754      296.497        0.513        0.149       85.374       13.976        0.027      334.002        3.689      850.167
11/16/2013  02:08:00       23.315      -77.046      -10.754       38.607       63.410       49.541     1490.482     4020.820     2454.289        0.728        0.398       80.496       44.708        0.308      334.188        3.996      850.159
11/16/2013  02:09:00       -9.213      -65.930       11.419       63.273       40.601       37.718     4003.520     1648.458     1422.631        0.582        0.354       66.571       17.883        0.072      334.310        4.198      850.178
11/16/2013  02:10:00       60.891      -89.448      -15.580       63.381       81.104       50.830     4017.194     6577.843     2583.656        1.256        0.659      108.206       46.890        0.188      334.292        4.167      850.144
11/16/2013  02:11:00       22.457     -107.482      -17.723       82.097       68.185       41.023     6739.992     4649.134     1682.907        1.272        0.654      109.803       15.480        0.020      334.335        4.239      850.158
11/16/2013  02:12:00        4.226      -52.622        9.279       55.103       52.524       39.460     3036.365     2758.723     1557.088        0.511        0.368       52.791       29.481        0.312      334.313        4.204      850.142
11/16/2013  02:13:00      -91.545      -53.148        6.857       50.922       46.916       29.997     2593.066     2201.071      899.850        0.847        0.285      105.854       19.682        0.035      334.202        4.019      850.186
11/16/2013  02:14:00      -37.164      -47.051        3.859       27.485       27.461       23.321      755.402      754.127      543.860        0.283        0.103       59.958       16.851        0.079      334.178        3.978      850.143
11/16/2013  02:15:00      -12.043      -33.305       12.468       24.605       26.755       17.841      605.417      715.810      318.290        0.152        0.082       35.415       11.830        0.112      334.212        4.036      850.105
11/16/2013  02:16:00      -52.989      -29.084        5.453       28.279       27.409       20.311      799.717      751.273      412.524        0.282        0.098       60.446       15.518        0.066      334.288        4.163      850.085
11/16/2013  02:17:00      -13.075      -35.055      -12.622       36.274       37.346       17.459     1315.830     1394.693      304.832        0.229        0.151       37.414       12.606        0.114      334.306        4.194      850.139
11/16/2013  02:18:00      -20.338       10.520       23.922       35.881       55.613       28.324     1287.415     3092.755      802.233        0.314        0.259       22.897       11.138        0.237      334.228        4.062      850.034
11/16/2013  02:19:00      -52.824      -43.257        6.733       66.714       52.623       25.102     4450.717     2769.159      630.096        0.628        0.392       68.276       20.853        0.093      334.266        4.126      850.074
11/16/2013  02:20:00       20.447      -44.687        9.766       47.315       50.574       31.052     2238.679     2557.724      964.219        0.413        0.288       49.143       16.064        0.107      334.260        4.116      850.057
11/16/2013  02:21:00       75.051      -34.415       26.984       75.725       77.415       47.498     5734.221     5993.059     2256.074        1.076        0.699       82.566       44.829        0.295      334.071        3.800      849.963
11/16/2013  02:22:00       11.837     -113.453       -6.834       55.331       76.607       43.933     3061.519     5868.581     1930.085        1.196        0.543      114.069       45.649        0.160      334.069        3.797      849.993
11/16/2013  02:23:00      -29.208       39.892       33.038       26.753       29.236       30.278      715.732      854.725      916.743        0.301        0.124       49.442       21.561        0.190      334.010        3.702      849.908
11/16/2013  02:24:00      -48.514       27.161        3.852       32.784       52.734       18.390     1074.767     2780.855      338.181        0.365        0.210       55.599       15.412        0.077      333.994        3.675      849.907
11/16/2013  02:25:00      -24.417      -37.097        3.128       61.910       34.764       30.779     3832.869     1208.523      947.337        0.398        0.299       44.411       18.494        0.173      334.098        3.846      849.920
11/16/2013  02:26:00      -19.658       62.622       28.444       26.108       27.579       26.824      681.645      760.579      719.549        0.364        0.108       65.635       12.150        0.034      334.032        3.737      849.863
11/16/2013  02:27:00      -22.855        3.086       15.895       29.613       17.230       17.708      876.943      296.883      313.580        0.114        0.074       23.062        8.290        0.129      333.998        3.682      849.871
11/16/2013  02:28:00       -6.090       12.905        7.410       24.105       38.322       17.123      581.069     1468.591      293.189        0.130        0.117       14.270       16.550        1.345      334.047        3.763      849.827
11/16/2013  02:29:00      -52.638      -56.611       -6.763       53.669       33.325       23.430     2880.403     1110.583      548.954        0.528        0.227       77.302       20.744        0.072      334.093        3.838      849.816
11/16/2013  02:30:00       11.388       45.867       42.602       36.949       31.838       18.285     1365.257     1013.680      334.345        0.338        0.136       47.260       12.449        0.069      334.054        3.775      849.779
11/16/2013  02:31:00       -5.585      -30.502       14.672       28.868       24.489       20.081      833.345      599.693      403.237        0.151        0.092       31.009       15.421        0.247      334.104        3.858      849.750
11/16/2013  02:32:00       18.408      -31.906        4.272       50.437       48.233       17.268     2543.902     2326.432      298.187        0.327        0.258       36.835       21.085        0.328      334.170        3.964      849.724
11/16/2013  02:33:00        3.028      -51.793       -3.263       41.822       53.021       30.081     1749.043     2811.275      904.851        0.408        0.273       51.882       22.973        0.196      334.241        4.082      849.712
11/16/2013  02:34:00       47.258       57.020       67.028       63.652       70.266       51.922     4051.555     4937.380     2695.924        1.083        0.584       74.058       48.339        0.426      334.144        3.921      849.743
11/16/2013  02:35:00       14.274       11.364       72.566       39.922       86.966       67.873     1593.750     7563.053     4606.737        0.968        0.688       18.246       72.124       15.625      334.176        3.975      849.725
11/16/2013  02:36:00       63.206       27.680       55.953       66.326       83.270       63.129     4399.099     6933.938     3985.301        1.160        0.766       69.001       67.186        0.948      334.112        3.870      849.758
11/16/2013  02:37:00       82.287       80.081       55.006       64.427       43.055       42.748     4150.856     1853.767     1827.431        1.202        0.392      114.822       38.380        0.112      334.073        3.804      849.759
11/16/2013  02:38:00       60.543        8.674       35.108       60.590       57.494       44.040     3671.094     3305.550     1939.543        0.694        0.446       61.161       47.268        0.597      334.073        3.804      849.731
11/16/2013  02:39:00       31.189       66.797        2.983       29.164       37.345       31.309      850.547     1394.663      980.225        0.433        0.161       73.720       24.342        0.109      333.990        3.668      849.797
11/16/2013  02:40:00       35.882       48.461       32.911       58.323       42.007       26.072     3401.541     1764.550      679.774        0.528        0.292       60.299       23.528        0.152      333.965        3.626      849.793
11/16/2013  02:41:00       78.702       54.710        7.543       84.756       59.953       31.132     7183.648     3594.418      969.219        1.049        0.587       95.850       47.890        0.250      333.974        3.640      849.803
11/16/2013  02:42:00       75.930       77.368       53.565       79.956       64.270       54.275     6393.033     4130.665     2945.819        1.404        0.673      108.403       42.447        0.153      333.933        3.572      849.727
11/16/2013  02:43:00       46.572       88.606       27.671       71.801       92.200       62.856     5155.385     8500.905     3950.878        1.419        0.880      100.100       41.337        0.171      334.184        3.989      849.728
11/16/2013  02:44:00      -80.708      -98.782       33.610      104.689      145.555       65.126    10959.796    21186.279     4241.371        2.689        1.819      127.561       57.824        0.205      335.521        6.207      849.681
11/16/2013  02:45:00      -10.833      -30.992       10.837       68.422       75.913       34.079     4681.581     5762.822     1161.393        0.640        0.580       32.830       35.230        1.152      335.168        5.622      849.682
11/16/2013  02:46:00       67.553       51.108       23.201       39.673       41.198       34.590     1573.918     1697.250     1196.463        0.609        0.223       84.708       20.290        0.057      334.503        4.517      849.672
11/16/2013  02:47:00      134.867       38.449       15.420       56.149       65.840       39.326     3152.665     4334.952     1546.532        1.447        0.452      140.241       25.018        0.032      334.022        3.718      849.710
11/16/2013  02:48:00      140.637      -29.441       26.487       94.924       86.459       76.829     9010.478     7475.158     5902.701        2.186        1.119      143.685       47.499        0.109      334.273        4.137      849.710
11/16/2013  02:49:00      -71.471      -26.935       40.296       87.255       67.796       58.023     7613.388     4596.321     3366.691        1.151        0.779       76.378       58.740        0.591      335.672        6.463      849.678
11/16/2013  02:50:00     -258.773        4.205        7.166      224.687      149.586       77.574    50484.209    22375.860     6017.664        7.294        3.944      258.807       99.360        0.147      336.636        8.069      849.675
11/16/2013  02:51:00     -138.321     -239.645      -17.547      128.886      115.071       65.615    16611.718    13241.448     4305.352        5.551        1.708      276.699       73.121        0.070      336.780        8.308      849.705
11/16/2013  02:52:00     -149.177     -111.524       31.280      151.713      109.990       76.156    23016.929    12097.722     5799.755        3.828        2.046      186.256       79.045        0.180      336.800        8.343      849.738
11/16/2013  02:53:00     -244.349     -130.056       -2.223      188.671      127.958       84.017    35596.902    16373.348     7058.929        6.782        2.951      276.805       88.101        0.101      337.073        8.798      849.674
11/16/2013  02:54:00     -334.622      -78.529      -15.665      204.017      113.269       78.727    41623.056    12829.887     6198.001        8.951        3.033      343.713       99.497        0.084      337.132        8.897      849.654
11/16/2013  02:55:00     -133.103     -123.837       19.944      140.306      108.166       73.858    19685.817    11699.915     5455.060        3.514        1.842      181.802       66.867        0.135      337.174        8.970      849.636
11/16/2013  02:56:00     -187.493     -173.176        2.733      128.138      101.142       62.179    16419.405    10229.632     3866.205        4.783        1.526      255.232       55.730        0.048      337.151        8.930      849.588
11/16/2013  02:57:00     -112.711     -166.991      -10.959      140.569      110.927       52.293    19759.695    12304.741     2734.527        3.775        1.740      201.469       35.926        0.032      337.096        8.836      849.505
11/16/2013  02:58:00      -98.191     -141.514       24.970      111.497      101.079       64.170    12431.623    10217.050     4117.764        2.852        1.338      172.243       68.964        0.160      337.108        8.857      849.467
11/16/2013  02:59:00     -252.408     -182.325       12.656      208.826      145.080      101.070    43608.207    21048.228    10215.145        8.598        3.744      311.371       82.803        0.071      337.151        8.929      849.451
11/16/2013  03:00:00     -378.160     -243.644      -16.874      207.823      198.954      100.731    43190.432    39582.791    10146.692       14.777        4.646      449.852      105.077        0.055      337.291        9.163      849.363
11/16/2013  03:01:00     -499.693     -268.400      -19.159      264.901      176.532      120.587    70172.470    31163.707    14541.197       21.896        5.794      567.214      122.957        0.047      337.442        9.415      849.327
11/16/2013  03:02:00     -298.180      -72.761      -16.407      154.456      131.065       75.833    23856.694    17178.011     5750.670        7.062        2.339      306.929       63.639        0.043      337.365        9.286      849.370
11/16/2013  03:03:00     -286.774     -234.989       -5.085      196.341      191.279       90.492    38549.836    36587.670     8188.760       11.039        4.166      370.754       94.532        0.065      337.409        9.361      849.384
11/16/2013  03:04:00     -290.441     -188.322       20.748      229.449      173.784      104.302    52646.737    30200.891    10878.907       10.697        4.686      346.152      110.295        0.102      337.380        9.312      849.381
11/16/2013  03:05:00     -358.731     -192.749      -21.455      228.687      146.553       76.478    52297.764    21477.656     5848.948       12.295        3.981      407.235       73.303        0.032      337.405        9.353      849.472
11/16/2013  03:06:00     -160.973     -184.908      -11.374      136.272      131.303       67.629    18570.049    17240.384     4573.659        5.030        2.019      245.160       72.850        0.088      337.427        9.391      849.518
11/16/2013  03:07:00     -329.650     -221.602       -2.806      214.753      144.182       99.376    46118.976    20788.534     9875.500       11.727        3.839      397.211       97.552        0.060      337.345        9.255      849.448
11/16/2013  03:08:00     -306.486     -290.407      -18.664      212.677      168.359      110.953    45231.319    28344.587    12310.520       13.223        4.294      422.220      127.088        0.091      337.234        9.067      849.451
11/16/2013  03:09:00     -106.684     -110.456        2.452      121.795      117.452       54.883    14834.043    13794.918     3012.156        2.761        1.582      153.564       49.963        0.106      336.431        7.726      849.524
11/16/2013  03:10:00      -34.526      -24.942       14.763       82.319       70.419       44.787     6776.384     4958.860     2005.883        0.788        0.687       42.593       28.775        0.456      336.003        7.012      849.606
11/16/2013  03:11:00       15.216      -35.920       40.031       62.137       50.129       42.736     3861.021     2512.920     1826.350        0.566        0.410       39.010       33.983        0.759      335.585        6.318      849.541
11/16/2013  03:12:00      -75.488     -118.724        8.136      135.560      107.124       58.524    18376.538    11475.503     3425.011        2.656        1.664      140.690       49.014        0.121      336.060        7.107      849.479
11/16/2013  03:13:00      -54.571      -10.783        9.895       84.283      109.204       50.818     7103.572    11925.432     2582.438        1.240        1.081       55.627       40.955        0.542      336.120        7.209      849.357
11/16/2013  03:14:00     -157.111       18.967       10.042      175.458      109.683       69.473    30785.655    12030.331     4826.431        3.638        2.382      158.252       80.046        0.256      336.713        8.200      849.278
11/16/2013  03:15:00     -245.895      -57.267      -20.750      141.798      118.268       59.188    20106.695    13987.267     3503.169        5.088        1.880      252.476       57.391        0.052      337.192        8.996      849.224
11/16/2013  03:16:00     -377.525     -112.926      -31.118      228.540      216.274       95.736    52230.414    46774.553     9165.419       13.219        5.409      394.053      103.003        0.068      337.326        9.222      849.246
11/16/2013  03:17:00     -352.913     -116.441        4.362      247.349      174.532       83.197    61181.311    30461.264     6921.700       11.832        4.928      371.626       83.746        0.051      337.048        8.758      849.242
11/16/2013  03:18:00     -150.965     -315.393       -0.207      234.057      168.296      103.428    54782.495    28323.604    10697.402       10.801        4.690      349.662       70.119        0.040      335.314        5.864      849.381
11/16/2013  03:19:00     -163.166     -185.127       -4.628      226.076      163.488       80.353    51110.475    26728.423     6456.650        7.259        4.215      246.770       74.292        0.091      335.186        5.650      849.372
11/16/2013  03:20:00       53.550     -149.930       16.853       96.210      140.010       65.557     9256.425    19602.824     4297.673        2.939        1.658      159.206       60.632        0.145      336.091        7.158      849.366
11/16/2013  03:21:00      -90.300      -69.182       -2.274       97.352       68.714       49.549     9477.424     4721.563     2455.075        1.480        0.833      113.755       51.448        0.205      335.926        6.884      849.330
11/16/2013  03:22:00     -165.867     -150.910       23.148      188.056      165.578      103.143    35365.226    27416.122    10638.568        6.211        3.671      224.245      111.517        0.247      336.473        7.796      849.325
11/16/2013  03:23:00     -269.507     -131.647       -3.007      152.921      158.507       73.566    23384.833    25124.512     5411.988        7.194        2.696      299.942       61.360        0.042      337.120        8.877      849.273
11/16/2013  03:24:00     -259.775     -121.301       27.317      209.149      201.487      100.235    43743.465    40596.948    10047.014        8.865        4.719      286.700      103.988        0.132      337.229        9.059      849.214
11/16/2013  03:25:00     -221.915      -23.681       13.424      211.411      155.578       96.650    44694.661    24204.635     9341.310        6.410        3.912      223.175       91.324        0.167      337.281        9.146      849.226
11/16/2013  03:26:00     -444.340     -117.505      -20.299      365.934      229.617      107.542   133907.624    52723.808    11565.189       20.489        9.910      459.615      149.542        0.106      337.361        9.281      849.204
11/16/2013  03:27:00     -429.521     -193.391      -33.638      230.745      186.143       87.310    53243.182    34649.351     7623.073       15.925        4.776      471.050       89.020        0.036      337.380        9.313      849.169
11/16/2013  03:28:00     -278.051     -259.070      -16.919      223.061      188.697      101.423    49756.263    35606.572    10286.627       12.016        4.782      380.039      109.406        0.083      337.374        9.302      849.199
11/16/2013  03:29:00     -231.860     -148.782        5.426      182.029      131.630       78.063    33134.727    17326.380     6093.797        6.623        2.828      275.491       78.307        0.081      337.316        9.204      849.180
11/16/2013  03:30:00     -251.993     -149.196       10.267      191.806      145.314       88.439    36789.648    21116.272     7821.469        7.578        3.286      292.848       70.971        0.059      337.302        9.182      849.199
11/16/2013  03:31:00     -171.420      -90.102       21.779      159.252      135.302       84.620    25361.167    18306.588     7160.566        4.439        2.541      193.657       90.203        0.217      337.243        9.084      849.192
11/16/2013  03:32:00     -296.936     -213.839        3.839      147.370      155.998       96.506    21717.945    24335.447     9313.408        9.463        2.768      365.921       81.986        0.050      337.239        9.076      849.229
11/16/2013  03:33:00     -380.754     -121.205      -12.698      292.233      173.336       94.982    85400.402    30045.446     9021.669       14.212        6.223      399.580      103.163        0.067      337.217        9.041      849.182
11/16/2013  03:34:00     -332.291      -93.428       -5.346      181.602      153.958       84.389    32979.385    23703.064     7121.540        9.148        3.190      345.176       93.372        0.073      337.194        9.002      849.169
11/16/2013  03:35:00     -288.876      -42.931      -13.332      221.264      176.314       87.513    48957.555    31086.798     7658.446        8.657        4.385      292.049      119.110        0.166      337.185        8.985      849.190
11/16/2013  03:36:00     -277.508     -162.133      -21.521      193.265      198.674       80.574    37351.283    39471.404     6492.231        9.352        4.166      321.400       87.358        0.074      337.183        8.983      849.115
11/16/2013  03:37:00     -419.308      -71.524      -16.215      247.041      131.016       73.158    61029.395    17165.301     5352.107       13.236        4.177      425.364       99.947        0.055      337.166        8.954      849.124
11/16/2013  03:38:00     -241.428     -179.674       -5.434      202.341      160.825      104.142    40941.778    25864.570    10845.608        8.411        3.883      300.949       95.341        0.100      337.159        8.942      849.149
11/16/2013  03:39:00     -310.523     -251.007        4.074      239.238      232.290      119.387    57235.012    53958.485    14253.162       14.242        6.272      399.286      135.374        0.115      337.209        9.026      849.117
11/16/2013  03:40:00     -413.698     -236.912       -5.489      258.523      194.530      108.188    66834.274    37842.052    11704.628       17.182        5.819      476.732      128.996        0.073      337.283        9.151      849.113
11/16/2013  03:41:00     -247.383      -49.610        6.108      181.805      111.984       81.216    33053.169    12540.379     6596.104        5.793        2.609      252.309      101.089        0.161      337.224        9.052      849.190
11/16/2013  03:42:00     -547.859     -130.008      -24.677      266.878      177.602       96.161    71223.760    31542.442     9247.012       21.481        5.601      563.073      112.108        0.040      337.136        8.904      849.183
11/16/2013  03:43:00     -359.158     -117.106      -15.259      196.536      124.053       75.385    38626.311    15389.196     5682.833       10.131        2.985      377.768       85.002        0.051      337.089        8.822      849.189
11/16/2013  03:44:00     -331.747     -190.756       -0.790      301.180      143.574       96.512    90709.468    20613.415     9314.494       13.352        6.032      382.680      116.173        0.092      337.089        8.825      849.172
11/16/2013  03:45:00     -501.257     -139.249      -13.294      279.034      193.337      117.142    77859.926    37379.183    13722.292       19.987        6.448      520.240      139.855        0.072      337.225        9.053      849.164
11/16/2013  03:46:00     -390.254     -116.092      -10.146      187.841      213.577       88.774    35284.309    45615.001     7880.843       12.731        4.439      407.156       99.914        0.060      337.333        9.234      849.167
11/16/2013  03:47:00     -295.546     -122.431        3.146      182.167      178.850       90.961    33184.992    31987.196     8273.988        8.788        3.672      319.901       88.369        0.076      337.259        9.110      849.175
11/16/2013  03:48:00     -289.327     -150.905       12.933      200.111      171.785       95.832    40044.551    29510.184     9183.729        9.268        3.937      326.316      106.939        0.107      337.193        9.000      849.189
11/16/2013  03:49:00     -249.675      -97.521        8.957      175.842      136.685       64.348    30920.467    18682.756     4140.659        6.283        2.687      268.045       69.739        0.068      337.154        8.933      849.183
11/16/2013  03:50:00     -353.883       -6.562        1.012      224.801      176.485      107.412    50535.655    31147.084    11537.321       10.923        4.661      353.944      107.498        0.092      337.122        8.879      849.190
11/16/2013  03:51:00     -399.022     -304.219      -18.157      204.302      180.516       93.139    41739.382    32585.942     8674.788       16.753        4.150      501.764      110.496        0.048      337.138        8.909      849.155
11/16/2013  03:52:00     -124.752     -108.891        7.935      184.288      135.460       83.628    33961.968    18349.458     6993.651        4.338        2.965      165.591       87.463        0.279      337.124        8.882      849.167
11/16/2013  03:53:00     -398.838      -83.315      -18.856      274.391      175.700       97.562    75290.663    30870.536     9518.292       14.100        5.784      407.447       99.048        0.059      337.182        8.981      849.194
11/16/2013  03:54:00     -303.666     -133.356      -10.484      216.148      142.750       82.192    46719.921    20377.513     6755.543        9.197        3.693      331.658       93.360        0.079      337.170        8.961      849.245
11/16/2013  03:55:00     -341.691     -166.285        6.047      195.757      235.113      100.365    38320.751    55278.226    10073.193       12.404        5.184      380.004       99.161        0.068      337.200        9.012      849.223
11/16/2013  03:56:00     -628.130     -209.549      -61.102      280.516      234.143      105.445    78689.227    54822.750    11118.547       29.338        7.232      662.162      102.085        0.024      337.379        9.310      849.187
11/16/2013  03:57:00     -519.552     -318.894      -11.405      244.063      181.402      106.796    59566.675    32906.855    11405.460       23.780        5.194      609.613      131.144        0.046      337.381        9.314      849.187
11/16/2013  03:58:00     -484.730     -285.729      -25.483      303.564      196.173      103.552    92150.888    38483.948    10722.984       22.928        7.068      562.676      127.585        0.051      337.321        9.214      849.200
11/16/2013  03:59:00     -300.339      -60.591       10.105      227.383      124.779       81.128    51702.916    15569.707     6581.689        8.390        3.693      306.389       96.632        0.099      337.268        9.125      849.231
11/16/2013  04:00:00     -353.402     -116.014       10.125      268.227      195.651      104.221    71945.937    38279.136    10861.936       12.975        6.054      371.957      123.870        0.111      337.278        9.141      849.224
11/16/2013  04:01:00     -419.535      -97.589      -13.199      235.236      184.095       97.985    55335.757    33890.846     9601.112       14.225        4.941      430.735      114.182        0.070      337.265        9.122      849.246
11/16/2013  04:02:00     -449.968      -89.326      -18.220      242.402      190.263       86.260    58758.796    36199.844     7440.821       15.657        5.120      458.748      102.751        0.050      337.228        9.059      849.245
11/16/2013  04:03:00     -313.512      -59.402       15.838      232.905      151.214       94.155    54244.853    22865.644     8865.144        9.401        4.299      319.089      109.850        0.119      337.194        9.001      849.264
11/16/2013  04:04:00     -275.802     -122.019       10.923      203.457      186.115      106.159    41394.857    34638.786    11269.787        8.917        4.365      301.588      125.427        0.173      337.191        8.997      849.223
11/16/2013  04:05:00     -458.953     -201.099      -21.642      225.868      252.702      120.788    51016.456    63858.303    14589.772       19.048        6.473      501.077      118.085        0.056      337.286        9.153      849.223
11/16/2013  04:06:00     -406.941     -197.546      -11.974      250.761      226.654      119.723    62880.943    51371.814    14333.666       16.665        6.429      452.355      111.433        0.061      337.307        9.190      849.200
11/16/2013  04:07:00     -406.483     -121.618        5.725      296.406      185.353      108.654    87856.799    34355.778    11805.606       15.701        6.701      424.287      132.058        0.097      337.308        9.192      849.249
11/16/2013  04:08:00     -386.035     -133.704       -6.741      226.981      189.951       94.349    51520.296    36081.348     8901.771       13.171        4.825      408.534      101.367        0.062      337.290        9.161      849.295
11/16/2013  04:09:00     -486.425     -168.703      -31.076      233.156      232.972      104.410    54361.782    54276.006    10901.441       19.276        5.977      514.849      120.584        0.055      337.312        9.199      849.331
11/16/2013  04:10:00     -493.762     -218.537      -23.371      277.782      203.552      111.534    77162.717    41433.428    12439.797       21.155        6.552      539.963      126.872        0.055      337.329        9.226      849.350
11/16/2013  04:11:00     -503.907     -128.328       -6.100      298.107      190.609      116.545    88867.845    36331.833    13582.649       20.458        6.939      519.990      138.211        0.071      337.329        9.227      849.410
11/16/2013  04:12:00     -304.509     -133.752        2.858      210.511      158.017       96.899    44314.830    24969.471     9389.359        9.463        3.934      332.589      104.002        0.098      337.341        9.246      849.449
11/16/2013  04:13:00     -426.755     -106.889       -1.696      256.851      176.123       93.034    65972.418    31019.471     8655.356       14.958        5.282      439.937      115.969        0.069      337.397        9.341      849.482
11/16/2013  04:14:00     -397.955     -199.118      -16.209      229.366      200.212       99.283    52608.736    40084.696     9857.209       15.039        5.128      444.990      117.317        0.070      337.387        9.323      849.535
11/16/2013  04:15:00     -262.337     -156.109        0.368      239.105      201.513       95.259    57171.222    40607.610     9074.367       10.000        5.343      305.272      107.248        0.123      337.334        9.235      849.597
11/16/2013  04:16:00     -352.828     -160.004      -17.404      248.014      188.592       97.155    61511.192    35567.090     9439.136       12.843        5.326      387.413      108.165        0.078      337.330        9.228      849.624
11/16/2013  04:17:00     -390.438     -123.444       12.384      282.840      244.381      127.632    79998.587    59722.013    16289.986       16.189        7.801      409.488      141.327        0.119      337.326        9.222      849.625
11/16/2013  04:18:00     -261.396     -122.639       -7.224      196.333      139.300      102.977    38546.465    19404.500    10604.311        7.597        3.428      288.736       86.446        0.090      337.337        9.240      849.583
11/16/2013  04:19:00     -247.121     -129.472        2.354      208.591      145.249       94.579    43510.130    21097.285     8945.270        7.568        3.678      278.984      105.302        0.142      337.315        9.205      849.542
11/16/2013  04:20:00     -509.203     -236.231      -49.462      190.124      146.678       83.274    36147.216    21514.555     6934.624       19.105        3.230      561.331       85.617        0.023      337.358        9.276      849.537
11/16/2013  04:21:00     -592.401     -136.287      -32.902      201.817      174.014       96.514    40730.016    30280.809     9314.917       22.544        4.016      607.876      108.753        0.032      337.337        9.240      849.524
11/16/2013  04:22:00     -480.098      -48.623      -15.469      261.001      164.140      102.618    68121.423    26941.783    10530.494       16.932        5.280      482.554      131.339        0.074      337.309        9.194      849.496
11/16/2013  04:23:00     -233.532      -63.020        6.291      187.065      147.743       80.269    34993.162    21828.085     6443.069        6.089        3.163      241.886       88.097        0.133      337.248        9.093      849.507
11/16/2013  04:24:00     -311.725      -87.740       -3.969      231.347      150.327       79.313    53521.418    22598.112     6290.606        9.363        4.121      323.838       87.497        0.073      337.229        9.061      849.512
11/16/2013  04:25:00     -269.963      -58.232        4.032      168.036      131.312       81.692    28236.079    17242.870     6673.630        6.421        2.608      276.172       82.442        0.089      337.221        9.047      849.505
11/16/2013  04:26:00     -477.315      -93.375      -28.846      176.140      155.536       79.200    31025.467    24191.463     6272.645       14.942        3.074      486.362       71.240        0.021      337.258        9.108      849.566
11/16/2013  04:27:00     -385.850      -82.135      -10.513      302.881      137.999       85.980    91736.970    19043.784     7392.637       13.693        5.909      394.495      118.487        0.090      337.231        9.066      849.590
11/16/2013  04:28:00     -615.068      -17.630      -55.378      181.199      151.144       75.545    32833.115    22844.410     5707.087       22.152        3.069      615.321       76.477        0.015      337.285        9.153      849.684
11/16/2013  04:29:00     -472.179     -151.205      -12.846      213.152      212.680      100.966    45433.771    45232.728    10194.136       17.340        5.043      495.798       96.482        0.038      337.226        9.055      849.719
11/16/2013  04:30:00     -334.958      -86.627      -15.952      217.267      191.440      101.986    47205.021    36649.343    10401.195       10.709        4.713      345.978      116.807        0.114      337.230        9.062      849.761
11/16/2013  04:31:00     -526.575     -138.957      -39.183      237.714      225.987       92.942    56507.733    51070.167     8638.168       20.715        5.811      544.601      103.311        0.036      337.242        9.082      849.782
11/16/2013  04:32:00     -342.893      -30.684      -17.244      180.791      135.395       77.015    32685.424    18331.821     5931.282        8.787        2.847      344.263       67.444        0.038      337.216        9.039      849.755
11/16/2013  04:33:00     -434.880      -42.575      -13.501      164.707      117.189       79.963    27128.529    13733.248     6394.142       11.918        2.363      436.959       81.143        0.034      337.182        8.980      849.794
11/16/2013  04:34:00     -470.094       -2.915      -21.827      266.679      166.997       87.533    71117.546    27888.118     7661.983       16.405        5.333      470.104      114.700        0.060      337.195        9.004      849.764
11/16/2013  04:35:00     -452.709     -131.933      -29.203      204.478      129.428       84.456    41811.378    16751.734     7132.757       14.444        3.285      471.542      107.876        0.052      337.210        9.028      849.739
11/16/2013  04:36:00     -233.146      -51.078        6.510      232.225      118.733       88.422    53928.536    14097.420     7818.460        6.641        3.792      238.675      106.695        0.200      337.143        8.917      849.752
11/16/2013  04:37:00     -437.215     -103.463      -32.554      196.674      152.988       83.831    38680.616    23405.276     7027.664       13.600        3.456      449.290       93.905        0.044      337.140        8.911      849.711
11/16/2013  04:38:00     -365.562      -77.008       -6.303      170.689      137.021       78.632    29134.816    18774.756     6182.973        9.684        2.705      373.585       72.144        0.037      337.062        8.778      849.685
11/16/2013  04:39:00     -543.944     -106.872      -14.617      246.170      167.690       99.054    60599.803    28120.056     9811.698       20.300        4.927      554.344      116.867        0.044      337.106        8.854      849.642
11/16/2013  04:40:00     -580.523     -121.893      -24.502      238.273      187.056      106.177    56774.256    34989.954    11273.582       22.773        5.152      593.182      104.237        0.031      337.113        8.865      849.589
11/16/2013  04:41:00     -657.328      -52.746      -56.260      239.645      192.066      102.257    57429.592    36889.236    10456.476       27.138        5.239      659.441      106.647        0.026      337.089        8.824      849.633
11/16/2013  04:42:00     -483.060     -118.436      -16.782      186.264      137.774       89.878    34694.347    18981.697     8078.058       15.469        3.088      497.367      100.022        0.040      337.087        8.821      849.677
11/16/2013  04:43:00     -493.822      -18.966      -10.584      208.323      176.282       78.969    43398.663    31075.321     6236.172       16.250        4.036      494.186       85.895        0.030      337.092        8.829      849.670
11/16/2013  04:44:00     -516.654      -46.212      -53.824      146.623      149.776       78.083    21498.435    22432.927     6096.989       16.099        2.501      518.717       65.738        0.016      337.039        8.741      849.680
11/16/2013  04:45:00     -494.821     -118.845      -31.529      192.408      163.182       97.465    37020.710    26628.286     9499.394       16.654        3.657      508.893      102.615        0.041      337.029        8.724      849.657
11/16/2013  04:46:00     -427.786     -139.107      -12.887      239.269      161.263       85.248    57249.545    26005.653     7267.251       14.650        4.526      449.835       91.040        0.041      337.013        8.697      849.714
11/16/2013  04:47:00     -317.807      -84.051       12.080      219.800      177.246       91.467    48311.986    31416.013     8366.142        9.814        4.405      328.733      104.471        0.101      337.012        8.695      849.748
11/16/2013  04:48:00     -575.421      -79.760      -45.931      184.787      157.073       73.149    34146.216    24671.775     5350.825       20.186        3.208      580.922       71.941        0.015      337.025        8.716      849.749
11/16/2013  04:49:00     -389.319     -111.428      -16.206      175.514      161.159       89.552    30805.096    25972.186     8019.610       11.451        3.240      404.951       92.447        0.052      337.001        8.679      849.702
11/16/2013  04:50:00     -365.655      -70.255       -0.145      227.859      166.707       92.025    51919.810    27791.234     8468.637       11.339        4.409      372.343      107.077        0.083      337.008        8.689      849.734
11/16/2013  04:51:00     -450.114     -122.459      -26.980      265.631      162.033       88.263    70559.867    26254.658     7790.271       16.145        5.230      466.475       98.446        0.045      337.025        8.719      849.688
11/16/2013  04:52:00     -489.467     -129.550      -33.362      229.215      189.158       83.251    52539.425    35780.908     6930.664       17.634        4.763      506.321       98.196        0.038      337.027        8.721      849.690
11/16/2013  04:53:00     -371.823     -122.715       -6.960      217.445      177.180       94.331    47282.491    31392.921     8898.334       12.045        4.379      391.550       94.738        0.059      337.015        8.699      849.597
11/16/2013  04:54:00     -423.486      -20.098      -15.000      221.126      184.345       94.867    48896.857    33982.929     8999.663       13.591        4.594      423.963      106.695        0.063      336.994        8.664      849.587
11/16/2013  04:55:00     -706.614     -132.650      -54.978      200.434      249.346       93.974    40173.694    62173.247     8831.122       31.553        5.559      718.957       87.190        0.015      337.021        8.709      849.576
11/16/2013  04:56:00     -561.801     -119.374       -2.021      278.207      174.610      107.568    77399.285    30488.501    11570.791       22.464        5.973      574.344      119.028        0.043      337.006        8.685      849.508
11/16/2013  04:57:00     -461.847     -210.865      -14.998      220.677      186.878      100.117    48698.530    34923.525    10023.476       17.580        4.682      507.707      124.177        0.060      337.043        8.747      849.514
11/16/2013  04:58:00     -365.647     -113.623      -21.683      232.520      191.464       99.323    54065.622    36658.545     9865.032       12.381        5.029      382.894      105.922        0.077      337.000        8.675      849.537
11/16/2013  04:59:00     -404.196      -25.531       -7.317      200.293      180.219       84.979    40117.137    32478.760     7221.459       12.193        3.991      405.001       94.144        0.054      337.002        8.678      849.590
11/16/2013  05:00:00     -469.995      -24.794      -16.162      215.622      117.077       83.365    46492.651    13706.987     6949.768       14.445        3.357      470.649       97.047        0.043      336.963        8.613      849.605
11/16/2013  05:01:00     -445.328      -72.082      -17.070      211.472      162.051       84.146    44720.291    26260.682     7080.578       14.092        3.903      451.124       89.171        0.039      336.956        8.602      849.679
11/16/2013  05:02:00     -391.903     -112.577       -8.217      214.523      162.721       86.564    46019.914    26478.285     7493.331       12.314        4.000      407.751       96.926        0.057      336.944        8.580      849.700
11/16/2013  05:03:00     -543.243      -69.487      -30.755      165.877      162.952       94.416    27515.041    26553.330     8914.420       18.192        3.149      547.669      103.538        0.036      336.944        8.581      849.698
11/16/2013  05:04:00     -276.109      -76.990       -7.242      145.571      124.511       64.323    21191.029    15502.888     4137.411        6.152        2.042      286.642       61.754        0.046      336.917        8.538      849.749
11/16/2013  05:05:00     -357.036     -112.798      -22.601      175.693      171.969       70.646    30868.105    29573.433     4990.869       10.306        3.272      374.430       67.472        0.032      336.975        8.634      849.773
11/16/2013  05:06:00     -253.227      -11.515       13.759      125.002      106.388       71.973    15625.521    11318.356     5180.075        4.828        1.606      253.489       58.242        0.053      336.919        8.540      849.764
11/16/2013  05:07:00     -313.719      -34.028       -5.366      189.089      133.860       75.059    35754.818    17918.602     5633.823        7.944        2.965      315.559       79.606        0.064      336.928        8.555      849.741
11/16/2013  05:08:00     -644.216      -36.641      -59.612      288.410      163.881       91.727    83180.406    26856.852     8413.815       26.916        5.923      645.257      112.284        0.030      336.989        8.656      849.655
11/16/2013  05:09:00     -342.352      -68.929       -4.744      179.704      127.951       69.894    32293.372    16371.490     4885.232        8.775        2.678      349.222       75.807        0.047      336.928        8.556      849.641
11/16/2013  05:10:00     -589.304     -125.555      -20.031      219.811      165.529       94.541    48316.959    27399.948     8938.022       22.403        4.233      602.531      102.888        0.029      336.936        8.570      849.577
11/16/2013  05:11:00     -314.848      -70.538      -18.683      184.857      148.078       70.981    34172.217    21927.040     5038.237        8.278        3.057      322.653       64.068        0.039      336.899        8.507      849.517
11/16/2013  05:12:00     -446.848      -93.212      -11.841      237.884      182.071       87.692    56588.636    33149.686     7689.820       15.295        4.871      456.467       98.843        0.047      336.882        8.479      849.502
11/16/2013  05:13:00     -327.529      -58.016       -8.825      142.964      149.015       69.934    20438.715    22205.527     4890.829        7.912        2.377      332.628       60.840        0.033      336.835        8.399      849.478
11/16/2013  05:14:00     -411.108     -132.674      -17.149      197.069      166.589       81.982    38836.284    27751.941     6721.094       13.009        3.665      431.986       78.531        0.033      336.820        8.375      849.468
11/16/2013  05:15:00     -446.044      -51.789      -12.052      228.193      186.100       90.994    52072.067    34633.100     8279.882       14.836        4.749      449.040      101.453        0.051      336.837        8.406      849.455
11/16/2013  05:16:00     -244.917      -64.083        6.176      210.710      124.210       96.992    44398.539    15428.092     9407.434        6.667        3.462      253.162      104.339        0.170      336.811        8.361      849.435
11/16/2013  05:17:00     -433.246      -44.184      -17.292      205.875      159.472       86.185    42384.676    25431.393     7427.786       13.258        3.762      435.493       82.097        0.036      336.823        8.379      849.450
11/16/2013  05:18:00     -224.245      -72.215        9.663      138.499      120.025       72.439    19181.846    14405.931     5247.424        4.721        1.942      235.586       80.763        0.118      336.801        8.345      849.444
11/16/2013  05:19:00     -346.310      -63.245       -7.497      259.181      154.535       91.517    67174.926    23880.943     8375.423       11.169        4.972      352.037       98.459        0.078      336.880        8.474      849.372
11/16/2013  05:20:00     -556.655      -78.095      -37.263      217.792      226.291       97.143    47433.478    51207.588     9436.846       21.269        5.404      562.106      103.640        0.034      336.934        8.566      849.377
11/16/2013  05:21:00     -386.933     -245.911        6.565      262.383      273.683      118.271    68845.091    74902.607    13988.108       18.395        7.887      458.464      129.334        0.080      336.947        8.587      849.330
11/16/2013  05:22:00     -508.457     -128.735      -10.414      238.446      186.030      101.071    56856.636    34607.205    10215.246       18.842        5.084      524.501      112.964        0.046      336.899        8.507      849.310
11/16/2013  05:23:00     -379.657      -80.267       -9.072      247.202      145.521       90.535    61108.662    21176.368     8196.647       12.056        4.524      388.049      107.678        0.077      336.857        8.437      849.282
11/16/2013  05:24:00     -222.529      -48.531        3.096      209.267      144.669       85.712    43792.745    20929.152     7346.619        6.196        3.603      227.759       82.979        0.133      336.840        8.407      849.250
11/16/2013  05:25:00     -549.338     -155.330      -15.503      228.253      175.890       96.593    52099.539    30937.429     9330.171       20.923        4.618      570.876      112.414        0.039      336.850        8.425      849.253
11/16/2013  05:26:00     -417.890     -117.604       -7.835      232.754      205.574       81.145    54174.383    42260.757     6584.550       14.575        5.151      434.123       99.535        0.053      336.860        8.442      849.256
11/16/2013  05:27:00     -353.503      -38.043       -7.308      238.463      186.223       96.278    56864.384    34678.906     9269.526       11.362        5.041      355.544      106.043        0.089      336.861        8.443      849.296
11/16/2013  05:28:00     -281.385      -43.094      -13.066      186.630      150.929       79.565    34830.658    22779.633     6330.557        7.256        3.197      284.666       80.810        0.081      336.861        8.444      849.357
11/16/2013  05:29:00     -293.696       -3.968       -8.754      129.063      108.701       76.141    16657.160    11815.863     5797.432        6.030        1.714      293.723       63.075        0.046      336.819        8.373      849.388
11/16/2013  05:30:00     -460.289      -68.884      -16.419      249.584      177.487       93.364    62292.177    31501.710     8716.908       15.968        5.126      465.415      109.261        0.055      336.858        8.438      849.394
11/16/2013  05:31:00     -548.075      -67.935      -19.622      207.929      218.636      107.232    43234.484    47801.857    11498.741       20.394        5.127      552.270      100.328        0.033      336.833        8.397      849.405
11/16/2013  05:32:00     -556.256     -156.750      -25.554      334.547      154.491       95.987   111921.400    23867.569     9213.571       23.979        7.250      577.920      131.619        0.052      336.877        8.470      849.370
11/16/2013  05:33:00     -283.027     -129.469       -4.699      218.272      164.627      116.494    47642.744    27102.102    13570.747        9.258        4.416      311.233      101.452        0.106      336.861        8.443      849.342
11/16/2013  05:34:00     -273.095      -81.768        9.572      227.900      138.992       96.276    51938.212    19318.719     9269.139        8.093        4.026      285.074      115.862        0.165      336.830        8.393      849.314
11/16/2013  05:35:00     -363.284     -129.745      -26.555      230.826      178.600       80.846    53280.676    31897.912     6536.059       12.060        4.586      385.758       94.013        0.059      336.808        8.354      849.293
11/16/2013  05:36:00     -523.241      -72.582      -31.541      272.759      174.665      100.032    74397.418    30507.933    10006.490       19.746        5.746      528.251      124.879        0.056      336.820        8.375      849.265
11/16/2013  05:37:00     -444.419      -90.434      -19.171      230.975      177.146       95.569    53349.473    31380.701     9133.362       14.994        4.693      453.527       91.936        0.041      336.803        8.347      849.222
11/16/2013  05:38:00     -358.108       -1.581       -0.249      299.034      210.217      102.934    89421.254    44191.327    10595.408       13.620        7.210      358.112      131.942        0.136      336.829        8.390      849.218
11/16/2013  05:39:00     -604.130     -108.472      -49.020      212.691      167.587       90.443    45237.585    28085.480     8180.020       23.031        4.075      613.791       85.347        0.019      336.822        8.378      849.273
11/16/2013  05:40:00     -577.466     -108.317      -24.992      259.142      172.731       98.023    67154.343    29836.089     9608.495       22.619        5.330      587.537      116.882        0.040      336.828        8.387      849.268
11/16/2013  05:41:00     -457.261     -110.605       -8.700      235.933      160.810       77.759    55664.501    25860.009     6046.499       15.447        4.379      470.448       86.246        0.034      336.828        8.388      849.334
11/16/2013  05:42:00     -459.605     -104.672      -11.305      175.180      162.603       76.395    30688.100    26439.873     5836.226       14.263        3.148      471.374       78.356        0.028      336.834        8.398      849.367
11/16/2013  05:43:00     -606.423        1.201      -36.276      234.166      193.810       95.661    54833.746    37562.220     9150.973       23.529        5.077      606.425      103.979        0.029      336.854        8.432      849.381
11/16/2013  05:44:00     -576.143     -236.031      -39.438      293.767      206.227      108.917    86299.130    42529.522    11862.875       26.492        7.035      622.617      116.183        0.035      336.898        8.504      849.335
11/16/2013  05:45:00     -616.481     -211.527      -39.706      239.278      178.795      112.754    57253.947    31967.633    12713.450       26.413        5.097      651.761      125.946        0.037      336.904        8.515      849.386
11/16/2013  05:46:00     -529.057      -45.994      -22.687      226.101      162.927       95.634    51121.488    26545.368     9145.902       18.465        4.341      531.052      106.352        0.040      336.840        8.410      849.459
11/16/2013  05:47:00     -329.031      -73.270        7.912      266.094      165.387       84.989    70806.011    27352.939     7223.156       10.952        5.269      337.090       98.210        0.085      336.821        8.379      849.479
11/16/2013  05:48:00     -503.554      -32.271      -24.992      243.406      217.598       96.473    59246.530    47348.882     9307.078       18.554        5.795      504.587      113.866        0.051      336.865        8.449      849.506
11/16/2013  05:49:00     -563.912     -110.701      -16.782      337.253      196.070      128.396   113739.522    38443.501    16485.532       24.957        8.433      574.675      162.567        0.080      336.948        8.589      849.503
11/16/2013  05:50:00     -476.648      -80.695      -27.959      173.391      152.777       83.119    30064.400    23340.870     6908.729       14.739        3.016      483.430       92.925        0.037      336.913        8.530      849.556
11/16/2013  05:51:00     -402.575      -84.693       -6.713      198.101      154.945       83.426    39243.893    24007.910     6959.964       11.973        3.511      411.387       85.566        0.043      336.889        8.490      849.635
11/16/2013  05:52:00     -388.030      -50.143       -3.483      280.545      148.806       91.855    78705.227    22143.283     8437.268       13.117        5.464      391.257      120.465        0.095      336.860        8.442      849.616
11/16/2013  05:53:00     -486.427       10.470       -9.237      286.488      204.572      108.016    82075.366    41849.528    11667.552       18.617        6.780      486.539      130.173        0.072      336.895        8.501      849.624
11/16/2013  05:54:00     -515.222      -51.081      -37.173      185.182      143.928       88.747    34292.223    20715.373     7876.037       16.615        3.144      517.748       98.106        0.036      336.872        8.463      849.619
11/16/2013  05:55:00     -468.793      -84.987      -23.373      180.977      128.269       89.006    32752.723    16452.898     7922.064       14.232        2.856      476.435       92.592        0.038      336.847        8.420      849.640
11/16/2013  05:56:00     -356.695      -83.784       -4.870      145.408      129.492       80.045    21143.501    16768.178     6407.209        8.929        2.216      366.403       76.613        0.044      336.815        8.366      849.632
11/16/2013  05:57:00     -454.533      -88.171      -17.816      224.319      174.856       87.334    50318.844    30574.555     7627.294       15.159        4.426      463.006       89.967        0.038      336.866        8.452      849.640
11/16/2013  05:58:00     -416.404      -33.879      -44.509      138.711      139.559       88.055    19240.823    19476.703     7753.645       11.149        2.324      417.780       63.360        0.023      336.878        8.470      849.617
11/16/2013  05:59:00     -427.505     -117.969      -31.113      186.579      142.738       76.136    34811.544    20374.233     5796.621       12.930        3.049      443.483       82.853        0.035      336.863        8.447      849.613
11/16/2013  06:00:00     -357.128      -77.456       -1.479      168.082      116.557       73.255    28251.521    13585.472     5366.276        9.036        2.360      365.431       81.451        0.050      336.879        8.474      849.672
11/16/2013  06:01:00     -383.515      -63.689       -2.450      182.688      144.844       75.493    33374.900    20979.645     5699.238       10.559        3.003      388.767       83.267        0.046      336.882        8.479      849.686
11/16/2013  06:02:00     -510.638      -50.252      -31.016      205.745      176.922       88.072    42331.005    31301.526     7756.666       17.280        4.069      513.105       82.545        0.026      336.990        8.658      849.719
11/16/2013  06:03:00     -350.677     -119.241      -12.416      179.278      151.368       78.200    32140.593    22912.249     6115.295        9.925        3.058      370.395       85.144        0.053      336.980        8.642      849.780
11/16/2013  06:04:00     -416.733      -41.855      -33.210      287.941      201.160       93.432    82910.177    40465.464     8729.500       15.429        6.605      418.830      118.788        0.080      336.911        8.525      849.833
11/16/2013  06:05:00     -471.093     -126.676      -19.036      174.734      186.878       84.776    30532.104    34923.300     7186.982       15.548        3.632      487.828       68.623        0.020      336.955        8.599      849.801
11/16/2013  06:06:00     -506.058     -205.369       -5.845      199.408      145.565       77.414    39763.738    21189.145     5992.997       18.261        3.347      546.142       77.367        0.020      336.943        8.579      849.835
11/16/2013  06:07:00     -438.153      -40.200       -7.668      223.399      179.603       96.661    49907.140    32257.114     9343.444       14.256        4.575      439.993      115.026        0.068      336.925        8.552      849.824
11/16/2013  06:08:00     -538.320     -130.698      -31.602      266.934      192.862      107.326    71253.573    37195.658    11518.928       21.389        5.998      553.958      134.293        0.059      336.974        8.631      849.801
11/16/2013  06:09:00     -353.580      -79.351       14.244      184.146      158.566       84.305    33909.713    25143.310     7107.252        9.883        3.308      362.375       90.885        0.063      336.959        8.607      849.878
11/16/2013  06:10:00     -269.794      -53.586      -11.437      164.457      157.825       89.950    27046.130    24908.718     8091.084        6.791        3.002      275.064       99.738        0.131      336.959        8.606      849.901
11/16/2013  06:11:00     -362.361      -27.535      -36.046      179.894      129.568       76.791    32361.820    16787.744     5896.856        9.419        2.752      363.406       77.462        0.045      336.985        8.651      849.942
11/16/2013  06:12:00     -522.434     -119.159      -18.913      233.779      185.013      118.706    54652.744    34229.890    14091.159       19.521        5.149      535.851      125.440        0.055      337.010        8.691      849.949
11/16/2013  06:13:00     -311.382      -42.894       -8.265      176.177      173.570       78.377    31038.492    30126.580     6142.876        8.307        3.365      314.322       84.559        0.072      336.978        8.639      849.985
11/16/2013  06:14:00     -434.946     -146.402      -26.513      196.551      171.421       87.176    38632.350    29385.078     7599.693       14.345        3.781      458.925       92.280        0.040      337.004        8.682      849.976
11/16/2013  06:15:00     -427.234      -71.759      -21.591      219.273      118.310       86.107    48080.784    13997.348     7414.379       12.880        3.475      433.219       92.297        0.045      336.945        8.584      850.027
11/16/2013  06:16:00     -422.955      -48.827      -12.779      221.722      155.780       93.705    49160.786    24267.419     8780.716       13.181        4.110      425.764      106.428        0.062      336.928        8.554      850.054
11/16/2013  06:17:00     -500.924       -1.678      -32.320      221.014      163.183       82.597    48847.228    26628.775     6822.303       16.712        4.115      500.927       88.010        0.031      336.909        8.524      850.051
11/16/2013  06:18:00     -626.242     -210.381      -29.342      265.490      196.698      101.424    70484.734    38689.907    10286.883       27.836        5.973      660.635      111.161        0.028      336.953        8.598      850.062
11/16/2013  06:19:00     -767.610     -200.661      -16.031      322.467      248.890      132.839   103984.928    61946.368    17646.101       40.663        9.179      793.404      123.432        0.024      337.006        8.684      849.964
11/16/2013  06:20:00     -518.640     -160.662      -16.333      244.432      175.141       95.822    59746.963    30674.463     9181.831       19.732        4.980      542.954      106.050        0.038      336.961        8.608      850.057
11/16/2013  06:21:00     -446.818        6.323      -17.273      189.011      145.799       80.663    35725.228    21257.462     6506.457       13.172        3.174      446.862       91.925        0.042      336.934        8.565      850.054
11/16/2013  06:22:00     -545.256        4.344      -32.530      196.346      203.414       95.619    38551.633    41377.439     9142.937       19.371        4.454      545.273       89.119        0.027      336.911        8.526      850.043
11/16/2013  06:23:00     -427.427     -145.483      -10.163      240.713      183.969       99.003    57942.542    33844.536     9801.585       15.276        5.079      451.508      107.991        0.057      336.894        8.498      850.014
11/16/2013  06:24:00     -556.633     -139.271      -12.008      241.764      169.945       94.592    58450.002    28881.471     8947.553       21.281        4.814      573.791      103.125        0.032      336.924        8.546      850.033
11/16/2013  06:25:00     -469.271     -121.277      -10.188      218.410      136.593       92.973    47702.968    18657.658     8644.016       15.500        3.750      484.689      100.992        0.043      336.918        8.539      850.068
11/16/2013  06:26:00     -544.340     -126.105      -44.540      204.292      226.458       92.632    41735.283    51283.451     8580.756       20.787        5.080      558.756       88.952        0.025      336.906        8.518      850.078
11/16/2013  06:27:00     -494.003      -93.653      -37.527      229.421      177.679      101.463    52634.030    31569.695    10294.650       17.434        4.725      502.802       89.663        0.032      336.908        8.522      850.128
11/16/2013  06:28:00     -480.476      -89.657      -40.078      258.965      153.946       89.315    67062.671    23699.345     7977.109       16.960        4.937      488.769      113.932        0.054      336.888        8.490      850.179
11/16/2013  06:29:00     -395.755      -20.181      -27.971      165.867      165.854       65.465    27511.906    27507.636     4285.613       10.855        2.965      396.270       63.226        0.025      336.871        8.461      850.232
11/16/2013  06:30:00     -389.930      -11.614      -19.049      174.261      159.240       74.457    30366.739    25357.446     5543.846       10.689        3.063      390.103       76.207        0.038      336.850        8.424      850.234
11/16/2013  06:31:00     -414.095      -85.606      -35.255      174.217      144.579       79.080    30351.457    20903.168     6253.688       11.877        2.875      422.851       91.103        0.046      336.841        8.410      850.244
11/16/2013  06:32:00     -499.413      -54.504      -31.619      186.514      162.867       74.219    34787.511    26525.504     5508.523       16.009        3.341      502.378       69.701        0.019      336.851        8.426      850.234
11/16/2013  06:33:00     -443.506     -113.557       -7.140      220.969      180.177       97.276    48827.240    32463.573     9462.591       15.018        4.538      457.813       99.867        0.048      336.844        8.414      850.168
11/16/2013  06:34:00     -408.698      -37.149        1.557      229.938      154.033       92.594    52871.593    23726.210     8573.610       12.678        4.259      410.383      105.445        0.066      336.828        8.390      850.110
11/16/2013  06:35:00     -604.356     -165.186      -11.651      230.908      155.119      103.467    53318.279    24061.922    10705.334       24.036        4.404      626.524       93.274        0.022      336.860        8.442      850.066
11/16/2013  06:36:00     -363.120      -16.363        9.851      205.954      141.210       86.243    42416.947    19940.232     7437.935       10.099        3.490      363.488       98.592        0.074      336.827        8.388      850.118
11/16/2013  06:37:00     -306.979      -98.035      -11.283      164.068      125.972       73.288    26918.281    15868.975     5371.076        7.606        2.408      322.253       81.974        0.065      336.843        8.414      850.109
11/16/2013  06:38:00     -374.195     -115.791      -19.616      176.420      131.616       77.214    31124.122    17322.692     5962.047       10.410        2.720      391.701       80.667        0.042      336.847        8.420      850.125
11/16/2013  06:39:00     -473.984      -58.185       -9.525      213.386      144.995       86.745    45533.790    21023.669     7524.635       15.109        3.704      477.542      107.054        0.050      336.846        8.419      850.139
11/16/2013  06:40:00     -496.606     -125.088       -9.262      192.452      189.502       86.006    37037.591    35910.860     7396.947       17.133        4.017      512.118       91.782        0.032      336.854        8.432      850.157
11/16/2013  06:41:00     -447.167     -105.917       -4.553      246.494      191.459      102.724    60759.142    36656.649    10552.268       15.956        5.398      459.540      102.308        0.050      336.879        8.473      850.155
11/16/2013  06:42:00     -513.550     -250.761      -39.230      217.215      179.736       90.292    47182.252    32305.038     8152.618       20.788        4.382      571.502       93.997        0.027      336.890        8.492      850.172
11/16/2013  06:43:00     -470.418      -55.953      -20.939      220.595      150.083       79.053    48662.032    22524.952     6249.415       15.113        3.872      473.734      100.215        0.045      336.857        8.437      850.222
11/16/2013  06:44:00     -415.488      -33.204      -13.783      156.287      156.951       83.026    24425.692    24633.522     6893.322       11.493        2.798      416.813       85.633        0.042      336.836        8.403      850.237
11/16/2013  06:45:00     -451.586     -180.032      -16.936      252.085      197.495       92.351    63546.942    39004.301     8528.793       17.383        5.554      486.150      100.009        0.042      336.829        8.390      850.225
11/16/2013  06:46:00     -487.674     -128.622      -28.913      188.973      154.865       84.133    35710.894    23983.046     7078.416       16.098        3.339      504.350       96.078        0.036      336.793        8.330      850.225
11/16/2013  06:47:00     -477.098      -19.793      -14.877      189.991      161.056      100.253    36096.398    25938.921    10050.601       15.015        3.604      477.509      101.093        0.045      336.779        8.306      850.236
11/16/2013  06:48:00     -412.331       72.341      -21.195      216.744      130.894       98.043    46977.901    17133.113     9612.364       12.470        3.686      418.628      117.930        0.079      336.776        8.302      850.256
11/16/2013  06:49:00     -406.503      -42.204      -23.272      201.961      146.858       79.601    40788.404    21567.375     6336.333       11.812        3.435      408.688       86.847        0.045      336.817        8.370      850.248
11/16/2013  06:50:00     -382.988       -9.198       -9.645      220.885      152.797       89.049    48790.381    23346.852     7929.758       11.345        4.003      383.098       98.172        0.066      336.794        8.334      850.248
11/16/2013  06:51:00     -514.264     -187.356      -17.776      247.968      181.082      104.113    61487.919    32790.738    10839.550       20.248        5.256      547.329      116.162        0.045      336.840        8.407      850.223
11/16/2013  06:52:00     -321.059      -65.431        0.129      191.605      147.880       74.364    36712.533    21868.418     5530.036        8.572        3.206      327.659       81.520        0.062      336.818        8.372      850.259
11/16/2013  06:53:00     -372.256       32.380      -25.062      175.164      140.600       78.835    30682.328    19768.220     6214.884        9.845        2.833      373.662       77.699        0.043      336.811        8.361      850.321
11/16/2013  06:54:00     -482.712     -162.762       -8.295      265.042      218.908      103.933    70247.411    47920.851    10802.051       19.425        6.449      509.414      104.810        0.042      336.831        8.394      850.342
11/16/2013  06:55:00     -595.515     -116.179      -26.334      206.305      176.073       97.703    42561.784    31001.859     9545.780       22.595        4.155      606.742       83.444        0.019      336.864        8.448      850.410
11/16/2013  06:56:00     -377.016      -71.945      -31.676      163.071      123.058       73.983    26592.226    15143.228     5473.429        9.776        2.360      383.819       72.479        0.036      336.854        8.432      850.422
11/16/2013  06:57:00     -530.959      -70.065      -39.160      189.938      176.735       86.847    36076.315    31235.359     7542.442       18.159        3.743      535.562       96.503        0.032      336.818        8.371      850.453
11/16/2013  06:58:00     -592.457      -16.901      -38.837      189.266      196.937       76.515    35821.713    38784.073     5854.492       21.661        4.023      592.698       75.793        0.016      336.823        8.380      850.440
11/16/2013  06:59:00     -384.191     -144.945       -4.331      297.738      198.500       94.655    88647.733    39402.240     8959.523       15.279        6.850      410.624      122.510        0.089      336.843        8.413      850.427
11/16/2013  07:00:00     -395.144      -74.092      -28.730      166.533      138.095       69.240    27733.162    19070.140     4794.126       10.702        2.580      402.031       69.552        0.030      336.823        8.380      850.463
11/16/2013  07:01:00     -406.818      -50.189      -16.733      174.136      182.068       88.612    30323.517    33148.850     7852.067       11.980        3.566      409.902       91.214        0.050      336.833        8.398      850.392
11/16/2013  07:02:00     -314.084     -112.521        1.106      223.972      178.693       83.952    50163.665    31931.201     7047.922       10.021        4.457      333.631       90.444        0.073      336.810        8.360      850.382
11/16/2013  07:03:00     -363.100      -34.151      -12.612      211.100      129.301       79.987    44563.156    16718.647     6397.858       10.041        3.384      364.703       89.891        0.061      336.798        8.339      850.370
11/16/2013  07:04:00     -553.244      -21.668      -50.648      207.903      158.533       79.734    43223.564    25132.767     6357.544       19.190        3.736      553.668       73.754        0.018      336.840        8.408      850.349
11/16/2013  07:05:00     -357.596     -107.305       -2.657      220.555      184.072       96.073    48644.448    33882.593     9230.053       11.556        4.588      373.349      117.815        0.100      336.819        8.373      850.319
11/16/2013  07:06:00     -618.291     -121.845      -45.553      237.483      173.033       87.218    56398.062    29940.337     7607.020       24.656        4.697      630.182      100.730        0.026      336.846        8.419      850.344
11/16/2013  07:07:00     -569.216      -95.682      -16.362      291.909      202.068      108.006    85210.737    40831.299    11665.376       23.554        6.885      577.202      123.039        0.045      336.848        8.422      850.364
11/16/2013  07:08:00     -488.752      -74.471      -12.993      249.264      162.135       95.963    62132.787    26287.874     9208.953       17.109        4.881      494.393      123.073        0.062      336.835        8.400      850.373
11/16/2013  07:09:00     -428.869     -193.156      -17.351      153.980      159.108       83.219    23709.981    25315.291     6925.347       13.873        2.798      470.359       76.038        0.026      336.826        8.385      850.432
11/16/2013  07:10:00     -399.565      -61.488      -23.707      128.564      101.569       72.374    16528.660    10316.262     5238.015        9.803        1.604      404.268       70.655        0.031      336.789        8.323      850.445
11/16/2013  07:11:00     -437.274     -131.411      -28.104      227.156      166.746       96.249    51600.070    27804.137     9263.924       14.895        4.433      456.594      101.505        0.049      336.793        8.330      850.408
11/16/2013  07:12:00     -283.284     -114.372       -8.898      109.568       94.211       60.976    12005.081     8875.776     3718.131        5.900        1.230      305.501       67.136        0.048      336.771        8.293      850.395
11/16/2013  07:13:00     -395.859      -63.105       -2.158      285.669      155.237       93.442    81606.889    24098.658     8731.459       13.754        5.722      400.857      105.024        0.069      336.793        8.332      850.360
11/16/2013  07:14:00     -229.384      -64.150       22.472      228.285      132.274       92.004    52114.065    17496.467     8464.795        6.764        3.904      238.186      111.269        0.218      336.779        8.308      850.357
11/16/2013  07:15:00     -288.486     -103.222       11.360      178.197      151.282       79.862    31754.298    22886.139     6377.965        7.750        3.051      306.397       87.765        0.082      336.797        8.337      850.357
11/16/2013  07:16:00     -304.803      -32.935      -10.925      213.257      112.160       76.523    45478.600    12579.821     5855.748        7.900        3.196      306.577       92.427        0.091      336.762        8.279      850.368
11/16/2013  07:17:00     -470.982      -75.233      -33.213      191.247      171.562       87.630    36575.552    29433.591     7679.009       15.112        3.684      476.953       93.551        0.038      336.776        8.303      850.368
11/16/2013  07:18:00     -458.441     -140.600      -34.596      220.469      158.604       98.335    48606.664    25155.383     9669.863       15.727        4.172      479.517      106.064        0.049      336.790        8.325      850.350
11/16/2013  07:19:00     -199.443      -60.748       -2.888      218.003      125.485       73.637    47525.482    15746.487     5422.453        5.607        3.435      208.489       83.367        0.160      336.768        8.290      850.308
11/16/2013  07:20:00     -274.287     -147.387        6.415      222.673      142.806       88.997    49583.363    20393.421     7920.377        8.743        3.895      311.378      109.031        0.123      336.785        8.315      850.286
11/16/2013  07:21:00     -272.942     -256.176      -11.079      217.473      174.763      104.903    47294.387    30542.169    11004.635       11.453        4.442      374.331      120.523        0.104      336.809        8.358      850.257
11/16/2013  07:22:00     -261.071     -165.440        4.173      246.872      181.017       95.187    60945.890    32767.208     9060.498        9.914        5.139      309.077       95.481        0.095      336.814        8.365      850.196
11/16/2013  07:23:00     -596.005     -249.624      -21.952      283.462      181.036      115.938    80350.521    32774.030    13441.665       27.227        6.328      646.169      130.699        0.041      336.846        8.418      850.160
11/16/2013  07:24:00     -388.444     -297.917      -29.441      248.233      228.698      128.433    61619.434    52302.754    16494.918       18.544        6.521      489.533      134.904        0.076      336.846        8.418      850.149
11/16/2013  07:25:00     -434.314      -75.713      -35.620      257.539      174.778      101.838    66326.404    30547.348    10370.891       15.142        5.362      440.864      114.612        0.068      336.862        8.446      850.195
11/16/2013  07:26:00     -588.847     -147.566      -28.944      266.268      247.519      123.998    70898.725    61265.817    15375.411       25.842        7.377      607.056      106.334        0.031      336.893        8.496      850.230
11/16/2013  07:27:00     -365.540      -71.900       10.022      253.163      177.573       92.193    64091.371    31532.149     8499.590       12.149        5.206      372.544      107.148        0.083      336.904        8.516      850.250
11/16/2013  07:28:00     -356.767      -71.174        3.042      213.581      198.295       91.510    45616.845    39320.805     8374.085       11.282        4.666      363.797       94.286        0.067      336.927        8.554      850.296
11/16/2013  07:29:00     -340.865      -20.946       -8.795      193.498      142.700       84.796    37441.401    20363.383     7190.399        9.084        3.250      341.508       86.952        0.065      336.948        8.589      850.362
11/16/2013  07:30:00     -430.502     -142.571      -14.435      232.632      152.055       92.883    54117.708    23120.648     8627.247       14.585        4.293      453.496      107.218        0.056      336.935        8.567      850.380
11/16/2013  07:31:00     -579.265     -120.112      -43.189      272.655      218.510       97.489    74340.752    47746.608     9504.039       24.169        6.580      591.587      118.942        0.040      336.962        8.611      850.375
11/16/2013  07:32:00     -457.492      -70.211      -19.367      319.951      161.885      104.893   102368.685    26206.760    11002.560       17.706        6.979      462.849      138.256        0.089      336.957        8.605      850.386
11/16/2013  07:33:00     -417.106      -65.660       -1.638      239.594      195.663       88.763    57405.342    38284.080     7878.945       14.091        5.178      422.243      104.775        0.062      336.978        8.639      850.400
11/16/2013  07:34:00     -502.827      -43.304      -10.302      279.297      171.274       92.435    78006.766    29334.836     8544.312       18.533        5.794      504.688      123.048        0.059      336.982        8.645      850.415
11/16/2013  07:35:00     -312.913      -86.982       31.511      245.573      204.031       99.720    60306.142    41628.636     9944.120       10.915        5.594      324.778      116.341        0.128      337.001        8.678      850.430
11/16/2013  07:36:00     -553.928     -173.803       -9.424      293.451      269.460      120.376    86113.563    72608.887    14490.284       25.514        8.661      580.555      125.922        0.047      337.028        8.722      850.387
11/16/2013  07:37:00     -373.810      -41.056      -16.402      167.378      155.025       79.198    28015.228    24032.798     6272.277        9.999        2.916      376.057       78.626        0.044      337.042        8.744      850.390
11/16/2013  07:38:00     -518.815     -121.572      -15.810      269.598      220.641      103.295    72682.831    48682.649    10669.831       20.809        6.602      532.868      121.632        0.052      337.066        8.785      850.350
11/16/2013  07:39:00     -579.487     -278.111      -23.402      319.914      269.567      115.073   102345.011    72666.497    13241.692       30.094        9.413      642.768      147.250        0.052      337.095        8.835      850.304
11/16/2013  07:40:00     -527.838     -107.053      -11.037      258.660      149.360      104.184    66905.160    22308.457    10854.398       19.511        5.003      538.584      118.290        0.048      337.105        8.851      850.333
11/16/2013  07:41:00     -764.691     -194.279      -15.566      257.303      229.427      116.660    66204.745    52636.867    13609.624       37.757        6.623      788.985      122.794        0.024      337.108        8.856      850.262
11/16/2013  07:42:00     -726.326     -156.027      -50.614      239.519      217.410      101.266    57369.148    47267.106    10254.843       33.465        5.745      742.895       98.850        0.018      337.097        8.835      850.269
11/16/2013  07:43:00     -378.000     -113.349       -3.644      257.486      294.070      124.948    66299.153    86477.398    15611.976       16.203        8.419      394.629      117.110        0.088      337.118        8.872      850.279
11/16/2013  07:44:00     -337.611     -113.844        2.690      221.812      167.792      102.007    49200.704    28154.270    10405.465       10.734        4.388      356.289      109.911        0.095      337.133        8.899      850.285
11/16/2013  07:45:00     -483.374      -52.599      -28.343      257.576      180.464      101.740    66345.191    32567.284    10351.081       17.322        5.463      486.228      112.891        0.054      337.124        8.884      850.269
11/16/2013  07:46:00     -504.584      -47.869       -4.158      218.561      171.321       91.896    47769.093    29350.850     8444.948       17.122        4.278      506.849       90.201        0.032      337.110        8.859      850.247
11/16/2013  07:47:00     -386.832     -114.592       -3.064      306.469      171.126      100.786    93923.417    29284.203    10157.734       14.805        6.668      403.448      121.554        0.091      337.143        8.914      850.210
11/16/2013  07:48:00     -373.022     -117.816       -9.360      243.847      199.734      100.875    59461.158    39893.636    10175.722       13.130        5.477      391.186      101.602        0.067      337.138        8.907      850.252
11/16/2013  07:49:00     -517.810      -66.353      -19.977      272.849      190.472      115.989    74446.788    36279.669    13453.446       19.853        6.209      522.044      131.405        0.063      337.158        8.942      850.267
11/16/2013  07:50:00     -370.043     -133.076       -4.500      288.699      253.757      121.540    83347.304    64392.482    14771.919       15.855        8.126      393.244      130.325        0.110      337.173        8.966      850.207
11/16/2013  07:51:00     -303.845      -13.289       28.326      282.201      170.449      114.249    79637.211    29052.721    13052.876       10.750        6.087      304.135      137.633        0.205      337.200        9.012      850.214
11/16/2013  07:52:00     -302.888     -151.566       17.756      283.030      184.017      108.345    80106.162    33862.085    11738.731       12.034        6.285      338.694      130.827        0.149      337.183        8.984      850.186
11/16/2013  07:53:00     -357.237     -229.279       -2.309      252.857      208.752      117.091    63936.709    43577.204    13710.245       15.068        6.061      424.485      126.855        0.089      337.158        8.941      850.175
11/16/2013  07:54:00     -642.621     -388.010      -27.768      384.822      270.697      154.913   148087.683    73276.830    23998.159       40.477       12.268      750.676      188.694        0.063      337.125        8.886      850.145
11/16/2013  07:55:00     -606.878     -201.091      -32.730      330.454      206.316      131.242   109200.106    42566.158    17224.503       28.937        8.450      639.326      151.811        0.056      337.154        8.933      850.192
11/16/2013  07:56:00     -454.761      -26.193       -2.659      334.230      223.900      122.578   111710.009    50130.991    15025.279       19.215        8.843      455.514      141.716        0.097      337.199        9.010      850.222
11/16/2013  07:57:00     -393.163     -142.178       18.540      299.619      289.898      141.107    89771.433    84041.062    19911.166       18.439        9.686      418.081      164.157        0.154      337.188        8.991      850.220
11/16/2013  07:58:00     -336.309     -143.089        4.177      346.474      229.730      125.199   120044.240    52775.783    15674.775       16.101        9.425      365.483      150.121        0.169      337.227        9.055      850.238
11/16/2013  07:59:00     -530.269     -167.154        0.508      328.630      260.984      129.908   107997.810    68112.421    16876.136       25.102        9.649      555.991      143.133        0.066      337.210        9.028      850.287
11/16/2013  08:00:00     -655.721     -180.361       -9.935      293.278      219.133      132.522    86011.719    48019.288    17562.015       30.707        7.580      680.074      134.012        0.039      337.213        9.034      850.284
11/16/2013  08:01:00     -554.020     -193.009      -20.397      327.407      269.611      131.286   107195.069    72690.120    17236.063       27.082        9.856      586.678      165.241        0.079      337.202        9.015      850.306
11/16/2013  08:02:00     -496.305     -210.788      -10.245      341.001      228.120      146.614   116281.538    52038.857    21495.801       24.030        9.491      539.212      166.437        0.095      337.167        8.955      850.272
11/16/2013  08:03:00     -350.172     -234.122       -9.118      341.994      243.911      134.123   116960.102    59492.685    17989.056       18.594        9.722      421.228      149.901        0.127      337.147        8.922      850.236
11/16/2013  08:04:00     -497.971     -208.385      -10.722      261.253      221.915      112.435    68253.206    49246.207    12641.687       21.080        6.507      539.814      123.604        0.052      337.117        8.871      850.303
11/16/2013  08:05:00     -453.718     -334.079      -18.418      316.295      231.870      130.117   100042.368    53763.480    16930.452       24.424        8.537      563.444      145.588        0.067      337.115        8.868      850.326
11/16/2013  08:06:00     -508.065     -249.386      -34.834      259.104      269.490      132.832    67135.025    72625.027    17644.311       23.944        7.870      565.971      123.773        0.048      337.105        8.852      850.275
11/16/2013  08:07:00     -355.877     -103.380       -2.038      235.948      217.698      105.454    55671.645    47392.319    11120.597       12.574        5.709      370.589      123.056        0.110      337.134        8.901      850.339
11/16/2013  08:08:00     -497.612     -329.578      -22.935      293.976      215.463      120.205    86421.603    46424.464    14449.229       25.200        7.365      596.858      156.184        0.068      337.121        8.879      850.323
11/16/2013  08:09:00     -526.708     -215.829      -29.695      214.081      215.070      100.515    45830.605    46255.287    10103.356       21.352        5.109      569.213       98.546        0.030      337.101        8.844      850.357
11/16/2013  08:10:00     -567.100     -113.852      -44.951      284.059      193.478       99.029    80689.480    37433.858     9806.788       23.223        6.397      578.416      116.983        0.041      337.124        8.883      850.379
11/16/2013  08:11:00     -649.423     -293.081      -31.221      256.031      224.355      106.414    65551.786    50335.235    11323.836       31.789        6.361      712.493      115.430        0.026      337.151        8.929      850.351
11/16/2013  08:12:00     -560.864     -321.869       -9.005      344.715      228.201      137.340   118828.190    52075.562    18862.200       30.397        9.488      646.659      189.241        0.086      337.161        8.945      850.328
11/16/2013  08:13:00     -257.255     -125.955       -7.892      196.010      151.406       96.507    38419.906    22923.678     9313.576        7.637        3.533      286.434      100.732        0.124      337.145        8.918      850.350
11/16/2013  08:14:00     -600.005        3.298      -14.590      311.405      182.659      130.889    96973.190    33364.450    17131.894       25.382        7.373      600.014      139.580        0.054      337.060        8.774      850.362
11/16/2013  08:15:00     -633.328      -88.759      -55.417      259.594      149.557       97.520    67389.013    22367.249     9510.205       25.564        4.963      639.518      113.035        0.031      337.051        8.760      850.360
11/16/2013  08:16:00     -522.664     -210.456      -23.699      269.284      242.026      121.012    72513.915    58576.422    14644.012       23.185        7.287      563.445      134.997        0.057      337.070        8.793      850.353
11/16/2013  08:17:00     -261.827     -173.417        2.881      262.846      189.083      114.883    69088.161    35752.459    13198.013       10.831        5.902      314.049      140.237        0.199      337.075        8.802      850.368
11/16/2013  08:18:00     -478.406      -55.673      -31.126      250.419      161.991      101.866    62709.742    26240.952    10376.624       16.611        4.966      481.634      115.384        0.057      337.073        8.798      850.376
11/16/2013  08:19:00     -235.620     -142.184       18.457      263.137      163.742      105.326    69240.902    26811.375    11093.541        9.159        5.357      275.197      120.878        0.193      337.083        8.813      850.352
11/16/2013  08:20:00     -366.635     -139.626       -5.272      299.638      211.984      121.906    89782.852    44937.369    14860.971       15.173        7.479      392.322      126.183        0.103      337.084        8.816      850.322
11/16/2013  08:21:00     -331.284      -91.098       -0.353      244.153      181.437       96.929    59610.609    32919.389     9395.307       10.997        5.096      343.581      122.308        0.127      337.114        8.867      850.306
11/16/2013  08:22:00     -619.324      -76.170      -21.332      316.365      190.662      113.183   100086.976    36351.849    12810.393       26.950        7.462      623.990      134.425        0.046      337.141        8.912      850.310
11/16/2013  08:23:00     -505.842     -186.748      -36.009      258.801      143.375      103.502    66978.172    20556.456    10712.566       19.513        4.912      539.213      116.940        0.047      337.213        9.034      850.324
11/16/2013  08:24:00     -519.947      -46.009      -13.980      321.644      192.451      120.966   103454.618    37037.469    14632.813       21.386        7.756      521.979      129.469        0.062      337.232        9.066      850.316
11/16/2013  08:25:00     -484.706     -151.908       -9.078      291.480      218.827      113.737    84960.507    47885.169    12936.211       20.191        7.289      507.952      142.421        0.079      337.245        9.087      850.315
11/16/2013  08:26:00     -381.078       11.830       -3.761      219.759      188.412      103.791    48294.196    35498.921    10772.509       11.995        4.728      381.262      105.001        0.076      337.264        9.119      850.314
11/16/2013  08:27:00     -342.809      -23.474       14.690      252.685      174.620      112.639    63849.672    30492.239    12687.463       11.264        5.351      343.612      130.124        0.143      337.264        9.120      850.307
11/16/2013  08:28:00     -494.391      -33.607      -17.994      277.492      209.107      102.431    77001.840    43725.777    10492.109       18.852        6.561      495.531      117.494        0.056      337.248        9.091      850.341
11/16/2013  08:29:00     -395.913      -83.111       -9.702      261.218      219.603      123.346    68234.615    48225.349    15214.200       14.769        6.584      404.543      131.877        0.106      337.204        9.016      850.333
11/16/2013  08:30:00     -466.856     -101.699      -20.510      398.244      213.210      103.211   158598.404    45458.555    10652.507       22.167       10.735      477.805      130.106        0.074      337.201        9.012      850.316
11/16/2013  08:31:00     -552.234      -91.230      -38.539      226.706      166.122       88.721    51395.418    27596.652     7871.347       20.080        4.343      559.718       83.400        0.022      337.229        9.060      850.287
11/16/2013  08:32:00     -592.084     -165.262      -23.120      294.614      249.245      114.232    86797.471    62123.009    13049.034       27.016        8.098      614.716      134.333        0.048      337.196        9.005      850.254
11/16/2013  08:33:00     -334.097      -64.187      -13.934      178.977      131.455       74.880    32032.906    17280.517     5606.979        8.542        2.746      340.207       74.456        0.048      337.197        9.006      850.302
11/16/2013  08:34:00     -537.944     -136.118      -42.343      231.223      179.593       82.405    53463.921    32253.616     6790.518       20.109        4.625      554.898       86.311        0.024      337.187        8.990      850.317
11/16/2013  08:35:00     -367.156     -109.940       -7.395      242.905      181.037       90.425    59002.904    32774.376     8176.618       12.343        4.998      383.262      104.036        0.074      337.193        9.000      850.359
11/16/2013  08:36:00     -621.899     -179.460      -21.808      257.223      215.097      116.362    66163.596    46266.820    13540.041       27.268        6.299      647.274      135.588        0.044      337.238        9.074      850.381
11/16/2013  08:37:00     -547.024      -23.055      -30.971      248.737      225.497      100.644    61870.307    50849.075    10129.248       21.176        6.142      547.510      120.227        0.048      337.229        9.060      850.422
11/16/2013  08:38:00     -531.160      -47.631      -30.815      210.601      197.651      100.306    44352.812    39065.733    10061.243       18.940        4.674      533.291      103.799        0.038      337.229        9.060      850.460
11/16/2013  08:39:00     -517.215      -64.043      -18.285      335.643      193.029      106.380   112656.106    37260.381    11316.749       21.656        8.062      521.165      151.564        0.085      337.253        9.100      850.516
11/16/2013  08:40:00     -433.580     -141.648      -20.133      168.489      157.313       81.832    28388.614    24747.246     6696.515       13.413        2.992      456.132       86.520        0.036      337.274        9.134      850.590
11/16/2013  08:41:00     -416.066     -135.432       -7.124      240.352      146.009       81.407    57768.935    21318.670     6627.127       13.859        4.286      437.553       94.588        0.047      337.308        9.192      850.596
11/16/2013  08:42:00     -397.894      -71.777      -32.305      177.886      129.385       66.650    31643.387    16740.578     4442.245       10.866        2.641      404.316       69.750        0.030      337.297        9.174      850.613
11/16/2013  08:43:00     -386.165      -69.133      -12.474      166.012      137.870       84.526    27559.890    19008.146     7144.692       10.387        2.686      392.304       85.805        0.048      337.297        9.174      850.618
11/16/2013  08:44:00     -391.873      -27.177      -22.135      224.975      127.998       71.211    50613.527    16383.363     5071.071       11.342        3.603      392.815       88.468        0.051      337.328        9.225      850.577
11/16/2013  08:45:00     -647.701      -83.517      -58.375      263.055      200.848      108.283    69198.032    40339.961    11725.287       27.556        6.063      653.063      121.180        0.034      337.346        9.255      850.470
11/16/2013  08:46:00     -416.322      -83.274       -6.503      257.128      185.194      115.359    66114.833    34296.728    13307.771       14.699        5.686      424.568      123.083        0.084      337.353        9.267      850.447
11/16/2013  08:47:00     -540.197     -118.404      -23.476      215.133      190.608      106.967    46282.241    36331.370    11441.937       20.020        4.703      553.021      113.630        0.042      337.376        9.305      850.481
11/16/2013  08:48:00     -603.646     -179.274      -25.354      238.370      238.327      125.121    56820.250    56799.733    15655.254       26.320        6.464      629.705      132.539        0.044      337.403        9.350      850.536
11/16/2013  08:49:00     -286.491     -136.579        2.964      221.775      200.922      100.262    49184.172    40369.548    10052.531       10.015        4.980      317.381      102.082        0.103      337.480        9.479      850.485
11/16/2013  08:50:00     -491.814     -142.740      -32.843      229.537      173.577       86.858    52687.411    30129.042     7544.327       17.683        4.518      512.109       98.257        0.037      337.517        9.540      850.503
11/16/2013  08:51:00     -518.190      -91.436      -17.872      219.424      167.919      104.708    48146.748    28196.632    10963.774       18.224        4.365      526.195      105.705        0.040      337.494        9.501      850.501
11/16/2013  08:52:00     -607.618       -5.152      -40.424      285.836      186.536       87.706    81701.978    34795.497     7692.286       24.750        6.209      607.640      111.419        0.034      337.526        9.555      850.480
11/16/2013  08:53:00     -615.819     -119.392      -31.249      234.510      175.911      105.447    54994.934    30944.842    11119.056       24.574        4.853      627.285      111.228        0.031      337.598        9.677      850.516
11/16/2013  08:54:00     -573.329        4.744      -34.715      258.345      189.872      112.909    66742.262    36051.372    12748.455       22.271        5.777      573.348      121.542        0.045      337.668        9.794      850.543
11/16/2013  08:55:00     -669.465     -145.806      -31.911      296.634      195.567      102.907    87991.859    38246.297    10589.823       30.362        6.841      685.159      126.452        0.034      337.649        9.763      850.537
11/16/2013  08:56:00     -522.428     -108.416      -23.893      261.439      198.751       97.207    68350.252    39501.923     9449.186       20.126        5.865      533.559       81.275        0.023      337.615        9.704      850.482
11/16/2013  08:57:00     -544.458     -239.848      -36.278      247.058      218.794       98.737    61037.565    47870.659     9748.928       23.694        5.933      594.947       97.998        0.027      337.676        9.808      850.503
11/16/2013  08:58:00     -608.228     -195.900      -22.230      202.322      166.957      109.438    40934.153    27874.671    11976.709       24.478        4.039      638.998      116.180        0.033      337.679        9.813      850.526
11/16/2013  08:59:00     -648.120      -28.182      -65.887      176.119      165.598       87.077    31017.830    27422.827     7582.424       24.560        3.301      648.733       80.333        0.015      337.696        9.841      850.566
11/16/2013  09:00:00     -470.699      -73.717      -19.555      220.347      163.727       82.157    48552.619    26806.461     6749.839       15.473        4.105      476.437       87.239        0.034      337.777        9.976      850.564
11/16/2013  09:01:00     -350.407     -124.039       -8.017      283.374      184.836       94.605    80300.698    34164.317     8950.097       13.080        6.171      371.713      109.325        0.087      337.850       10.099      850.580
11/16/2013  09:02:00     -598.447     -133.176      -20.381      275.321      263.606      117.256    75801.677    69488.167    13748.979       26.763        7.952      613.086      127.991        0.044      337.840       10.082      850.576
11/16/2013  09:03:00     -457.620     -210.290      -15.905      267.174      200.169      116.629    71381.813    40067.683    13602.379       18.945        6.253      503.625      113.342        0.051      337.857       10.110      850.565
11/16/2013  09:04:00     -545.873     -132.063      -18.326      162.323      188.580       90.244    26348.776    35562.477     8143.942       19.289        3.503      561.620       84.734        0.023      337.870       10.132      850.573
11/16/2013  09:05:00     -573.710     -217.614      -16.550      320.717      232.584      123.649   102859.322    54095.150    15289.034       27.447        8.612      613.595      143.798        0.055      337.838       10.081      850.636
11/16/2013  09:06:00     -457.144     -138.987        4.970      269.459      210.781      108.832    72608.270    44428.448    11844.307       17.858        6.444      477.806      129.779        0.074      337.859       10.114      850.655
11/16/2013  09:07:00     -511.905     -133.459      -17.368      266.733      232.447      127.079    71146.463    54031.742    16149.179       21.072        7.066      529.016      147.306        0.078      337.887       10.161      850.664
11/16/2013  09:08:00     -504.559     -203.741      -31.480      292.824      259.319      127.269    85746.089    67246.360    16197.363       23.310        8.459      544.142      148.775        0.075      337.885       10.158      850.643
11/16/2013  09:09:00     -335.653      -62.709      -11.468      246.034      198.771       85.268    60532.520    39509.844     7270.589       11.200        5.366      341.461      100.597        0.087      338.003       10.357      850.661
11/16/2013  09:10:00     -270.626       81.849       -9.507      190.218      146.088       74.875    36182.804    21341.798     5606.326        7.157        3.157      282.732       80.733        0.082      338.057       10.448      850.688
11/16/2013  09:11:00     -549.402     -110.697      -19.052      289.959      199.408      108.474    84076.103    39763.482    11766.616       22.501        6.780      560.443      123.028        0.048      337.987       10.330      850.635
11/16/2013  09:12:00     -640.978       -0.384      -42.289      278.333      283.125      111.953    77469.266    80159.571    12533.469       29.137        8.508      640.978       81.003        0.016      337.943       10.254      850.638
11/16/2013  09:13:00     -670.613     -126.021      -21.774      223.284      206.802      111.788    49855.720    42767.205    12496.534       28.558        5.256      682.351      116.863        0.029      337.942       10.253      850.700
11/16/2013  09:14:00     -537.484     -163.030       -3.605      283.946      174.884      102.979    80625.145    30584.340    10604.598       21.862        6.091      561.665      117.835        0.044      337.969       10.299      850.826
11/16/2013  09:15:00     -344.796      -75.185       -7.204      296.921      178.216       98.801    88162.330    31760.932     9761.614       12.711        6.484      352.899      130.408        0.137      338.158       10.616      850.896
11/16/2013  09:16:00     -347.973     -111.172       -0.876      249.643      192.842       88.510    62321.671    37188.136     7833.990       12.037        5.367      365.301      109.504        0.090      338.115       10.545      850.948
11/16/2013  09:17:00     -367.371      -62.056      -15.328      248.222      177.064       84.114    61613.956    31351.610     7075.119       11.952        5.002      372.576      100.022        0.072      338.041       10.420      851.014
11/16/2013  09:18:00     -432.601      -37.818      -27.809      240.335      163.474       81.174    57760.926    26723.675     6589.144       14.019        4.554      434.251       96.263        0.049      338.025       10.394      851.027
11/16/2013  09:19:00     -352.860       68.321       -7.311      285.095      179.167      123.804    81279.308    32100.910    15327.416       12.894        6.435      359.414      153.501        0.182      338.159       10.618      850.992
11/16/2013  09:20:00     -514.252      -55.766      -10.689      302.954      223.966      115.071    91781.070    50160.567    13241.439       21.140        7.759      517.267      137.057        0.070      338.091       10.505      851.014
11/16/2013  09:21:00     -687.725       36.258      -64.172      273.412      249.105      112.507    74754.154    62053.447    12657.893       31.390        7.473      688.680       95.233        0.019      337.968       10.297      851.027
11/16/2013  09:22:00     -674.782     -171.525      -20.400      290.524      183.559      110.148    84404.261    33693.798    12132.574       30.767        6.512      696.241      135.344        0.038      337.973       10.306      851.022
11/16/2013  09:23:00     -622.354     -119.742      -23.387      204.203      177.959       88.575    41698.845    31669.262     7845.611       24.170        4.061      633.769       86.418        0.019      337.960       10.284      851.056
11/16/2013  09:24:00     -399.510       14.214       -1.285      309.519      190.416      115.472    95802.084    36258.177    13333.680       15.257        7.270      399.763      153.655        0.148      338.091       10.506      851.057
11/16/2013  09:25:00     -767.420       55.456      -69.969      238.149      220.067       93.042    56714.812    48429.467     8656.787       35.533        5.690      769.421       96.319        0.016      337.930       10.233      851.026
11/16/2013  09:26:00     -553.497     -123.139      -44.590      215.767      155.211       90.184    46555.452    24090.318     8133.230       20.113        3.939      567.030      104.068        0.034      338.042       10.422      851.083
11/16/2013  09:27:00     -467.286      -37.316      -37.240      262.734      147.510       80.841    69029.412    21759.106     6535.216       15.921        4.866      468.774      115.987        0.061      338.083       10.491      851.110
11/16/2013  09:28:00     -459.969     -228.223      -12.130      298.059      205.735      119.250    88839.259    42327.037    14220.463       20.457        7.269      513.476      127.561        0.062      338.039       10.417      851.112
11/16/2013  09:29:00     -473.971     -298.170      -26.709      220.799      163.066       95.488    48752.342    26590.559     9118.047       19.935        4.223      559.959      109.290        0.038      338.045       10.426      851.036
11/16/2013  09:30:00     -453.438     -176.752      -22.442      274.467      208.630       96.990    75332.015    43526.336     9407.025       18.278        6.413      486.670      118.303        0.059      338.190       10.670      851.129
11/16/2013  09:31:00     -534.296     -166.998      -41.445      263.646      209.637      107.633    69509.326    43947.480    11584.935       22.003        6.252      559.786      130.805        0.055      338.206       10.696      851.161
11/16/2013  09:32:00     -513.107     -121.799      -15.440      228.346      201.674      117.963    52142.080    40672.475    13915.379       19.252        5.336      527.365      113.363        0.046      338.210       10.704      851.163
11/16/2013  09:33:00     -571.745      -45.511      -40.771      238.837      233.907      105.149    57042.909    54712.717    11056.313       22.669        6.141      573.554      104.302        0.033      338.165       10.628      851.193
11/16/2013  09:34:00     -411.842     -104.639        1.605      263.672      243.687      121.505    69522.983    59383.410    14763.380       16.209        7.183      424.928      134.378        0.100      338.232       10.740      851.190
11/16/2013  09:35:00     -495.883      -65.015      -25.506      238.034      178.087      106.232    56660.259    31715.122    11285.323       17.520        4.983      500.126      130.399        0.068      338.293       10.842      851.222
11/16/2013  09:36:00     -537.261     -133.453       -2.560      261.269      269.251      117.165    68261.503    72496.041    13727.662       23.044        7.724      553.588      118.542        0.046      338.219       10.719      851.204
11/16/2013  09:37:00     -399.544       39.906      -22.701      245.887      182.173       95.106    60460.472    33186.822     9045.119       13.220        5.135      401.532      116.753        0.085      338.308       10.868      851.255
11/16/2013  09:38:00     -641.138     -218.544      -23.604      258.810      247.390      130.366    66982.518    61201.741    16995.383       30.225        7.259      677.362      124.282        0.034      338.184       10.659      851.246
11/16/2013  09:39:00     -495.220     -204.346      -27.483      209.636      199.004      100.200    43947.346    39602.652    10039.999       19.065        4.679      535.724      106.045        0.039      338.246       10.764      851.291
11/16/2013  09:40:00     -551.906     -102.167      -28.155      262.263      177.571       98.644    68781.867    31531.408     9730.727       21.292        5.502      561.283      118.665        0.045      338.300       10.853      851.322
11/16/2013  09:41:00     -253.982     -116.826        4.980      179.495      161.370       86.884    32218.348    26040.421     7548.837        7.198        3.290      279.563       69.820        0.062      338.505       11.199      851.344
11/16/2013  09:42:00     -204.935     -148.363       -8.703      273.252      237.482       80.443    74666.827    56397.810     6471.127       10.078        6.877      253.002       88.770        0.123      338.611       11.378      851.346
11/16/2013  09:43:00     -449.748     -327.571       -4.793      332.474      255.258      133.069   110538.891    65156.772    17707.296       25.146        9.670      556.396      171.894        0.095      338.267       10.800      851.272
11/16/2013  09:44:00     -586.435     -383.277      -33.234      306.702      187.307      114.480    94066.243    35083.833    13105.606       31.705        7.113      700.576      139.639        0.040      338.212       10.707      851.263
11/16/2013  09:45:00     -431.133     -287.130      -19.832      183.399      166.412       96.402    33635.186    27693.020     9293.292       16.965        3.531      517.995      107.332        0.043      338.361       10.956      851.279
11/16/2013  09:46:00     -389.463      -76.199      -29.986      189.907      139.126       92.544    36064.757    19356.089     8564.406       11.117        3.199      396.847      107.177        0.073      338.448       11.103      851.235
11/16/2013  09:47:00     -162.932      -79.597       31.543      157.368      164.665       84.454    24764.580    27114.538     7132.406        4.643        2.951      181.335       77.857        0.184      338.671       11.479      851.269
11/16/2013  09:48:00     -575.620       47.676      -34.111      365.257      218.048      117.421   133412.645    47544.869    13787.796       26.472        9.737      577.591      143.133        0.061      338.451       11.108      851.215
11/16/2013  09:49:00     -414.761     -106.399      -16.047      276.150      182.815      105.075    76258.987    33421.430    11040.688       15.214        6.036      428.191      136.540        0.102      338.456       11.115      851.248
11/16/2013  09:50:00     -356.949     -132.159       -7.655      202.358      205.869       95.204    40948.962    42382.091     9063.891       11.865        4.620      380.630      123.938        0.106      338.487       11.169      851.293
11/16/2013  09:51:00     -344.979     -141.574        0.050      273.505      224.308      105.032    74804.843    50313.921    11031.771       13.757        6.808      372.899      122.748        0.108      338.484       11.163      851.348
11/16/2013  09:52:00     -703.074     -454.144      -32.328      312.139      267.410      145.939    97430.471    71508.085    21298.267       44.588        9.512      836.994      143.948        0.030      338.173       10.641      851.336
11/16/2013  09:53:00     -531.234     -265.778       -1.854      300.314      196.799      122.602    90188.603    38729.858    15031.192       24.837        7.197      594.010      139.491        0.055      338.217       10.715      851.335
11/16/2013  09:54:00     -602.601     -309.962      -19.340      367.262      268.644      137.651   134881.228    72169.729    18947.739       34.274       11.300      677.646      174.044        0.066      338.262       10.792      851.324
11/16/2013  09:55:00     -381.486     -201.058       -4.080      251.195      200.208      116.985    63098.688    40083.398    13685.605       15.140        5.843      431.226      115.677        0.072      338.335       10.914      851.354
11/16/2013  09:56:00     -355.297     -221.387      -14.806      197.276      197.887       85.048    38917.820    39159.349     7233.202       13.037        4.266      418.627       81.889        0.038      338.321       10.889      851.396
11/16/2013  09:57:00     -419.013     -170.621       -2.400      198.801      186.989       90.119    39521.970    34964.752     8121.378       14.363        4.130      452.419       93.549        0.043      338.461       11.124      851.425
11/16/2013  09:58:00     -392.083     -232.477      -17.189      254.076      166.213       88.238    64554.574    27626.829     7785.864       15.400        4.998      455.823       97.288        0.046      338.490       11.173      851.432
11/16/2013  09:59:00     -416.937      -56.032       -2.911      185.325      170.484       90.487    34345.489    29064.751     8187.893       12.428        3.580      420.685       93.262        0.049      338.529       11.238      851.451
11/16/2013  10:00:00     -350.924     -230.735        9.379      238.426      209.347      116.330    56846.998    43826.154    13532.591       14.532        5.710      419.983      129.099        0.094      338.576       11.319      851.460
11/16/2013  10:01:00     -430.170     -113.886      -22.594      236.779      163.171       68.697    56064.332    26624.728     4719.288       14.295        4.370      444.990       72.604        0.027      338.617       11.387      851.478
11/16/2013  10:02:00     -459.126     -167.681      -12.019      224.793      221.822      104.397    50531.762    49205.083    10898.669       17.482        5.532      488.788      109.131        0.050      338.625       11.400      851.500
11/16/2013  10:03:00     -319.989     -240.620      -14.557      248.869      234.301      101.664    61935.879    54896.940    10335.536       14.381        6.358      400.363      116.189        0.084      338.508       11.204      851.461
11/16/2013  10:04:00     -386.038     -337.697      -15.618      214.524      191.645      121.139    46020.641    36727.926    14674.584       18.035        4.871      512.898      122.966        0.057      338.567       11.303      851.442
11/16/2013  10:05:00     -193.653     -131.632       -3.091      154.558      173.592       81.412    23888.095    30134.103     6627.919        5.773        3.033      234.155       70.985        0.092      338.621       11.395      851.472
11/16/2013  10:06:00     -436.678      -23.593      -21.795      211.545      158.907       94.784    44751.169    25251.316     8983.969       13.534        3.949      437.315       93.487        0.046      338.535       11.249      851.533
11/16/2013  10:07:00     -241.933     -111.969       13.330      192.169      139.989       85.117    36929.005    19596.905     7244.918        6.750        3.189      266.587      103.663        0.151      338.712       11.548      851.617
11/16/2013  10:08:00     -152.586     -124.927       -1.711      137.577      140.225       56.459    18927.538    19663.071     3187.564        4.033        2.089      197.203       57.743        0.086      338.825       11.739      851.647
11/16/2013  10:09:00     -359.314     -316.447        5.320      266.228      235.054      134.628    70877.460    55250.392    18124.668       18.673        7.213      478.796      148.275        0.096      338.607       11.369      851.624
11/16/2013  10:10:00     -337.887     -218.224        8.835      222.880      196.767      111.449    49675.591    38717.256    12420.838       13.132        5.041      402.230      104.199        0.067      338.624       11.398      851.586
11/16/2013  10:11:00     -213.888     -156.184        3.917      226.440      154.755      110.750    51275.052    23949.186    12265.547        7.881        4.374      264.842      113.187        0.183      338.720       11.561      851.677
11/16/2013  10:12:00     -429.837     -125.525       -8.945      252.078      207.494       94.865    63543.518    43053.634     8999.388       15.807        5.780      447.791      114.345        0.065      338.569       11.306      851.735
11/16/2013  10:13:00     -538.028     -321.331      -14.165      299.103      189.759      103.677    89462.442    36008.419    10748.887       26.455        6.811      626.680      103.829        0.027      338.419       11.053      851.720
11/16/2013  10:14:00     -373.059      -26.579        7.610      275.121      240.390       96.351    75691.310    57787.329     9283.479       14.132        7.138      374.005      118.180        0.100      338.597       11.354      851.729
11/16/2013  10:15:00     -413.975      -43.949      -33.088      111.917       98.030       67.066    12525.449     9609.799     4497.785       10.051        1.332      416.302       54.130        0.017      338.595       11.349      851.745
11/16/2013  10:16:00      -91.088      -28.819       25.733      152.904       74.389       52.137    23379.620     5533.783     2718.215        2.070        1.582       95.539       65.700        0.473      338.899       11.863      851.733
11/16/2013  10:17:00     -619.854     -101.270      -44.877      257.345      182.444      103.856    66226.594    33285.871    10786.162       25.337        5.515      628.072      101.392        0.026      338.679       11.491      851.770
11/16/2013  10:18:00     -458.790     -331.710      -21.437      245.637      196.122      111.803    60337.303    38463.852    12499.937       21.612        5.565      566.144      126.378        0.050      338.586       11.335      851.828
11/16/2013  10:19:00     -565.155     -388.406       -6.164      262.873      203.412      129.197    69102.281    41376.413    16691.826       29.871        6.359      685.755      149.494        0.048      338.471       11.143      851.817
11/16/2013  10:20:00     -457.415     -108.118      -24.946      237.091      180.509       88.329    56212.344    32583.322     7801.951       15.905        4.830      470.019      104.220        0.049      338.538       11.254      851.845
11/16/2013  10:21:00     -319.894     -109.349       -4.422      142.775      129.378       67.811    20384.830    16738.720     4598.336        7.801        2.086      338.067       63.009        0.035      338.667       11.471      851.867
11/16/2013  10:22:00     -197.174     -119.841       -6.079      123.784       91.918       60.762    15322.532     8448.834     3692.002        4.036        1.373      230.737       64.840        0.079      338.845       11.770      851.870
11/16/2013  10:23:00     -411.776      -96.626      -14.178      215.683      184.004       89.199    46519.295    33857.496     7956.515       13.370        4.417      422.961       94.855        0.050      338.676       11.487      851.893
11/16/2013  10:24:00     -581.151     -131.307      -41.347      264.920      212.228      101.828    70182.514    45040.623    10368.846       24.111        6.280      595.800      117.915        0.039      338.459       11.122      851.899
11/16/2013  10:25:00     -419.707     -154.604      -25.103      237.721      120.152       76.156    56511.222    14436.558     5799.727       13.870        3.837      447.276       96.829        0.047      338.583       11.330      851.883
11/16/2013  10:26:00     -199.221     -146.937        3.491      139.446      148.693       65.685    19445.069    22109.590     4314.479        5.357        2.293      247.547       59.161        0.057      338.688       11.506      851.929
11/16/2013  10:27:00     -304.258     -147.366       -1.527      241.134      177.187       85.826    58145.395    31395.070     7366.143       10.558        4.845      338.068      106.729        0.100      338.782       11.664      851.895
11/16/2013  10:28:00     -184.210      -90.759       25.666      154.894      144.881       94.760    23992.185    20990.525     8979.501        4.839        2.698      205.355       92.402        0.202      338.895       11.856      851.923
11/16/2013  10:29:00     -158.438     -230.439       11.244      146.269      137.288       76.737    21394.525    18848.110     5888.588        6.222        2.307      279.651       74.021        0.070      338.771       11.645      851.908
11/16/2013  10:30:00     -169.916     -127.134       -4.413      128.059      121.921       59.565    16399.221    14864.695     3548.012        3.993        1.741      212.214       79.043        0.139      339.021       12.067      851.875
11/16/2013  10:31:00     -132.043      -52.169       -7.618      135.742       76.366       40.521    18425.870     5831.763     1641.979        2.305        1.295      141.975       36.101        0.065      339.035       12.092      851.864
11/16/2013  10:32:00     -355.271     -113.561      -19.491      212.026      133.412       76.462    44954.830    17798.864     5846.385       10.403        3.430      372.979       79.910        0.046      338.849       11.778      851.911
11/16/2013  10:33:00     -266.350      -39.454        3.617      164.478      135.244       71.755    27052.985    18290.974     5148.729        6.149        2.525      269.256       76.636        0.081      338.744       11.600      851.904
11/16/2013  10:34:00     -167.976     -144.237        9.507      141.456      126.530       64.676    20009.662    16009.802     4182.933        4.465        2.010      221.405       72.648        0.108      338.895       11.855      851.949
11/16/2013  10:35:00      -82.196      -92.267       12.566      100.579       94.128       59.098    10116.177     8859.999     3492.540        1.894        1.123      123.569       54.907        0.197      339.103       12.207      851.972
11/16/2013  10:36:00     -146.338     -170.870       32.808      182.455      141.664       87.677    33289.771    20068.777     7687.242        5.635        3.052      224.970       90.326        0.161      339.008       12.045      851.980
11/16/2013  10:37:00     -320.950     -226.703        2.847      221.572      163.704       89.990    49094.248    26798.996     8098.197       11.918        4.200      392.942      108.385        0.076      338.840       11.762      851.988
11/16/2013  10:38:00     -441.047     -311.101      -29.507      242.690      203.951      106.931    58898.446    41596.021    11434.151       20.203        5.596      539.728      122.778        0.052      338.734       11.584      851.998
11/16/2013  10:39:00     -295.785     -226.351       -6.643      166.740      149.079       80.743    27802.181    22224.676     6519.404        9.765        2.827      372.456       82.559        0.049      338.733       11.583      852.012
11/16/2013  10:40:00     -403.104     -232.342      -17.625      199.777      152.316       93.014    39910.909    23200.156     8651.576       14.426        3.588      465.269      103.842        0.050      338.825       11.737      852.025
11/16/2013  10:41:00     -381.036      -58.221      -10.806      145.008      194.365       75.715    21027.214    37777.668     5732.811       10.660        3.227      385.459       65.340        0.029      338.632       11.413      852.025
11/16/2013  10:42:00     -300.742     -131.386      -15.013      180.526      147.894       68.590    32589.597    21872.730     4704.642        8.354        2.958      328.189       52.497        0.026      338.780       11.662      851.998
11/16/2013  10:43:00     -315.643     -157.794        1.285      253.298      186.282       98.527    64160.044    34700.943     9707.659       11.653        5.428      352.887      121.767        0.119      338.816       11.722      851.976
11/16/2013  10:44:00     -441.008       12.579      -31.101      129.165      106.923       82.282    16683.584    11432.552     6770.259       11.524        1.744      441.187       71.641        0.026      338.954       11.952      852.005
11/16/2013  10:45:00     -265.357      -74.785      -13.510      158.645      218.387       72.604    25168.164    47692.985     5271.399        7.715        3.907      275.694       71.624        0.067      338.929       11.911      851.994
11/16/2013  10:46:00     -279.316     -239.632       11.014      210.895      151.744       83.819    44476.594    23026.296     7025.700       10.503        3.726      368.023       85.455        0.054      338.897       11.857      851.959
11/16/2013  10:47:00     -382.985     -279.480       -2.347      240.981      173.643      108.075    58071.960    30151.990    11680.233       16.233        4.995      474.116      121.166        0.065      338.686       11.503      851.930
11/16/2013  10:48:00     -413.018     -293.980      -26.630      159.874      167.970       93.479    25559.774    28214.048     8738.337       16.010        3.126      506.959       77.211        0.023      338.632       11.412      851.919
11/16/2013  10:49:00     -336.441      -37.219       -2.586      228.629      149.989       72.398    52271.228    22496.559     5241.426        9.728        4.000      338.494       85.822        0.064      338.873       11.818      851.917
11/16/2013  10:50:00     -409.450     -185.519      -15.812      196.527      173.025       80.877    38622.795    29937.534     6541.089       13.869        3.755      449.518       91.145        0.041      338.831       11.747      851.933
11/16/2013  10:51:00     -302.008     -178.094        2.418      172.323      151.946       85.190    29695.372    23087.610     7257.298        9.147        3.002      350.608       74.333        0.045      338.966       11.973      851.918
11/16/2013  10:52:00     -140.603      -96.507        2.214      120.938       87.894       57.914    14625.889     7725.423     3353.979        2.739        1.285      170.537       55.152        0.105      339.099       12.199      851.954
11/16/2013  10:53:00     -282.572     -298.633       -7.461      182.658      156.200       69.510    33363.873    24398.389     4831.573       11.583        3.130      411.131       72.767        0.031      338.838       11.761      851.948
11/16/2013  10:54:00     -292.991     -202.899       -6.221      183.445      171.230       80.195    33652.250    29319.774     6431.208        9.821        3.470      356.387       81.781        0.053      338.911       11.880      851.905
11/16/2013  10:55:00     -432.618     -345.891       -1.043      230.471      183.952      108.239    53116.881    33838.180    11715.603       20.272        4.934      553.894      129.796        0.055      338.717       11.556      851.895
11/16/2013  10:56:00     -369.176     -117.080      -28.226      228.229      176.936       97.661    52088.665    31306.438     9537.702       12.185        4.647      387.296       96.333        0.062      338.878       11.826      851.903
11/16/2013  10:57:00     -420.976     -196.345      -11.735      213.982      147.076       87.896    45788.248    21631.225     7725.773       14.551        3.757      464.513      102.594        0.049      338.838       11.759      851.929
11/16/2013  10:58:00     -314.911     -138.948      -12.253      223.866      127.633       78.972    50115.775    16290.212     6236.504        9.562        3.632      344.203       94.709        0.076      338.990       12.015      851.919
11/16/2013  10:59:00     -244.256      -56.277        5.689      128.014      141.228       69.330    16387.524    19945.485     4806.674        5.199        2.057      250.655       68.893        0.076      339.196       12.361      851.902
11/16/2013  11:00:00     -347.184     -202.367      -18.532      196.429      171.027      102.586    38584.507    29250.310    10523.911       12.008        3.918      401.857      101.630        0.064      338.976       11.992      851.835
11/16/2013  11:01:00     -284.894     -171.002       12.363      181.650      167.415       80.753    32996.812    28027.663     6520.980        8.904        3.377      332.275       91.814        0.076      339.070       12.148      851.821
11/16/2013  11:02:00     -492.138     -191.413       -7.337      296.545      182.678      104.571    87938.681    33371.402    10935.041       20.554        6.612      528.051      124.582        0.056      338.874       11.820      851.805
11/16/2013  11:03:00     -334.386     -212.557        9.355      247.208      167.057       95.421    61111.707    27908.113     9105.099       12.758        4.906      396.226       90.638        0.052      338.902       11.865      851.802
11/16/2013  11:04:00     -489.342     -359.596       -7.885      248.203      237.959      102.901    61604.525    56624.294    10588.622       24.880        6.441      607.260      108.640        0.032      338.646       11.435      851.783
11/16/2013  11:05:00     -384.663     -256.372        0.045      280.920      186.940       97.626    78916.060    34946.522     9530.758       16.852        6.170      462.268      123.255        0.071      338.789       11.677      851.731
11/16/2013  11:06:00     -393.337     -272.146        0.263      257.260      207.391      119.462    66182.685    43011.179    14271.114       17.610        6.173      478.307      118.672        0.062      338.689       11.508      851.735
11/16/2013  11:07:00     -480.942      -82.627      -29.197      260.846      194.997       88.363    68040.737    38023.870     7807.966       17.641        5.694      487.988      111.265        0.052      338.878       11.826      851.726
11/16/2013  11:08:00     -336.178       82.160       -0.235      238.734      115.671       76.668    56993.759    13379.678     5877.951        9.799        3.813      346.072       88.613        0.066      338.979       11.996      851.727
11/16/2013  11:09:00     -446.542     -132.615      -28.960      190.214      209.213       85.142    36181.435    43769.936     7249.159       15.250        4.360      465.818       81.983        0.031      338.852       11.781      851.710
11/16/2013  11:10:00     -345.947     -293.558      -23.604      215.468      213.265      114.053    46426.316    45481.945    13008.060       15.564        5.246      453.714      121.022        0.071      338.800       11.694      851.664
11/16/2013  11:11:00     -255.745     -134.071      -10.669      176.079      121.202       75.307    31003.718    14689.815     5671.146        6.742        2.568      288.757       80.442        0.078      339.025       12.072      851.681
11/16/2013  11:12:00     -318.437      -76.902       -8.869      173.008      188.471       87.111    29931.850    35521.341     7588.240        9.020        3.652      327.592       85.716        0.068      338.977       11.992      851.670
11/16/2013  11:13:00     -215.504     -189.932       16.663      193.978      186.721       98.803    37627.640    34864.702     9762.126        8.251        4.113      287.256      109.060        0.144      339.119       12.230      851.686
11/16/2013  11:14:00     -434.505     -333.729      -11.489      250.671      190.607      120.440    62835.795    36331.093    14505.737       20.696        5.684      547.877      142.276        0.067      338.871       11.814      851.679
11/16/2013  11:15:00     -546.585     -264.807      -24.369      265.173      218.266      106.013    70316.470    47640.007    11238.829       24.931        6.460      607.353      122.013        0.040      338.790       11.678      851.665
11/16/2013  11:16:00     -463.502     -161.380      -19.909      192.896      235.056      101.105    37208.952    55251.139    10222.165       17.196        5.134      490.793      114.414        0.054      338.904       11.868      851.657
11/16/2013  11:17:00     -448.162     -285.855       -7.199      246.946      206.768      120.074    60982.438    42752.856    14417.647       20.036        5.908      531.565      124.324        0.055      338.833       11.751      851.660
11/16/2013  11:18:00     -469.955     -287.236       -3.900      250.046      210.172       96.826    62522.771    44172.189     9375.266       20.970        5.804      550.784       96.972        0.031      338.970       11.981      851.654
11/16/2013  11:19:00     -562.024     -342.533      -23.251      272.733      248.276      118.718    74383.398    61641.220    14093.903       29.190        7.506      658.179      144.161        0.048      338.693       11.515      851.624
11/16/2013  11:20:00     -418.778     -194.806      -20.487      248.489      209.816       96.627    61746.896    44022.719     9336.864       16.440        5.755      461.870       94.075        0.041      338.745       11.602      851.636
11/16/2013  11:21:00     -425.734     -248.574       -5.368      317.856      193.590      109.855   101032.384    37477.009    12068.023       19.679        7.529      492.989      143.331        0.085      338.831       11.747      851.602
11/16/2013  11:22:00     -434.109     -141.350        7.698      286.279      187.181      101.835    81955.492    35036.549    10370.360       16.790        6.368      456.542      130.905        0.082      338.914       11.886      851.580
11/16/2013  11:23:00     -579.815     -177.552      -15.001      292.519      288.358      116.061    85567.449    83150.085    13470.062       27.503        9.109      606.391      138.254        0.052      338.927       11.908      851.553
11/16/2013  11:24:00     -512.729      -90.882      -11.184      266.179      178.657       98.580    70851.306    31918.258     9717.995       19.186        5.624      520.721      107.925        0.043      338.946       11.941      851.538
11/16/2013  11:25:00     -476.194     -222.912      -19.709      267.917      195.094      106.332    71779.535    38061.815    11306.408       19.897        6.057      525.785      118.565        0.051      338.940       11.929      851.543
11/16/2013  11:26:00     -424.541     -270.052      -11.508      265.273      206.191      123.156    70369.666    42514.835    15167.390       19.065        6.403      503.153      134.641        0.072      338.811       11.714      851.533
11/16/2013  11:27:00     -248.658     -227.074       -1.365      181.452      195.767       92.024    32924.667    38324.581     8468.501        9.654        3.986      336.739      104.103        0.096      338.892       11.851      851.541
11/16/2013  11:28:00     -234.374     -154.377       15.659      191.324      154.208       91.518    36605.022    23780.113     8375.601        7.387        3.438      280.648      104.165        0.138      339.027       12.076      851.525
11/16/2013  11:29:00     -379.571     -261.111        2.943      246.417      160.481       94.749    60721.350    25754.276     8977.303       15.384        4.773      460.710      105.681        0.053      339.033       12.087      851.470
11/16/2013  11:30:00     -663.207     -309.260      -36.285      182.464      167.911      109.622    33293.032    28194.036    12017.019       30.514        3.675      731.768      108.540        0.022      338.994       12.021      851.495
11/16/2013  11:31:00     -509.246     -233.562      -12.613      330.750      200.291      123.419   109395.317    40116.314    15232.189       23.936        8.237      560.253      151.103        0.073      339.064       12.139      851.482
11/16/2013  11:32:00     -499.536     -108.710      -19.918      229.259      169.070       92.869    52559.891    28584.777     8624.570       17.574        4.488      511.228      100.576        0.039      339.086       12.176      851.515
11/16/2013  11:33:00     -467.822      -81.176      -21.549      217.460      121.273       79.661    47289.018    14707.152     6345.834       14.711        3.417      474.812       83.843        0.031      339.026       12.073      851.507
11/16/2013  11:34:00     -214.186      -65.440        4.795      237.892      137.524       75.813    56592.787    18912.893     5747.566        6.570        4.063      223.960      102.968        0.211      339.351       12.622      851.507
11/16/2013  11:35:00     -549.927     -105.582      -35.030      184.571      149.788       87.856    34066.557    22436.473     7718.635       18.950        3.211      559.971       86.311        0.024      339.130       12.249      851.487
11/16/2013  11:36:00     -505.777     -193.976      -10.095      275.663      197.199       95.861    75990.087    38887.520     9189.305       20.878        6.203      541.698      126.993        0.055      339.080       12.165      851.460
11/16/2013  11:37:00     -406.204     -142.970       -9.964      234.818      161.233      100.103    55139.658    25995.953    10020.585       13.833        4.558      430.630       92.688        0.046      339.066       12.141      851.434
11/16/2013  11:38:00     -191.725      -34.951       26.587      201.348      145.291       78.988    40541.105    21109.552     6239.146        5.327        3.394      194.885       84.495        0.188      339.317       12.566      851.392
11/16/2013  11:39:00     -452.648      -46.045       -4.434      205.237      160.043       88.910    42122.144    25613.608     7904.956       14.132        3.782      454.984       97.681        0.046      339.157       12.295      851.400
11/16/2013  11:40:00     -591.419     -227.267       -4.475      315.392      220.627      118.615    99472.204    48676.200    14069.429       28.180        8.111      633.582      140.570        0.049      339.008       12.045      851.428
11/16/2013  11:41:00     -434.794     -147.621      -22.624      168.503      256.181       92.588    28393.427    65628.850     8572.555       15.695        5.130      459.170       81.275        0.031      339.005       12.040      851.403
11/16/2013  11:42:00     -310.935     -185.121        4.839      181.363      173.210       92.632    32892.695    30001.633     8580.628       10.121        3.574      361.871       91.952        0.065      338.994       12.021      851.398
11/16/2013  11:43:00     -362.781     -159.663      -15.331      234.583      171.955       94.732    55029.159    29568.446     8974.117       12.544        4.679      396.361      101.713        0.066      339.063       12.137      851.393
11/16/2013  11:44:00     -291.708     -238.625       -1.955      187.582      165.779       97.650    35186.968    27482.835     9535.575       10.711        3.610      376.876       69.799        0.034      339.158       12.296      851.383
11/16/2013  11:45:00     -499.272     -247.992       -4.668      314.551      193.452      120.466    98942.582    37423.511    14512.056       23.081        7.544      557.469      149.941        0.072      339.009       12.046      851.380
11/16/2013  11:46:00     -434.042     -188.164      -29.804      210.224      209.856       90.533    44194.295    44039.465     8196.181       16.054        4.821      473.073       88.241        0.035      338.960       11.964      851.379
11/16/2013  11:47:00     -403.004     -127.491      -18.037      224.758      131.283       77.553    50516.206    17235.186     6014.400       12.636        3.688      422.689       89.161        0.044      339.167       12.312      851.356
11/16/2013  11:48:00     -247.260     -133.392       13.456      159.772      170.770       74.240    25527.183    29162.245     5511.580        6.964        3.010      280.947       79.382        0.080      339.267       12.481      851.346
11/16/2013  11:49:00     -446.019     -276.963       12.003      259.257      198.647      107.470    67214.401    39460.437    11549.811       19.698        5.911      525.016      111.842        0.045      339.143       12.270      851.291
11/16/2013  11:50:00     -431.558     -108.593      -38.943      235.002      182.430      123.965    55226.050    33280.810    15367.259       15.169        5.194      445.012      132.370        0.088      339.278       12.499      851.350
11/16/2013  11:51:00     -377.154      -94.308      -12.074      201.296      187.938       89.984    40519.890    35320.831     8097.058       11.759        4.197      388.766       86.383        0.049      339.158       12.298      851.348
11/16/2013  11:52:00     -388.266     -118.623      -14.831      225.246      205.584      105.098    50735.775    42264.736    11045.694       13.452        5.202      405.983      111.927        0.076      339.209       12.383      851.360
11/16/2013  11:53:00     -428.656     -195.360      -12.304      299.752      224.419      114.562    89851.085    50364.032    13124.520       18.767        7.667      471.075      143.947        0.093      339.186       12.343      851.366
11/16/2013  11:54:00     -511.732     -181.635      -22.741      317.154      214.458      123.500   100586.637    45992.229    15252.209       22.857        8.092      543.012      155.345        0.082      339.094       12.190      851.344
11/16/2013  11:55:00     -552.031     -156.032      -38.285      309.665      192.862       98.081    95892.535    37195.613     9619.927       23.660        7.135      573.658      129.008        0.051      339.161       12.301      851.331
11/16/2013  11:56:00     -445.667     -259.986      -14.923      228.958      183.431       91.784    52421.707    33646.780     8424.250       18.044        4.725      515.957      101.820        0.039      339.233       12.423      851.317
11/16/2013  11:57:00     -462.948     -190.555      -15.482      263.695      203.417      110.925    69534.926    41378.619    12304.350       18.702        6.161      500.631      126.902        0.064      339.140       12.266      851.329
11/16/2013  11:58:00     -504.068     -377.851      -18.188      281.883      242.711      136.469    79458.132    58908.539    18623.781       27.706        7.850      629.965      156.610        0.062      339.113       12.221      851.285
11/16/2013  11:59:00     -445.434     -174.147      -27.288      191.942      194.801       83.051    36841.914    37947.551     6897.465       15.557        4.084      478.267       81.460        0.029      339.148       12.279      851.293
11/16/2013  12:00:00     -652.431     -123.161      -19.393      303.176      195.953      125.801    91915.465    38397.699    15825.952       29.365        7.307      663.954      154.164        0.054      339.097       12.195      851.286
11/16/2013  12:01:00     -488.640     -183.142      -12.300      203.031      182.330       92.073    41221.459    33244.286     8477.463       17.769        4.147      521.833      101.850        0.038      339.115       12.223      851.249
11/16/2013  12:02:00     -410.036        8.522      -24.168      189.584      108.595       73.600    35942.065    11792.781     5416.918       11.096        2.658      410.125       90.400        0.049      339.270       12.485      851.250
11/16/2013  12:03:00     -358.794     -100.384      -11.119      195.692      164.581       84.762    38295.389    27087.007     7184.675       10.574        3.628      372.572       91.853        0.061      339.432       12.758      851.283
11/16/2013  12:04:00     -344.632     -244.480       -1.943      219.789      161.754      105.338    48307.290    26164.388    11096.026       13.204        4.278      422.542      108.741        0.066      339.280       12.501      851.240
11/16/2013  12:05:00     -252.181     -194.753       16.214      239.223      201.806      108.361    57227.796    40725.544    11742.134       10.572        5.485      318.628      107.905        0.115      339.362       12.641      851.178
11/16/2013  12:06:00     -180.399     -104.746       30.822      208.248      173.152       98.161    43367.336    29981.529     9635.594        6.371        4.149      208.604      116.812        0.314      339.613       13.064      851.215
11/16/2013  12:07:00     -242.559     -128.275      -13.692      188.641      149.344       76.127    35585.568    22303.535     5795.379        6.957        3.184      274.390       84.822        0.096      339.612       13.062      851.192
11/16/2013  12:08:00     -178.567     -182.311       17.681      197.276      156.279      103.300    38917.827    24423.031    10670.857        6.971        3.701      255.193      118.808        0.217      339.543       12.946      851.187
11/16/2013  12:09:00     -332.713     -238.033       -1.525      214.102      179.392       86.471    45839.708    32181.523     7477.171       12.641        4.275      409.093       88.759        0.047      339.443       12.776      851.130
11/16/2013  12:10:00     -457.282     -209.485      -10.978      209.227      227.870       99.343    43776.001    51924.607     9869.012       17.932        5.278      502.982      114.655        0.052      339.473       12.827      851.142
11/16/2013  12:11:00     -459.720     -280.275      -21.770      279.570      218.728      125.528    78159.281    47842.145    15757.156       21.604        7.088      538.420      137.717        0.065      339.407       12.718      851.115
11/16/2013  12:12:00     -280.744     -195.055       -5.866      241.375      192.430      115.165    58261.833    37029.394    13262.902       11.270        5.428      341.853      138.500        0.164      339.453       12.793      851.134
11/16/2013  12:13:00     -533.632     -364.645      -18.658      251.595      203.121      127.347    63299.837    41258.290    16217.327       26.940        6.039      646.320      136.565        0.045      339.145       12.275      851.112
11/16/2013  12:14:00     -390.003     -127.415      -20.347      238.350      160.945       88.765    56810.519    25903.310     7879.280       12.965        4.530      410.289      112.371        0.075      339.401       12.706      851.137
11/16/2013  12:15:00     -572.307     -295.734      -31.351      322.932      227.727      116.906   104285.177    51859.761    13667.034       29.286        8.491      644.200      125.090        0.038      339.230       12.418      851.142
11/16/2013  12:16:00     -631.037     -168.921      -33.230      323.052      217.946      120.535   104362.624    47500.560    14528.744       29.709        8.320      653.255      145.571        0.050      339.159       12.297      851.116
11/16/2013  12:17:00     -625.595     -128.902      -50.640      265.492      175.286      110.008    70485.779    30725.009    12101.679       26.191        5.666      638.737      125.950        0.039      339.166       12.310      851.120
11/16/2013  12:18:00     -432.663      -78.322      -26.960      231.071      164.272       82.587    53393.899    26985.400     6820.657       14.061        4.360      439.695      111.777        0.065      339.192       12.355      851.073
11/16/2013  12:19:00     -405.715     -205.764        7.138      305.532      228.202       99.527    93350.107    52076.076     9905.641       18.113        7.767      454.910      136.674        0.090      339.326       12.580      851.054
11/16/2013  12:20:00     -429.845     -270.741        0.598      298.138      221.658      128.427    88886.298    49132.168    16493.603       20.626        7.726      508.003      160.050        0.099      339.251       12.452      851.059
11/16/2013  12:21:00     -578.237     -376.295      -24.545      240.445      170.179      105.136    57813.746    28961.051    11053.615       28.717        4.891      689.896       93.048        0.018      339.220       12.401      851.043
11/16/2013  12:22:00     -326.659     -172.033       -1.684      256.821      145.112      109.816    65956.843    21057.556    12059.540       11.767        4.954      369.191      133.411        0.131      339.389       12.686      851.071
11/16/2013  12:23:00     -455.432     -217.411      -15.723      221.428      252.015       97.899    49030.299    63511.703     9584.214       18.851        6.106      504.664      103.888        0.042      339.251       12.454      851.103
11/16/2013  12:24:00     -263.039     -213.718        6.869      177.435      153.035       95.680    31483.316    23419.770     9154.685        8.947        3.203      338.917       93.284        0.076      339.364       12.643      851.079
11/16/2013  12:25:00     -355.606     -132.322       18.235      313.300      265.875      131.797    98156.965    70689.707    17370.423       16.522        9.311      379.427      176.562        0.217      339.370       12.653      851.062
11/16/2013  12:26:00     -494.562     -141.558      -18.212      248.263      215.750       93.573    61634.619    46548.193     8755.924       19.093        5.847      514.422      102.899        0.040      339.262       12.472      851.088
11/16/2013  12:27:00     -186.640       -8.360       11.167      170.758      146.031       89.518    29158.317    21325.076     8013.524        4.675        2.925      186.827       95.324        0.260      339.475       12.829      851.035
11/16/2013  12:28:00     -306.220     -187.946       -2.657      214.754      203.522      107.331    46119.318    41421.087    11519.950       11.406        4.953      359.297      122.757        0.117      339.405       12.713      851.035
11/16/2013  12:29:00     -455.825     -294.734      -13.317      223.267      185.568       99.483    49848.138    34435.509     9896.965       19.448        4.709      542.812      109.462        0.041      339.303       12.541      850.987
11/16/2013  12:30:00     -296.282     -268.163      -15.473      187.083      166.431      104.644    35000.048    27699.307    10950.272       11.678        3.682      399.618      115.761        0.084      339.522       12.909      851.002
11/16/2013  12:31:00     -586.356     -207.075      -14.889      282.596      237.316      104.195    79860.601    56318.909    10856.594       26.695        7.352      621.847      106.780        0.029      339.341       12.605      851.010
11/16/2013  12:32:00     -373.127     -174.763       -6.803      225.951      168.043       95.823    51053.998    28238.606     9182.096       12.913        4.424      412.026       97.152        0.056      339.346       12.613      850.990
11/16/2013  12:33:00     -588.602       -4.923      -34.200      349.617      259.799      118.265   122232.175    67495.576    13986.550       27.564       10.186      588.622      128.635        0.048      339.429       12.754      851.016
11/16/2013  12:34:00     -490.354     -185.085      -22.587      199.664      175.548       98.074    39865.578    30817.103     9618.504       17.774        4.015      524.122       93.841        0.032      339.416       12.730      851.041
11/16/2013  12:35:00     -425.248     -175.544      -19.155      201.617      154.965       94.569    40649.272    24014.117     8943.237       14.280        3.680      460.056       78.585        0.029      339.353       12.625      851.054
11/16/2013  12:36:00     -459.969     -227.841      -21.604      294.504      193.985      112.227    86732.760    37630.251    12594.808       20.043        6.848      513.306      133.410        0.068      339.413       12.726      851.005
11/16/2013  12:37:00     -507.921     -310.443      -14.837      309.112      267.275      129.753    95550.532    71435.830    16835.794       26.916        9.191      595.280      150.562        0.064      339.356       12.630      850.999
11/16/2013  12:38:00     -649.044     -321.283      -18.944      280.462      296.403      134.124    78659.127    87854.993    17989.218       35.463        9.225      724.211      135.476        0.035      339.228       12.413      850.966
11/16/2013  12:39:00     -476.708     -107.600      -31.103      252.335      227.414      106.972    63672.894    51717.002    11443.105       18.329        6.342      488.701      106.312        0.047      339.223       12.407      850.959
11/16/2013  12:40:00     -305.426      -41.376        2.875      199.440      135.034       97.214    39776.388    18234.216     9450.614        8.122        3.373      308.216       83.463        0.073      339.347       12.615      850.911
11/16/2013  12:41:00     -244.776     -183.450       29.271      215.897      200.128      107.113    46611.307    40051.111    11473.201        9.626        4.907      305.890       98.789        0.104      339.404       12.711      850.882
11/16/2013  12:42:00     -467.405     -380.444       -1.184      286.862      258.922      139.769    82289.700    67040.684    19535.379       26.600        8.443      602.665      164.217        0.074      339.375       12.663      850.797
11/16/2013  12:43:00     -667.602     -354.385      -19.835      263.802      212.772      106.716    69591.310    45271.731    11388.203       34.894        6.313      755.832      131.583        0.030      339.285       12.511      850.878
11/16/2013  12:44:00     -422.927     -123.400      -23.754      192.096      164.283       91.846    36900.927    26988.757     8435.673       13.348        3.616      440.561       95.970        0.047      339.433       12.759      850.864
11/16/2013  12:45:00     -431.999     -279.796      -10.883      303.363      231.893      121.037    92029.392    53774.141    14649.971       21.271        8.023      514.693      150.840        0.086      339.469       12.821      850.892
11/16/2013  12:46:00     -392.215     -237.480        5.369      259.635      219.224      112.875    67410.170    48059.214    12740.659       16.921        6.411      458.508      125.352        0.075      339.381       12.674      850.899
11/16/2013  12:47:00     -292.100     -198.951      -11.487      175.699      133.175       96.204    30870.074    17735.619     9255.174        9.144        2.893      353.417      101.927        0.083      339.540       12.941      850.924
11/16/2013  12:48:00     -249.567     -251.144        3.607      212.630      182.435       88.958    45211.543    33282.418     7913.529       10.587        4.320      354.059       91.728        0.067      339.469       12.819      850.909
11/16/2013  12:49:00      -95.219      -63.358       48.068      191.306      177.000      128.165    36597.855    31328.892    16426.199        4.986        4.218      114.372      123.438        1.165      339.759       13.311      850.895
11/16/2013  12:50:00     -326.317     -154.316        1.202      218.136      160.688       88.791    47583.157    25820.569     7883.891       10.578        4.064      360.966      109.978        0.093      339.625       13.084      850.918
11/16/2013  12:51:00     -193.487     -112.089       -4.559      146.760      156.820       60.267    21538.414    24592.581     3632.093        4.988        2.488      223.610       65.707        0.086      339.602       13.046      850.933
11/16/2013  12:52:00     -460.736     -257.653      -14.389      275.210      202.025      109.243    75740.647    40814.111    11934.035       20.365        6.424      527.885       97.007        0.034      339.452       12.791      850.921
11/16/2013  12:53:00     -417.249     -261.355       -8.336      264.744      234.971      118.851    70089.597    55211.495    14125.642       19.092        6.971      492.344      137.632        0.078      339.455       12.796      850.901
11/16/2013  12:54:00     -700.696     -548.784      -25.441      318.355      265.412      150.721   101350.047    70443.720    22716.883       49.361        9.726      890.022      165.400        0.035      339.248       12.447      850.856
11/16/2013  12:55:00     -401.112     -197.980      -13.092      282.327      229.640      102.738    79708.298    52734.678    10555.143       17.160        7.150      447.311      124.255        0.077      339.416       12.731      850.859
11/16/2013  12:56:00     -399.076     -270.154      -19.155      207.368      168.226      103.200    43001.339    28300.025    10650.214       15.727        4.098      481.918       92.946        0.037      339.544       12.947      850.862
11/16/2013  12:57:00     -428.924     -219.845      -12.137      286.737      209.506      106.396    82218.393    43892.609    11320.029       18.492        6.872      481.983      130.347        0.073      339.593       13.030      850.910
11/16/2013  12:58:00     -410.250     -251.524      -14.827      220.658      192.261      105.069    48690.084    36964.248    11039.529       16.422        4.835      481.217      110.178        0.052      339.566       12.984      850.939
11/16/2013  12:59:00     -495.923     -281.026      -11.447      292.778      239.841      137.106    85719.232    57523.891    18798.076       24.351        8.102      570.013      148.456        0.068      339.496       12.865      850.924
11/16/2013  13:00:00     -528.077     -328.320        1.879      269.011      203.433      121.624    72367.139    41385.118    14792.312       25.758        6.427      621.819      132.031        0.045      339.376       12.663      850.841
11/16/2013  13:01:00     -398.952     -288.924      -17.457      236.609      201.496      118.897    55983.977    40600.514    14136.458       17.681        5.536      492.585      109.920        0.050      339.592       13.028      850.865
11/16/2013  13:02:00     -347.896       -6.749       -7.206      216.342      142.849       79.031    46804.036    20405.910     6245.909        9.728        3.673      347.961       93.953        0.073      339.715       13.236      850.913
11/16/2013  13:03:00     -470.249     -102.378        0.447      223.901      188.513       86.171    50131.485    35537.022     7425.496       16.234        4.655      481.264       90.210        0.035      339.606       13.050      850.907
11/16/2013  13:04:00     -614.283      -79.352      -23.589      273.214      194.444      110.510    74645.715    37808.297    12212.561       25.441        6.233      619.387      120.346        0.038      339.542       12.944      850.912
11/16/2013  13:05:00     -353.419      -99.196        4.278      204.318      138.891       89.260    41745.874    19290.571     7967.379       10.187        3.450      367.076       98.749        0.072      339.616       13.069      850.912
11/16/2013  13:06:00     -424.326      -77.888      -13.667      188.054      144.896       84.486    35364.261    20994.813     7137.821       12.489        3.175      431.415       90.394        0.044      339.609       13.056      850.951
11/16/2013  13:07:00     -258.860     -108.667        0.238      196.418      139.435       97.093    38579.938    19442.064     9426.977        7.312        3.372      280.743      101.284        0.130      339.781       13.347      850.916
11/16/2013  13:08:00     -265.353     -224.121        7.269      192.084      154.886       84.168    36896.177    23989.538     7084.222        9.432        3.398      347.337       95.249        0.075      339.571       12.992      850.905
11/16/2013  13:09:00     -326.771     -262.984      -10.489      151.813      154.549       98.304    23047.176    23885.410     9663.599       11.631        2.830      419.452      101.901        0.059      339.636       13.102      850.895
11/16/2013  13:10:00     -201.193     -250.212        6.803      204.079      143.244       81.881    41648.295    20518.706     6704.469        8.599        3.444      321.068       95.617        0.089      339.646       13.119      850.874
11/16/2013  13:11:00     -402.771     -277.251        8.535      248.159      195.656       96.725    61582.903    38281.306     9355.773       17.417        5.461      488.971      128.865        0.069      339.652       13.130      850.903
11/16/2013  13:12:00     -368.669      -82.792       10.348      265.190      195.788       96.224    70325.633    38332.965     9259.016       13.037        5.896      377.851      119.720        0.100      339.700       13.210      850.910
11/16/2013  13:13:00     -473.608     -130.086      -23.444      203.251      204.518       83.942    41311.131    41827.582     7046.268       16.596        4.509      491.148       84.209        0.029      339.678       13.172      850.966
11/16/2013  13:14:00     -330.002      -64.330      -15.799      180.581      133.005       68.257    32609.564    17690.344     4658.963        8.411        2.748      336.213       58.931        0.031      339.653       13.130      850.935
11/16/2013  13:15:00     -443.630      -76.615      -12.024      288.134      175.806      103.931    83021.487    30907.803    10801.612       16.375        6.237      450.197      136.366        0.092      339.648       13.123      850.939
11/16/2013  13:16:00     -527.308      -89.608      -20.049      263.628      198.580      103.015    69499.523    39434.136    10611.988       20.299        5.977      534.868      124.617        0.054      339.530       12.924      850.874
11/16/2013  13:17:00     -430.008     -114.097        0.118      207.417      165.439       97.466    43021.795    27370.013     9499.663       13.889        3.995      444.888      105.185        0.056      339.657       13.137      850.941
11/16/2013  13:18:00     -467.596     -361.073       -6.572      360.170      230.282      132.672   129722.171    53029.617    17601.977       27.467       10.018      590.779      178.007        0.091      339.501       12.873      850.898
11/16/2013  13:19:00     -230.380     -151.455       -1.368      191.039      143.915       98.031    36495.846    20711.647     9610.100        7.140        3.341      275.705      108.217        0.154      339.683       13.182      850.900
11/16/2013  13:20:00     -150.323     -100.113       10.377      185.705      150.978       76.878    34486.424    22794.286     5910.172        4.795        3.160      180.609       96.679        0.287      339.768       13.326      850.902
11/16/2013  13:21:00     -536.631     -248.350      -15.632      214.889      159.843       81.483    46177.428    25549.920     6639.465       21.412        3.918      591.313       70.929        0.014      339.486       12.849      850.888
11/16/2013  13:22:00     -454.106     -134.396       -1.090      223.567      169.605       98.254    49982.330    28765.981     9653.910       15.632        4.420      473.576      115.715        0.060      339.583       13.013      850.844
11/16/2013  13:23:00     -358.756     -115.549      -19.941      209.118      147.657       92.183    43730.276    21802.532     8497.756       10.823        3.702      376.905       88.206        0.055      339.580       13.008      850.873
11/16/2013  13:24:00     -574.861     -142.204      -25.703      183.747      142.777       84.306    33762.990    20385.341     7107.419       20.629        3.063      592.188       83.683        0.020      339.578       13.004      850.828
11/16/2013  13:25:00     -415.910     -246.054      -17.308      194.126      213.912      109.849    37684.974    45758.324    12066.775       16.465        4.776      483.243      110.371        0.052      339.669       13.158      850.868
11/16/2013  13:26:00     -309.002     -250.787       11.129      254.759      218.033      115.233    64902.101    47538.271    13278.674       14.208        6.286      397.965      128.236        0.104      339.574       12.998      850.843
11/16/2013  13:27:00     -377.423     -140.160       12.249      212.812      207.837      110.771    45288.779    43196.175    12270.304       13.148        5.038      402.608      125.973        0.098      339.580       13.007      850.838
11/16/2013  13:28:00     -649.968     -251.359      -24.556      274.514      179.328      106.866    75357.788    32158.631    11420.269       30.257        5.947      696.878      119.721        0.030      339.471       12.825      850.841
11/16/2013  13:29:00     -652.582      -86.687      -47.977      230.117      172.232       85.783    52953.839    29663.900     7358.655       26.281        4.499      658.315       90.547        0.019      339.382       12.673      850.805
11/16/2013  13:30:00     -323.623      -62.217        4.974      164.901      172.882       88.043    27192.353    29888.072     7751.652        8.672        3.242      329.550       90.690        0.076      339.622       13.079      850.847
11/16/2013  13:31:00     -242.523     -245.772       43.124      242.446      291.744      113.650    58779.950    85114.566    12916.392       13.891        7.841      345.284      142.698        0.171      339.573       12.997      850.809
11/16/2013  13:32:00     -289.614     -180.358       -7.883      175.399      184.463       79.342    30764.667    34026.713     6295.096        9.376        3.554      341.182       83.169        0.059      339.611       13.060      850.774
11/16/2013  13:33:00     -423.510     -200.627      -13.229      259.190      210.785      105.517    67179.433    44430.342    11133.810       17.124        6.137      468.628      130.315        0.077      339.713       13.231      850.831
11/16/2013  13:34:00     -606.859     -250.342       -9.136      294.156      222.444      115.212    86527.770    49481.172    13273.889       29.013        7.464      656.467      127.001        0.037      339.667       13.155      850.819
11/16/2013  13:35:00     -529.832     -147.150      -13.936      263.810      176.144      104.011    69595.593    31026.551    10818.304       20.698        5.572      549.886      133.000        0.059      339.559       12.973      850.830
11/16/2013  13:36:00     -323.515     -149.908        7.424      170.801      160.675       86.671    29172.931    25816.480     7511.777        9.483        3.125      356.559       84.503        0.056      339.699       13.208      850.853
11/16/2013  13:37:00     -532.324     -312.219       -5.836      296.109      246.063      134.055    87680.402    60547.161    17970.800       27.351        8.310      617.130      158.678        0.066      339.567       12.985      850.856
11/16/2013  13:38:00     -417.589     -262.807       -4.906      195.474      185.829       99.511    38209.965    34532.426     9902.481       16.304        4.132      493.405      107.803        0.048      339.696       13.204      850.825
11/16/2013  13:39:00     -275.399      -52.053        2.428      234.243      136.046       77.453    54869.855    18508.546     5998.894        7.895        3.969      280.275      103.591        0.137      339.860       13.481      850.873
11/16/2013  13:40:00     -247.401     -123.499        9.114      150.381      151.587       74.904    22614.532    22978.633     5610.625        6.386        2.560      276.512       80.201        0.084      339.799       13.377      850.849
11/16/2013  13:41:00     -443.681      -73.607      -15.070      208.761      156.007       91.249    43581.221    24338.227     8326.379       13.936        3.812      449.745       90.227        0.040      339.700       13.210      850.851
11/16/2013  13:42:00     -473.394     -119.573      -36.792      233.880      186.471       93.427    54699.700    34771.415     8728.558       16.896        4.910      488.261      115.763        0.056      339.766       13.321      850.878
11/16/2013  13:43:00     -255.126     -120.867       10.890      193.706      145.840       75.293    37521.935    21269.185     5669.001        7.213        3.223      282.308       86.925        0.095      339.846       13.457      850.860
11/16/2013  13:44:00     -338.302        3.023       -3.214      227.991      206.700       88.961    51979.857    42725.084     7914.146       10.852        5.131      338.316       92.906        0.075      339.736       13.271      850.844
11/16/2013  13:45:00     -295.806     -145.593      -15.173      166.472      145.453       69.325    27712.963    21156.456     4805.939        8.129        2.684      329.695       71.748        0.047      339.711       13.230      850.873
11/16/2013  13:46:00     -230.666     -155.959       27.191      258.956      187.570       97.765    67058.132    35182.380     9557.999        9.501        5.590      278.442      121.462        0.190      339.814       13.402      850.886
11/16/2013  13:47:00     -638.765     -184.488      -10.421      300.037      213.060      101.352    90022.046    45394.390    10272.324       29.390        7.284      664.874      112.875        0.029      339.618       13.073      850.889
11/16/2013  13:48:00     -460.346     -164.008      -13.769      237.462      190.087      104.683    56388.425    36133.010    10958.566       17.122        5.174      488.689      121.558        0.062      339.659       13.142      850.924
11/16/2013  13:49:00     -335.129      -94.697        0.353      164.361      131.050       70.265    27014.657    17174.203     4937.128        8.519        2.456      348.251       73.998        0.045      339.781       13.347      850.954
11/16/2013  13:50:00     -316.397     -157.273        0.351      171.881      141.055       93.258    29543.112    19896.582     8697.081        9.148        2.907      353.329      101.470        0.082      339.724       13.251      850.942
11/16/2013  13:51:00     -408.984      -88.044       11.658      387.622      203.970      112.274   150250.983    41603.905    12605.460       18.977       10.223      418.353      149.547        0.128      339.725       13.251      850.936
11/16/2013  13:52:00     -469.000     -183.857       -9.643      404.698      178.441      109.883   163780.326    31841.047    12074.205       23.073       10.385      503.750      143.625        0.081      339.550       12.956      850.950
11/16/2013  13:53:00     -390.047     -225.016        6.439      260.435      205.187      110.548    67826.291    42101.558    12220.791       16.245        6.107      450.298      109.039        0.059      339.488       12.853      850.971
11/16/2013  13:54:00     -390.288     -174.651      -31.570      200.323      146.189       78.573    40129.280    21371.263     6173.794       12.574        3.384      427.584       85.034        0.040      339.464       12.811      850.991
11/16/2013  13:55:00     -375.909     -256.290      -14.207      197.013      192.428       89.535    38814.132    37028.693     8016.437       14.551        4.193      454.964      100.967        0.049      339.572       12.992      850.971
11/16/2013  13:56:00     -444.019     -237.258      -28.350      188.571      196.224       88.407    35559.205    38503.699     7815.862       16.805        4.094      503.433       94.248        0.035      339.642       13.111      850.978
11/16/2013  13:57:00     -307.081     -252.206        2.340      244.505      146.149      117.883    59782.865    21359.487    13896.443       12.646        4.752      397.375      135.439        0.116      339.681       13.179      850.921
11/16/2013  13:58:00     -291.337      -53.889      -18.607      155.553      130.875       57.602    24196.831    17128.296     3317.963        6.638        2.232      296.279       53.468        0.033      339.811       13.396      850.961
11/16/2013  13:59:00     -385.590      -90.984      -10.588      227.877      194.758       90.458    51928.124    37930.538     8182.614       12.754        4.902      396.179      110.588        0.078      339.786       13.355      850.955
11/16/2013  14:00:00     -294.880      -85.327       15.671      171.101      159.165       97.036    29275.574    25333.431     9415.992        7.924        3.201      306.977       95.939        0.098      339.783       13.352      850.966
11/16/2013  14:01:00     -376.662     -185.845       -6.362      215.158      153.092       93.267    46292.904    23437.018     8698.665       12.743        3.921      420.015       98.273        0.055      339.684       13.182      850.936
11/16/2013  14:02:00     -334.927      -98.862       -0.837      252.356      160.436       93.232    63683.347    25739.628     8692.261       11.001        4.906      349.213      128.171        0.135      339.820       13.412      850.958
11/16/2013  14:03:00     -279.104     -160.859       -2.865      201.683      140.610       84.694    40676.074    19771.261     7173.128        8.569        3.381      322.141       95.534        0.088      339.836       13.440      850.975
11/16/2013  14:04:00     -410.533     -327.786      -19.189      224.023      176.327      103.000    50186.207    31091.102    10608.901       18.410        4.594      525.339      116.580        0.049      339.607       13.053      850.962
11/16/2013  14:05:00     -408.895     -243.531       -2.993      273.629      193.917      118.998    74872.602    37603.964    14160.429       17.655        6.332      475.923      142.578        0.090      339.498       12.868      850.901
11/16/2013  14:06:00     -540.459     -321.802      -26.258      293.095      236.877      125.515    85904.416    56110.513    15753.891       27.702        7.888      629.009      134.225        0.046      339.484       12.846      850.889
11/16/2013  14:07:00     -522.289        4.564      -50.767      169.203      190.612       91.644    28629.617    36333.006     8398.637       17.436        3.668      522.309       90.138        0.030      339.608       13.052      850.956
11/16/2013  14:08:00     -404.858      -92.093       -3.852      185.170      157.922       79.028    34287.995    24939.279     6245.500       11.893        3.274      415.200       80.350        0.037      339.733       13.264      850.962
11/16/2013  14:09:00     -339.642      -69.423      -24.263      174.978      112.140       65.655    30617.128    12575.343     4310.608        8.412        2.375      346.665       79.841        0.053      339.806       13.388      850.965
11/16/2013  14:10:00     -370.758     -192.027       10.218      270.226      165.822      102.876    73021.887    27496.958    10583.495       14.275        5.555      417.535      125.896        0.091      339.756       13.305      850.963
11/16/2013  14:11:00     -324.357     -206.076      -21.239      267.814      162.372       93.749    71724.290    26364.651     8788.923       12.748        5.344      384.285      107.531        0.078      339.638       13.106      850.967
11/16/2013  14:12:00     -544.491     -164.886      -32.189      228.824      201.020      106.758    52360.353    40408.914    11397.227       21.441        5.208      568.910      108.213        0.036      339.572       12.995      850.959
11/16/2013  14:13:00     -444.163     -112.900      -26.952      243.774      155.324       87.143    59425.894    24125.492     7593.926       15.093        4.557      458.287       88.314        0.037      339.636       13.102      850.971
11/16/2013  14:14:00     -464.111      -99.065      -24.858      235.905      170.741       82.331    55650.961    29152.411     6778.414       15.869        4.579      474.566       99.963        0.044      339.586       13.018      850.991
11/16/2013  14:15:00     -450.275     -150.204      -12.135      178.570      169.669       80.701    31887.208    28787.604     6512.651       14.631        3.359      474.667       80.238        0.029      339.535       12.932      851.004
11/16/2013  14:16:00     -336.556     -164.425       14.334      217.824      148.855       93.266    47447.252    22157.889     8698.500       10.939        3.915      374.574       91.434        0.060      339.479       12.837      850.990
11/16/2013  14:17:00     -265.786     -134.918      -14.614      179.749      160.734       79.633    32309.876    25835.570     6341.492        7.676        3.224      298.069       86.601        0.084      339.575       13.000      850.980
11/16/2013  14:18:00     -323.131      -48.513      -18.056      154.557      166.237       75.525    23887.961    27634.864     5704.055        8.215        2.861      326.753       78.048        0.057      339.632       13.095      851.000
11/16/2013  14:19:00     -361.501     -195.646      -19.646      221.338      141.999       78.801    48990.301    20163.748     6209.591       12.234        3.768      411.048      102.519        0.062      339.682       13.181      851.000
11/16/2013  14:20:00     -429.341     -171.922       14.703      226.740      195.716       85.480    51410.916    38304.891     7306.886       15.555        4.851      462.483       94.565        0.042      339.702       13.215      850.989
11/16/2013  14:21:00     -399.544     -250.840       -4.531      207.548      165.574       81.262    43076.350    27414.733     6603.583       14.982        3.855      471.759       85.591        0.033      339.596       13.035      850.984
11/16/2013  14:22:00     -349.483     -196.252       -6.444      262.591      222.919      109.406    68954.000    49693.044    11969.681       14.563        6.531      400.816      131.796        0.108      339.673       13.165      850.977
11/16/2013  14:23:00     -276.706      -20.906       -5.927      193.841      123.718       83.668    37574.389    15306.184     7000.309        6.845        2.994      277.495       82.781        0.089      339.792       13.367      850.950
11/16/2013  14:24:00     -341.991      -96.289      -27.095      181.229      133.887       74.619    32844.054    17925.629     5567.990        9.164        2.817      355.288       91.929        0.067      339.783       13.349      850.953
11/16/2013  14:25:00     -398.769     -168.268        8.408      243.370      254.592      102.934    59229.102    64816.977    10595.363       16.099        6.732      432.817      117.904        0.074      339.642       13.112      850.956
11/16/2013  14:26:00     -341.301     -316.761        6.164      239.532      220.958      143.218    57375.532    48822.595    20511.393       17.176        6.335      465.644      147.352        0.100      339.521       12.908      850.911
11/16/2013  14:27:00     -233.559     -215.537        4.309      179.994      150.272      102.496    32397.872    22581.565    10505.369        8.324        3.274      317.814      114.265        0.129      339.728       13.258      850.976
11/16/2013  14:28:00     -277.334     -176.226      -20.072      124.280      114.014       61.675    15445.461    12999.272     3803.815        7.030        1.612      328.588       49.994        0.023      339.736       13.272      850.987
11/16/2013  14:29:00     -408.779      -34.431       -8.796      209.575      201.069       93.520    43921.754    40428.698     8746.027       13.071        4.655      410.226       94.433        0.053      339.661       13.144      850.991
11/16/2013  14:30:00     -390.955     -273.006       -2.910      214.677      187.594      103.725    46086.404    35191.482    10758.943       15.969        4.602      476.841      109.254        0.052      339.611       13.061      850.965
11/16/2013  14:31:00     -309.915     -153.575        6.455      182.629      167.341       87.543    33353.184    28002.951     7663.809        9.433        3.451      345.879       74.435        0.046      339.768       13.326      850.993
11/16/2013  14:32:00     -177.538     -120.771       28.203      239.966      158.957       98.864    57583.671    25267.485     9774.155        6.974        4.631      214.722      115.159        0.288      339.811       13.398      851.004
11/16/2013  14:33:00     -319.969     -105.812       -2.102      162.941      168.494       83.951    26549.910    28390.303     7047.832        8.777        3.099      337.011       76.478        0.051      339.806       13.386      851.041
11/16/2013  14:34:00     -336.828      -80.244       -2.586      164.272      121.467       70.894    26985.145    14754.203     5025.951        8.332        2.338      346.255       70.979        0.042      339.614       13.066      851.002
11/16/2013  14:35:00     -244.530     -245.692       -2.435      191.971      178.213       87.432    36852.780    31759.842     7644.426        9.820        3.813      346.640       86.284        0.062      339.747       13.288      850.980
11/16/2013  14:36:00     -535.409     -412.455      -19.129      273.718      204.208      112.258    74921.434    41700.967    12601.891       29.316        6.461      675.856      118.151        0.031      339.622       13.079      850.995
11/16/2013  14:37:00     -542.581     -365.568      -26.354      251.702      223.528      112.820    63353.791    49964.642    12728.429       27.736        6.302      654.244      101.439        0.024      339.552       12.961      850.996
11/16/2013  14:38:00     -330.369     -217.757       -1.446      274.873      183.746      102.769    75555.080    33762.743    10561.567       13.820        5.994      395.679      116.500        0.087      339.611       13.061      851.042
11/16/2013  14:39:00     -370.663     -171.312       -6.499      246.320      167.849       94.735    60673.667    28173.388     8974.747       13.228        4.891      408.337      108.351        0.070      339.610       13.060      851.090
11/16/2013  14:40:00     -302.753     -247.424       -3.018      227.584      212.661       97.201    51794.397    45224.562     9448.120       12.966        5.323      390.996      111.970        0.082      339.596       13.034      851.121
11/16/2013  14:41:00     -371.898     -219.561       -9.148      221.583      170.316       92.306    49099.212    29007.458     8520.350       13.660        4.331      431.874      102.976        0.057      339.542       12.944      851.096
11/16/2013  14:42:00     -204.602     -137.161        0.232      102.622       89.213       60.634    10531.250     7958.994     3676.433        4.142        1.108      246.323       59.522        0.058      339.742       13.282      851.131
11/16/2013  14:43:00     -505.168      -13.186      -23.201      219.907      155.392       83.547    48359.292    24146.758     6980.181       16.768        3.974      505.340       93.502        0.034      339.622       13.079      851.157
11/16/2013  14:44:00     -294.363     -115.907      -10.335      195.734      151.114       67.953    38311.831    22835.424     4617.675        8.296        3.288      316.361       83.605        0.070      339.600       13.041      851.158
11/16/2013  14:45:00     -262.730     -208.201       -8.216      133.421      120.112       59.416    17801.153    14426.919     3530.252        7.409        1.788      335.224       62.448        0.035      339.676       13.170      851.153
11/16/2013  14:46:00     -216.438      -53.045        3.531      211.808      131.624       71.408    44862.421    17324.828     5099.062        5.847        3.364      222.844       79.370        0.127      339.809       13.395      851.160
11/16/2013  14:47:00     -360.657     -258.569       -5.691      224.512      228.915       81.826    50405.522    52402.035     6695.450       15.321        5.475      443.770       71.454        0.026      339.610       13.059      851.129
11/16/2013  14:48:00     -342.638     -132.268      -14.494      186.267      133.271       78.327    34695.376    17761.227     6135.108        9.684        2.930      367.281       75.068        0.042      339.681       13.178      851.136
11/16/2013  14:49:00     -462.988     -149.849      -13.076      262.425      179.195      107.086    68866.751    32110.730    11467.513       17.469        5.622      486.634      121.687        0.063      339.501       12.876      851.116
11/16/2013  14:50:00     -399.938     -239.818      -32.580      244.280      200.220      113.740    59672.950    40087.932    12936.782       16.559        5.635      466.329      116.546        0.062      339.435       12.762      851.143
11/16/2013  14:51:00     -515.048     -175.080      -45.811      187.963      197.621       91.004    35330.110    39054.084     8281.799       19.033        4.133      543.992       84.532        0.024      339.496       12.867      851.117
11/16/2013  14:52:00     -251.313     -127.400        0.309      213.471      162.183       85.519    45569.673    26303.247     7313.512        7.927        3.959      281.761      103.495        0.135      339.655       13.135      851.129
11/16/2013  14:53:00     -234.902      -11.667       13.437      201.776      145.955       83.434    40713.582    21302.943     6961.231        6.222        3.449      235.192       99.588        0.179      339.674       13.166      851.127
11/16/2013  14:54:00     -368.932     -134.088      -14.931      216.075      181.023       91.701    46688.378    32769.484     8409.112       12.107        4.393      392.543      105.591        0.072      339.590       13.025      851.136
11/16/2013  14:55:00     -418.524     -224.206      -18.905      265.686      161.513       94.949    70589.069    26086.412     9015.282       16.572        5.285      474.795      106.141        0.050      339.466       12.815      851.093
11/16/2013  14:56:00     -377.004     -147.713       -6.976      233.260      176.534      103.099    54410.379    31164.291    10629.328       13.008        4.810      404.909      115.377        0.081      339.490       12.856      851.105
11/16/2013  14:57:00     -441.727     -194.058        4.964      284.778      215.281      112.479    81098.355    46345.824    12651.600       18.642        7.005      482.474      120.032        0.062      339.491       12.858      851.090
11/16/2013  14:58:00     -352.889     -155.143        0.024      212.065      163.344       86.733    44971.517    26681.409     7522.529       11.387        3.959      385.486      104.761        0.074      339.585       13.016      851.156
11/16/2013  14:59:00     -444.973      -71.657        0.761      227.721      179.715       92.067    51856.787    32297.519     8476.361       14.786        4.632      450.706      111.059        0.061      339.465       12.815      851.136
11/16/2013  15:00:00     -567.526      -65.420      -17.867      224.140      189.805      109.636    50238.875    36026.060    12020.082       21.246        4.914      571.284      103.677        0.033      339.398       12.700      851.195
11/16/2013  15:01:00     -314.792     -116.008       -1.798      226.079      153.292       85.432    51111.537    23498.374     7298.653        9.722        4.095      335.487      108.355        0.104      339.493       12.861      851.205
11/16/2013  15:02:00     -471.920     -337.899       -4.787      256.462      204.674      110.195    65772.927    41891.459    12142.983       22.833        5.990      580.418      135.137        0.054      339.342       12.607      851.194
11/16/2013  15:03:00     -301.730     -119.063       -0.293      181.955      147.228       91.753    33107.704    21675.966     8418.603        8.420        3.160      324.372       87.414        0.073      339.451       12.790      851.195
11/16/2013  15:04:00     -115.954      -99.678       19.159      140.012      115.172       73.998    19603.244    13264.509     5475.701        3.104        1.917      152.909       77.586        0.257      339.618       13.072      851.246
11/16/2013  15:05:00     -227.672     -135.849      -10.863      141.970       86.285       53.023    20155.491     7445.042     2811.474        5.040        1.521      265.122       55.268        0.043      339.625       13.084      851.267
11/16/2013  15:06:00     -146.064       46.739       27.953      175.404      109.482       91.874    30766.736    11986.409     8440.821        3.774        2.560      153.359       87.815        0.328      339.688       13.191      851.259
11/16/2013  15:07:00     -425.638     -275.441      -20.345      219.621      177.668      118.441    48233.202    31565.745    14028.287       17.562        4.691      506.986      129.881        0.066      339.504       12.878      851.269
11/16/2013  15:08:00     -606.770     -159.937      -34.276      260.406      167.013      106.515    67811.160    27893.202    11345.377       25.097        5.352      627.494      126.171        0.040      339.372       12.657      851.262
11/16/2013  15:09:00     -529.790     -124.333      -20.615      204.589      233.347      100.569    41856.547    54451.023    10114.040       20.147        5.321      544.184      101.964        0.035      339.408       12.718      851.243
11/16/2013  15:10:00     -490.294     -176.925       -9.772      224.186      190.830       91.415    50259.327    36415.945     8356.759       18.339        4.752      521.239      109.866        0.044      339.384       12.678      851.287
11/16/2013  15:11:00     -385.820     -112.633       12.304      278.033      164.889      108.057    77302.431    27188.442    11676.364       13.891        5.808      401.925      140.764        0.123      339.348       12.616      851.260
11/16/2013  15:12:00     -455.694       -9.632      -27.871      215.089      171.194       85.832    46263.325    29307.230     7367.185       14.572        4.147      455.795       77.327        0.029      339.322       12.571      851.254
11/16/2013  15:13:00     -208.539     -121.364       14.326      221.825      170.840      115.311    49206.133    29186.357    13296.725        7.504        4.584      241.283      135.318        0.315      339.377       12.666      851.273
11/16/2013  15:14:00     -348.674     -145.107      -25.469      296.453      173.439       92.142    87884.602    30080.964     8490.215       13.484        6.323      377.663      126.275        0.112      339.379       12.668      851.282
11/16/2013  15:15:00     -409.176     -228.779      -15.498      298.504      204.898      110.957    89104.644    41983.317    12311.364       18.167        7.170      468.791      132.263        0.080      339.346       12.615      851.258
11/16/2013  15:16:00     -453.752     -236.106      -20.388      216.493      188.392       95.368    46869.229    35491.427     9095.040       17.674        4.573      511.505       93.480        0.033      339.294       12.525      851.243
11/16/2013  15:17:00     -369.661     -165.355      -13.196      210.291      137.689       73.593    44222.129    18958.129     5415.915       11.637        3.430      404.959       96.384        0.057      339.389       12.686      851.278
11/16/2013  15:18:00     -549.072     -295.551       -4.219      294.294      193.758      125.198    86608.694    37541.998    15674.469       26.431        6.991      623.562      151.949        0.059      339.271       12.487      851.162
11/16/2013  15:19:00     -257.274     -224.910       -0.488      244.530      225.278      112.804    59795.014    50750.070    12724.689       12.000        6.163      341.723      129.984        0.145      339.364       12.645      851.208
11/16/2013  15:20:00     -461.392     -223.348       -5.457      264.338      197.507      102.636    69874.747    39009.057    10534.162       19.108        5.971      512.607      120.568        0.055      339.295       12.527      851.135
11/16/2013  15:21:00     -436.429     -258.592      -13.948      203.496      184.321      109.526    41410.587    33974.167    11995.881       17.244        4.369      507.287      104.347        0.042      339.290       12.518      851.211
11/16/2013  15:22:00     -512.901     -220.240      -10.443      235.655      212.333      101.691    55533.216    45085.304    10341.014       21.130        5.548      558.187       94.956        0.029      339.235       12.426      851.221
11/16/2013  15:23:00     -561.561     -295.346      -27.534      228.577      161.947       87.547    52247.628    26226.788     7664.509       24.472        4.307      634.492       90.229        0.020      339.252       12.456      851.225
11/16/2013  15:24:00     -285.213     -139.841       12.155      219.918      161.535       99.296    48363.863    26093.562     9859.614        9.267        4.216      317.650      114.458        0.130      339.305       12.543      851.250
11/16/2013  15:25:00     -310.643     -206.173        2.969      224.035      139.767       84.353    50191.797    19534.841     7115.428       10.791        3.842      372.836       96.004        0.066      339.344       12.610      851.257
11/16/2013  15:26:00     -369.109     -263.520       -1.407      162.431      176.152       84.630    26383.818    31029.411     7162.190       13.512        3.229      453.524       93.493        0.042      339.299       12.532      851.258
11/16/2013  15:27:00     -286.897     -225.134      -14.140      263.620      153.072       99.881    69495.495    23430.980     9976.176       11.803        5.145      364.685      117.544        0.104      339.292       12.522      851.225
11/16/2013  15:28:00     -289.346     -151.278       17.644      215.477      180.679       94.099    46430.155    32644.922     8854.581        9.741        4.396      326.506      115.381        0.125      339.288       12.515      851.225
11/16/2013  15:29:00     -357.394     -259.566      -36.608      163.318      125.568       80.999    26672.610    15767.412     6560.832       12.271        2.450      441.707       90.778        0.042      339.277       12.497      851.239
11/16/2013  15:30:00     -291.304     -238.787        7.800      266.998      141.926      100.721    71287.790    20142.889    10144.694       12.174        5.079      376.666      125.261        0.111      339.316       12.562      851.260
11/16/2013  15:31:00     -432.770     -222.129       -9.130      226.471      186.664       95.380    51289.123    34843.508     9097.327       16.595        4.761      486.447      111.891        0.053      339.242       12.438      851.249
11/16/2013  15:32:00     -389.630     -212.784       -4.327      226.462      185.043      102.762    51285.017    34240.981    10560.089       14.658        4.804      443.947      118.994        0.072      339.234       12.426      851.280
11/16/2013  15:33:00     -398.646     -147.968      -14.140      242.928      170.209      100.106    59014.164    28971.251    10021.187       13.949        4.900      425.221      109.578        0.066      339.282       12.505      851.265
11/16/2013  15:34:00     -359.326      -90.738       -7.927      194.127      177.142       75.923    37685.437    31379.117     5764.329       10.611        3.741      370.606       83.246        0.050      339.268       12.482      851.326
11/16/2013  15:35:00     -402.720      -97.331      -34.679      161.401      134.942       78.142    26050.241    18209.435     6106.154       11.160        2.518      414.314       87.887        0.045      339.276       12.496      851.366
11/16/2013  15:36:00     -441.952      -63.881      -24.747      211.709      163.237       84.083    44820.685    26646.416     7069.868       13.926        3.927      446.545      100.632        0.051      339.234       12.423      851.345
11/16/2013  15:37:00     -312.678      -59.550        4.416      202.050      131.819       81.451    40824.018    17376.122     6634.296        8.307        3.242      318.298       83.801        0.069      339.305       12.543      851.384
11/16/2013  15:38:00     -400.544     -143.130      -12.764      217.907      126.645       82.951    47483.383    16039.029     6880.802       12.573        3.520      425.349       98.349        0.053      339.194       12.358      851.402
11/16/2013  15:39:00     -208.919     -144.515       -0.593      178.469      151.247       75.022    31851.257    22875.583     5628.286        6.243        3.018      254.031       90.987        0.128      339.277       12.498      851.412
11/16/2013  15:40:00     -419.003     -277.888      -30.142      237.334      203.375       99.696    56327.480    41361.344     9939.267       18.064        5.381      502.778      124.075        0.061      339.193       12.356      851.417
11/16/2013  15:41:00     -303.357      -50.155       10.888      171.789      161.332       80.084    29511.455    26027.929     6413.508        7.829        3.098      307.475       87.276        0.081      339.260       12.468      851.468
11/16/2013  15:42:00     -219.043     -139.747       28.550      200.507      163.662       96.548    40202.904    26785.272     9321.456        7.230        3.815      259.825      101.544        0.153      339.208       12.381      851.468
11/16/2013  15:43:00     -303.596     -167.169        3.770      235.424      193.050       82.683    55424.411    37268.473     6836.486       10.981        4.976      346.578      103.503        0.089      339.217       12.396      851.491
11/16/2013  15:44:00     -445.549     -260.161       -7.380      271.172      215.400      108.840    73534.450    46397.182    11846.217       19.899        6.589      515.944      127.205        0.061      339.190       12.351      851.488
11/16/2013  15:45:00     -320.678     -137.910       -0.158      193.011      151.950       86.547    37253.234    23088.670     7490.310        9.483        3.392      349.076       92.145        0.070      339.135       12.257      851.475
11/16/2013  15:46:00     -317.424     -244.493      -11.592      227.590      142.332       83.456    51797.170    20258.510     6964.882       11.983        3.951      400.668      110.112        0.076      339.140       12.268      851.489
11/16/2013  15:47:00     -201.634     -180.461        4.705      150.569      119.673       61.949    22671.174    14321.676     3837.677        5.703        2.042      270.597       65.033        0.058      339.153       12.289      851.536
11/16/2013  15:48:00     -424.799     -286.292       -8.205      198.611      168.819       98.264    39446.388    28499.701     9655.739       17.003        3.880      512.267       87.131        0.029      339.120       12.233      851.522
11/16/2013  15:49:00     -466.367     -256.255      -30.143      265.925      188.016      109.585    70716.245    35349.951    12008.851       20.105        5.904      532.132      122.579        0.053      339.065       12.140      851.514
11/16/2013  15:50:00     -341.239     -229.113       -4.914      225.265      151.616       92.622    50744.127    22987.417     8578.750       12.562        4.116      411.019      110.678        0.073      339.099       12.197      851.532
11/16/2013  15:51:00     -270.323     -156.937       -0.311      179.462      165.393       89.478    32206.470    27354.988     8006.328        8.262        3.378      312.576      100.799        0.104      339.162       12.302      851.552
11/16/2013  15:52:00     -354.821     -226.942       -7.886      193.114      191.854       85.118    37292.943    36807.857     7245.010       12.939        4.067      421.190       99.822        0.056      339.110       12.217      851.571
11/16/2013  15:53:00     -378.419     -168.059       -9.280      179.694      140.078       68.609    32289.866    19621.746     4707.152       11.406        2.831      414.058       64.301        0.024      339.052       12.118      851.521
11/16/2013  15:54:00     -260.447     -109.915       12.940      166.310      113.048       68.216    27659.101    12779.913     4653.385        6.258        2.255      282.690       76.002        0.072      339.103       12.204      851.543
11/16/2013  15:55:00     -194.280      -66.010       10.037      148.294      115.873       61.281    21991.025    13426.560     3755.308        4.068        1.959      205.187       70.230        0.117      339.169       12.314      851.546
11/16/2013  15:56:00     -266.929      -42.179        7.534      169.669      129.954       74.327    28787.503    16888.122     5524.490        6.213        2.560      270.241       83.042        0.094      339.125       12.240      851.597
11/16/2013  15:57:00     -456.111     -149.108       -9.850      187.547      204.954       87.370    35173.803    42006.184     7633.558       15.757        4.241      479.865       98.705        0.042      339.043       12.104      851.586
11/16/2013  15:58:00     -244.326       -2.758        1.479      136.942      113.320       67.622    18753.080    12841.324     4572.714        4.793        1.808      244.341       66.398        0.074      339.143       12.271      851.596
11/16/2013  15:59:00     -355.880      -77.294        7.924      235.836      167.450       86.715    55618.632    28039.526     7519.512       11.191        4.559      364.177      111.784        0.094      339.085       12.174      851.604
11/16/2013  16:00:00     -246.627      -90.814        7.280      211.189      137.676       82.410    44600.947    18954.563     6791.355        6.972        3.517      262.816      106.049        0.163      339.105       12.208      851.611
11/16/2013  16:01:00     -395.182     -147.165      -32.740      169.170      112.839       58.723    28618.454    12732.559     3448.371       11.184        2.240      421.694       59.252        0.020      339.049       12.113      851.646
11/16/2013  16:02:00     -343.134      -75.805      -17.102      203.023      133.425       64.461    41218.451    17802.302     4155.229        9.347        3.159      351.408       61.280        0.030      339.064       12.137      851.648
11/16/2013  16:03:00     -393.154      -94.606      -17.456      191.004      161.150       68.309    36482.435    25969.287     4666.174       11.546        3.356      404.376       64.571        0.025      339.053       12.120      851.658
11/16/2013  16:04:00     -576.115     -103.430      -34.479      273.547      183.895      105.020    74827.909    33817.223    11029.155       23.171        5.984      585.326      123.748        0.045      338.939       11.929      851.656
11/16/2013  16:05:00     -432.221      -56.818      -28.999      227.641      176.566       87.364    51820.389    31175.599     7632.452       14.074        4.531      435.939      105.089        0.058      338.966       11.974      851.673
11/16/2013  16:06:00     -502.736      -45.235      -16.164      256.583      194.187      100.253    65834.653    37708.701    10050.751       18.430        5.680      504.767      125.130        0.061      338.927       11.910      851.664
11/16/2013  16:07:00     -397.618      -58.270       -6.680      237.623      154.468       84.139    56464.740    23860.465     7079.423       12.446        4.370      401.865      110.219        0.075      338.911       11.881      851.679
11/16/2013  16:08:00     -239.398     -171.693       -1.388      140.499      133.359       83.318    19740.020    17784.676     6941.949        6.562        2.223      294.602       71.954        0.060      338.934       11.920      851.698
11/16/2013  16:09:00     -125.672     -109.761       22.858      190.561      164.312       93.118    36313.635    26998.438     8670.877        5.016        3.599      166.856      103.136        0.382      338.921       11.899      851.702
11/16/2013  16:10:00     -393.055     -144.119      -14.683      206.677      143.119       76.658    42715.388    20483.185     5876.412       12.226        3.454      418.644       95.241        0.052      338.917       11.891      851.733
11/16/2013  16:11:00     -326.855      -77.245        0.181      221.130      110.382       69.104    48898.312    12184.235     4775.350        8.932        3.293      335.859       85.882        0.065      338.921       11.897      851.753
11/16/2013  16:12:00     -206.687     -151.594       -8.069      126.106       87.551       66.689    15902.739     7665.251     4447.365        4.688        1.401      256.321       64.070        0.062      338.943       11.935      851.782
11/16/2013  16:13:00     -191.013      -61.992       19.560      186.489      129.774       78.441    34778.305    16841.200     6152.921        4.923        2.889      200.820       98.389        0.240      338.934       11.921      851.808
11/16/2013  16:14:00     -406.578     -156.834      -17.564      219.856      185.213       85.060    48336.661    34303.791     7235.210       14.003        4.494      435.778       95.720        0.048      338.924       11.904      851.851
11/16/2013  16:15:00     -316.769     -157.887       -6.462      197.947      188.910       96.931    39183.178    35687.005     9395.569       10.477        4.213      353.936       85.766        0.059      338.901       11.864      851.859
11/16/2013  16:16:00     -335.069       -9.125      -27.143      137.035      119.367       66.452    18778.704    14248.598     4415.907        7.526        1.872      335.193       60.997        0.033      338.911       11.881      851.913
11/16/2013  16:17:00     -431.246     -109.802      -22.501      175.616      173.545       74.074    30840.939    30117.725     5486.901       13.248        3.322      445.005       76.936        0.030      338.882       11.833      851.942
11/16/2013  16:18:00     -319.094     -154.391      -15.478      141.912      156.727       81.677    20138.965    24563.458     6671.111        8.863        2.569      354.482       59.179        0.028      338.895       11.856      851.963
11/16/2013  16:19:00     -148.986        4.312       16.814      133.944      105.059       66.648    17940.925    11037.330     4442.021        2.795        1.671      149.049       61.822        0.172      338.907       11.876      851.982
11/16/2013  16:20:00     -273.570       -2.417        3.979      135.956      118.784       62.633    18483.956    14109.544     3922.887        5.568        1.826      273.581       65.312        0.057      338.871       11.813      852.006
11/16/2013  16:21:00     -295.732      -43.316        5.033      188.299      126.741       80.523    35456.561    16063.248     6484.033        7.367        2.900      298.888       94.141        0.099      338.850       11.779      852.022
11/16/2013  16:22:00     -385.864      -97.876      -13.270      186.338      137.435       73.961    34722.017    18888.302     5470.218       10.885        2.954      398.084       82.261        0.043      338.821       11.731      852.019
11/16/2013  16:23:00     -404.822     -113.365      -21.810      185.648      159.364       87.928    34465.280    25396.733     7731.320       12.239        3.380      420.395       97.558        0.054      338.798       11.692      852.053
11/16/2013  16:24:00     -422.932      -62.088      -36.122      167.064      137.287       73.976    27910.223    18847.756     5472.430       11.812        2.612      427.465       79.072        0.034      338.794       11.685      852.043
11/16/2013  16:25:00     -353.413      -75.303      -23.937      177.833      127.779       77.135    31624.592    16327.488     5949.859        9.251        2.695      361.347       88.304        0.060      338.768       11.642      852.050
11/16/2013  16:26:00     -214.291      -60.600       -4.111      157.304      117.776       68.839    24744.497    13871.120     4738.785        4.647        2.168      222.695       69.969        0.099      338.764       11.636      852.065
11/16/2013  16:27:00     -226.601     -114.556       -2.843      189.720      127.768       81.784    35993.673    16324.688     6688.668        6.173        2.950      253.911       84.002        0.109      338.771       11.646      852.066
11/16/2013  16:28:00     -296.926      -71.772        7.165      198.584      139.937       80.155    39435.544    19582.297     6424.849        7.939        3.272      305.477      100.622        0.109      338.720       11.560      852.090
11/16/2013  16:29:00     -277.296      -79.909       -1.923      180.339      119.892       83.032    32522.150    14374.128     6894.372        6.853        2.690      288.580       81.879        0.081      338.701       11.527      852.090
11/16/2013  16:30:00     -369.792     -134.024      -26.064      240.263      179.427      105.957    57726.392    32193.874    11226.944       12.825        5.057      393.330       87.697        0.050      338.695       11.518      852.054
11/16/2013  16:31:00     -339.495      -77.519      -45.021      205.546      173.836      108.243    42249.298    30219.030    11716.571       10.372        4.209      348.233      108.075        0.096      338.677       11.486      852.073
11/16/2013  16:32:00     -407.963      -48.765      -32.188      195.186      144.645       75.343    38097.693    20922.093     5676.639       11.726        3.235      410.868       73.176        0.032      338.690       11.508      852.119
11/16/2013  16:33:00     -389.159      -62.440      -19.784      186.597      176.826       77.182    34818.474    31267.510     5957.076       11.387        3.602      394.136       91.312        0.054      338.622       11.395      852.140
11/16/2013  16:34:00     -390.653      -92.498       -5.050      171.976      162.853       87.361    29575.584    26521.011     7631.924       11.245        3.186      401.454       87.504        0.048      338.604       11.366      852.174
11/16/2013  16:35:00     -428.193     -142.009        2.290      304.957      210.974      115.211    92998.663    44509.857    13273.578       17.712        7.539      451.127      151.789        0.113      338.607       11.371      852.157
11/16/2013  16:36:00     -341.182      -96.954      -36.617      172.170      136.009       69.952    29642.543    18498.471     4893.245        9.008        2.652      354.691       84.002        0.056      338.648       11.441      852.170
11/16/2013  16:37:00     -413.314      -53.122      -27.228      196.738      155.307       93.164    38705.932    24120.264     8679.470       12.293        3.575      416.714      109.546        0.069      338.582       11.328      852.213
11/16/2013  16:38:00     -391.261     -121.024      -13.209      185.261      165.838       84.419    34321.809    27502.406     7126.505       11.841        3.448      409.551       96.126        0.055      338.529       11.241      852.202
11/16/2013  16:39:00     -446.277     -148.107      -20.453      240.784      177.752       86.035    57976.724    31595.819     7401.939       15.923        4.849      470.211       90.115        0.037      338.511       11.208      852.190
11/16/2013  16:40:00     -324.604      -79.064        1.990      252.590      177.014       97.454    63801.613    31333.904     9497.226       10.811        5.232      334.094      116.551        0.122      338.520       11.226      852.192
11/16/2013  16:41:00     -303.213      -32.034        1.327      222.315      143.170       82.566    49423.971    20497.766     6817.226        8.484        3.837      304.901       94.011        0.095      338.523       11.230      852.207
11/16/2013  16:42:00     -502.360     -142.605      -35.756      264.068      149.209       83.173    69732.154    22263.457     6917.745       18.643        4.946      522.208       96.073        0.034      338.526       11.235      852.210
11/16/2013  16:43:00     -345.178     -118.630       -6.054      164.427      158.942       78.268    27036.374    25262.708     6125.846        9.583        2.921      364.995       81.742        0.050      338.509       11.207      852.223
11/16/2013  16:44:00     -364.357      -63.831      -28.355      153.141      132.180       64.262    23452.285    17471.654     4129.617        9.133        2.253      369.906       62.222        0.028      338.509       11.206      852.227
11/16/2013  16:45:00     -380.008       14.118      -23.934      153.280      142.994       79.384    23494.860    20447.243     6301.754        9.770        2.512      380.270       82.862        0.047      338.488       11.170      852.238
11/16/2013  16:46:00     -256.746     -151.648      -15.251      196.898      137.752       77.576    38768.731    18975.606     6018.085        7.644        3.188      298.187       98.317        0.109      338.497       11.185      852.248
11/16/2013  16:47:00     -392.785      -57.119      -25.994      187.674      187.303       97.805    35221.633    35082.448     9565.845       11.903        3.993      396.916       84.346        0.045      338.457       11.116      852.252
11/16/2013  16:48:00     -319.075     -203.714       12.264      238.609      154.761      109.945    56934.389    23951.062    12087.996       11.820        4.649      378.561      132.215        0.122      338.443       11.094      852.248
11/16/2013  16:49:00     -351.872     -111.027        3.886      159.732      174.180       88.716    25514.431    30338.540     7870.496        9.993        3.186      368.973       71.278        0.037      338.424       11.063      852.244
11/16/2013  16:50:00     -360.971     -126.514      -10.996      198.250      151.020       90.191    39303.067    22807.154     8134.448       10.832        3.512      382.499       85.530        0.050      338.414       11.045      852.274
11/16/2013  16:51:00     -403.809     -214.661      -21.990      238.993      179.353      107.720    57117.534    32167.655    11603.509       15.524        5.044      457.319      119.431        0.068      338.401       11.025      852.263
11/16/2013  16:52:00     -381.207     -198.246       -5.338      236.743      165.240       92.007    56047.296    27304.349     8465.322       13.821        4.591      429.674      112.407        0.068      338.371       10.973      852.283
11/16/2013  16:53:00     -316.806     -111.741       -0.609      210.791      209.085       97.116    44432.687    43716.444     9431.599       10.520        4.879      335.934      120.423        0.129      338.351       10.941      852.277
11/16/2013  16:54:00     -471.215     -121.257      -13.568      184.836      151.182       93.809    34164.410    22856.108     8800.097       15.136        3.291      486.566       94.816        0.038      338.324       10.894      852.266
11/16/2013  16:55:00     -313.666      -35.438      -10.644      170.214      149.195       80.294    28972.820    22259.287     6447.115        7.871        2.884      315.662       91.779        0.085      338.303       10.862      852.307
11/16/2013  16:56:00     -414.599      -39.062      -10.340      185.860      152.273       79.673    34544.093    23187.092     6347.856       11.879        3.204      416.435       85.284        0.042      338.284       10.828      852.318
11/16/2013  16:57:00     -237.741     -205.101       16.208      232.148      179.557      100.109    53892.802    32240.550    10021.800        9.748        4.808      313.986      124.024        0.156      338.276       10.814      852.315
11/16/2013  16:58:00     -325.072      -53.685       -2.171      239.692      161.513      105.605    57452.104    26086.342    11152.446       10.161        4.735      329.475      132.465        0.162      338.280       10.821      852.312
11/16/2013  16:59:00     -325.995      -40.350      -18.829      147.782      104.855       67.463    21839.582    10994.663     4551.201        7.281        1.869      328.483       67.578        0.042      338.263       10.793      852.311
11/16/2013  17:00:00     -181.774      -56.014       37.694      241.466      158.807       89.695    58305.928    25219.596     8045.281        6.457        4.579      190.208      111.167        0.342      338.219       10.719      852.292
11/16/2013  17:01:00     -351.960      -98.233       -9.744      216.099      163.455       88.788    46698.904    26717.694     7883.358       10.744        4.065      365.411       99.915        0.075      338.210       10.702      852.294
11/16/2013  17:02:00     -438.853      -38.943      -20.021      243.737      160.015      102.538    59407.494    25604.873    10514.046       14.500        4.776      440.577      117.655        0.071      338.217       10.716      852.310
11/16/2013  17:03:00     -294.508      -89.283        0.842      177.631      149.648       76.574    31552.881    22394.579     5863.600        7.725        2.991      307.744       81.049        0.069      338.212       10.706      852.307
11/16/2013  17:04:00     -541.784      -45.431      -44.052      197.571      202.541       96.385    39034.459    41022.881     9289.981       19.342        4.467      543.685       98.248        0.033      338.202       10.689      852.330
11/16/2013  17:05:00     -454.760      -32.019       -1.572      205.061      171.411       81.785    42049.812    29381.788     6688.751       14.296        3.906      455.886       92.682        0.041      338.169       10.633      852.361
11/16/2013  17:06:00     -293.603      -29.490       -8.277      152.220       90.079       57.486    23170.824     8114.203     3304.627        6.086        1.729      295.080       64.080        0.047      338.131       10.570      852.406
11/16/2013  17:07:00     -353.160      -15.621        6.645      211.361      183.543       84.670    44673.409    33687.855     7168.949       10.525        4.277      353.505       86.677        0.060      338.127       10.565      852.409
11/16/2013  17:08:00     -645.856     -176.285      -14.718      295.805      234.433      111.887    87500.663    54958.597    12518.737       30.167        7.749      669.482      134.831        0.041      338.158       10.617      852.411
11/16/2013  17:09:00     -398.033      -89.520      -21.671      234.689      199.932       85.933    55078.776    39972.667     7384.536       13.465        5.122      407.976      106.410        0.068      338.153       10.607      852.465
11/16/2013  17:10:00     -301.511      -18.701       -6.566      261.641      253.837      111.735    68456.244    64433.054    12484.721       11.831        7.269      302.091      133.955        0.197      338.115       10.545      852.477
11/16/2013  17:11:00     -262.308      -81.663        4.511      200.409      182.895       86.399    40163.673    33450.413     7464.739        7.827        4.054      274.726      100.383        0.134      338.118       10.548      852.503
11/16/2013  17:12:00     -439.304     -101.836      -20.511      157.232      159.415       74.779    24721.961    25413.024     5591.907       12.974        2.786      450.953       83.660        0.034      338.110       10.535      852.532
11/16/2013  17:13:00     -359.726      -53.889      -29.208      233.993      180.938       73.713    54752.686    32738.505     5433.610       11.302        4.646      363.740       95.346        0.069      338.105       10.527      852.572
11/16/2013  17:14:00     -183.159      -81.167       -1.062      150.829      102.295       63.416    22749.272    10464.264     4021.534        3.868        1.862      200.337       64.979        0.105      338.088       10.500      852.635
11/16/2013  17:15:00     -240.611     -131.813       -1.252      186.475      129.592       77.803    34772.856    16794.022     6053.378        6.643        2.881      274.351       94.109        0.118      338.082       10.488      852.680
11/16/2013  17:16:00     -506.098      -81.937      -39.935      293.536      189.235      115.404    86163.377    35809.944    13318.040       19.984        6.765      512.688      137.375        0.072      338.079       10.483      852.681
11/16/2013  17:17:00     -357.302     -212.239      -23.656      210.833      168.311       84.179    44450.702    28328.508     7086.051       12.655        3.993      415.584       94.812        0.052      338.083       10.492      852.733
11/16/2013  17:18:00     -178.530     -133.766        4.910      182.384      131.837       84.534    33263.913    17381.066     7145.956        5.378        2.890      223.083      100.681        0.204      338.069       10.468      852.804
11/16/2013  17:19:00     -244.514     -126.930       11.053      182.069      144.308       73.157    33149.273    20824.667     5351.892        6.766        2.966      275.496       85.486        0.096      338.059       10.451      852.881
11/16/2013  17:20:00     -429.133     -254.269      -23.315      232.492      217.145       90.104    54052.311    47151.992     8118.743       17.932        5.466      498.806       95.280        0.036      338.056       10.445      852.903
11/16/2013  17:21:00     -424.037      -35.460      -13.054      168.084      151.441       66.853    28252.230    22934.311     4469.322       11.843        2.783      425.518       74.746        0.031      338.026       10.396      852.950
11/16/2013  17:22:00     -260.753        6.916        1.974      163.537      147.920       70.098    26744.457    21880.421     4913.795        6.078        2.677      260.845       63.948        0.060      337.972       10.305      852.948
11/16/2013  17:23:00     -332.913     -120.553      -25.890      102.950      127.045       55.766    10598.765    16140.376     3109.884        7.794        1.492      354.068       48.898        0.019      337.985       10.325      852.950
11/16/2013  17:24:00     -220.772        2.644        0.182      123.042      106.394       57.116    15139.433    11319.616     3262.258        3.923        1.486      220.787       62.012        0.079      337.926       10.228      852.981
11/16/2013  17:25:00     -119.479      -69.185        6.932      112.372       68.274       41.003    12627.556     4661.318     1681.263        1.904        0.949      138.064       57.745        0.175      337.916       10.212      853.004
11/16/2013  17:26:00     -179.653      -75.840        5.438      147.785       91.661       64.091    21840.300     8401.810     4107.697        3.620        1.717      195.005       74.669        0.147      337.932       10.240      853.032
11/16/2013  17:27:00     -325.979      -39.020      -15.427      152.607      139.908       72.104    23288.993    19574.184     5198.967        7.803        2.403      328.306       52.800        0.026      337.919       10.215      853.043
11/16/2013  17:28:00     -168.003      -45.615        0.067      133.201      107.918       74.150    17742.502    11646.273     5498.190        3.259        1.744      174.086       76.227        0.192      337.902       10.187      853.039
11/16/2013  17:29:00     -409.120      -10.384      -37.331      169.395      127.906       68.119    28694.727    16359.999     4640.173       10.928        2.485      409.252       73.653        0.032      337.934       10.240      853.062
11/16/2013  17:30:00     -308.115     -166.546       -4.892      224.348      135.361       77.009    50331.928    18322.584     5930.349        9.863        3.729      350.246      103.624        0.088      337.920       10.216      853.045
11/16/2013  17:31:00     -332.422      -89.496      -16.205      205.579      142.292       66.176    42262.931    20247.065     4379.228        9.282        3.344      344.258       68.022        0.039      337.897       10.178      853.053
11/16/2013  17:32:00     -353.669      -13.709      -25.728      142.039      110.334       59.509    20175.058    12173.554     3541.319        8.090        1.794      353.935       69.941        0.039      337.888       10.161      853.097
11/16/2013  17:33:00     -214.565        2.113        3.096       83.844       86.706       50.512     7029.866     7517.951     2551.483        3.157        0.855      214.575       44.033        0.042      337.857       10.111      853.136
11/16/2013  17:34:00     -154.519       -9.036      -19.461       75.379       57.030       42.210     5682.029     3252.435     1781.670        1.752        0.536      154.783       37.222        0.058      337.873       10.139      853.164
11/16/2013  17:35:00      -79.739       -5.860      -12.056       67.101       52.496       24.869     4502.562     2755.857      618.481        0.721        0.394       79.954       24.170        0.091      337.866       10.129      853.172
11/16/2013  17:36:00        5.334       29.315       -8.474       36.055       47.448       22.348     1299.967     2251.298      499.446        0.250        0.203       29.797       11.379        0.146      337.813       10.041      853.195
11/16/2013  17:37:00      -31.487       67.757       -4.383       59.166       50.487       28.448     3500.567     2548.917      809.313        0.623        0.343       74.715       33.041        0.196      337.779        9.983      853.222
11/16/2013  17:38:00      -88.762       65.325       -8.615       61.344       44.602       28.505     3763.089     1989.295      812.554        0.939        0.328      110.209       21.058        0.037      337.816       10.046      853.294
11/16/2013  17:39:00      -43.531       14.486       -3.905       69.884       27.925       25.986     4883.754      779.827      675.273        0.423        0.317       45.879       26.558        0.335      337.794       10.008      853.318
11/16/2013  17:40:00     -127.821        0.225       -9.685       65.781       43.638       24.379     4327.092     1904.287      594.360        1.163        0.341      127.821       26.307        0.042      337.787        9.998      853.352
11/16/2013  17:41:00     -149.595      -34.898       -7.110       55.760       37.085       28.193     3109.214     1375.278      794.860        1.446        0.264      153.612       22.032        0.021      337.728        9.898      853.372
11/16/2013  17:42:00      -58.918      -43.201        2.522       66.367       50.799       30.815     4404.550     2580.582      949.568        0.664        0.397       73.060       32.915        0.203      337.704        9.858      853.402
11/16/2013  17:43:00     -113.259      -20.921        4.732      104.953       77.017       48.014    11015.142     5931.565     2305.329        1.627        0.963      115.175       50.255        0.190      337.723        9.888      853.408
11/16/2013  17:44:00     -271.929      -87.506      -17.256      162.984       99.086       54.315    26563.633     9818.009     2950.113        6.061        1.967      285.662       62.387        0.048      337.779        9.980      853.415
11/16/2013  17:45:00     -306.940      -11.985      -31.311      103.182       94.119       39.404    10646.617     8858.368     1552.707        5.819        1.053      307.174       29.628        0.009      337.798       10.011      853.400
11/16/2013  17:46:00     -101.541       55.834      -14.101      122.485       68.645       38.443    15002.622     4712.071     1477.864        1.741        1.060      115.879       50.832        0.192      337.751        9.936      853.413
11/16/2013  17:47:00     -188.044      -67.960       -5.374       66.550       53.716       31.895     4428.882     2885.377     1017.314        2.417        0.417      199.948       27.953        0.020      337.744        9.922      853.429
11/16/2013  17:48:00     -159.185      -52.678      -12.815       75.043       59.765       31.257     5631.519     3571.812      977.020        1.923        0.509      167.675       29.570        0.031      337.727        9.895      853.436
11/16/2013  17:49:00     -170.488       52.309       -7.715      114.392       98.745       54.208    13085.554     9750.561     2938.523        2.881        1.289      178.333       51.737        0.084      337.700        9.847      853.452
11/16/2013  17:50:00     -274.426       86.277      -27.204      105.840       56.593       48.794    11202.181     3202.758     2380.901        5.014        0.839      287.669       49.338        0.029      337.746        9.926      853.466
11/16/2013  17:51:00     -164.819       32.691      -16.068       69.577       83.351       41.303     4841.000     6947.407     1705.930        2.099        0.675      168.030       28.474        0.029      337.716        9.878      853.496
11/16/2013  17:52:00     -425.776      122.263      -37.507      171.249      100.920       59.353    29326.303    10184.807     3522.752       12.033        2.152      442.983       64.342        0.021      337.738        9.912      853.510
11/16/2013  17:53:00     -255.599       63.629      -26.830      116.719       90.826       48.386    13623.307     8249.316     2341.163        4.715        1.211      263.400       56.258        0.046      337.771        9.967      853.534
11/16/2013  17:54:00     -148.018      -54.247       -7.283      103.351       69.285       43.505    10681.333     4800.404     1892.676        2.114        0.869      157.646       42.434        0.072      337.718        9.879      853.541
11/16/2013  17:55:00     -252.534       25.147      -39.343      139.392       98.859       48.560    19430.147     9773.044     2358.114        4.875        1.578      253.783       68.268        0.072      337.695        9.842      853.564
11/16/2013  17:56:00     -178.555       16.884        0.327      105.583       67.520       52.765    11147.778     4558.889     2784.175        2.533        0.925      179.351       61.574        0.118      337.635        9.741      853.568
11/16/2013  17:57:00     -135.660        8.415      -17.349       98.495       82.365       38.072     9701.317     6783.999     1449.479        1.835        0.897      135.921       31.919        0.055      337.633        9.738      853.556
11/16/2013  17:58:00     -307.307       -2.117      -30.932      160.739      113.291       62.894    25837.047    12834.829     3955.652        6.900        2.131      307.315       79.520        0.067      337.654        9.772      853.555
11/16/2013  17:59:00     -259.214      -67.310      -27.444      122.900       96.362       49.193    15104.298     9285.560     2419.954        4.964        1.340      267.810       57.705        0.046      337.620        9.716      853.569
11/16/2013  18:00:00     -352.158      -62.187      -22.682      122.723       88.397       56.856    15060.992     7814.030     3232.640        7.725        1.305      357.607       49.471        0.019      337.627        9.727      853.574
11/16/2013  18:01:00     -256.687      -94.810      -14.760      129.859       78.666       42.494    16863.268     6188.363     1805.756        4.997        1.243      273.637       35.468        0.017      337.596        9.675      853.590
11/16/2013  18:02:00     -217.180      -12.871      -17.540      125.448       91.717       49.745    15737.212     8412.073     2474.590        3.713        1.331      217.561       46.375        0.045      337.575        9.639      853.609
11/16/2013  18:03:00     -390.282     -122.805      -26.260      152.848      124.130       62.957    23362.496    15408.204     3963.647       10.540        2.137      409.147       66.491        0.026      337.615        9.706      853.631
11/16/2013  18:04:00     -396.753      -70.690      -25.375      130.017      116.000       65.210    16904.403    13455.891     4252.408        9.883        1.731      403.001       64.986        0.026      337.611        9.698      853.646
11/16/2013  18:05:00     -499.942      -11.371      -50.489      177.259      142.638       83.512    31420.789    20345.542     6974.306       15.567        2.937      500.071       94.899        0.036      337.617        9.709      853.682
11/16/2013  18:06:00     -253.455      -89.646      -10.672      104.976       98.960       70.895    11019.943     9793.046     5026.033        4.911        1.292      268.842       58.158        0.047      337.600        9.680      853.666
11/16/2013  18:07:00     -211.385      -26.796      -21.545      163.159      127.929       70.582    26620.919    16365.878     4981.804        4.691        2.398      213.076       65.792        0.095      337.607        9.693      853.670
11/16/2013  18:08:00     -307.926     -103.191      -20.025       88.863       89.821       50.302     7896.688     8067.898     2530.305        6.218        0.925      324.756       37.715        0.013      337.610        9.695      853.691
11/16/2013  18:09:00     -237.360      -38.919      -11.383      133.866      133.634       69.906    17920.168    17858.156     4886.816        4.932        2.033      240.529       62.696        0.068      337.581        9.648      853.708
11/16/2013  18:10:00     -291.420       -9.897      -24.941      107.291       84.565       53.949    11511.426     7151.260     2910.510        5.361        1.079      291.588       50.655        0.030      337.567        9.625      853.732
11/16/2013  18:11:00     -257.794      -33.679      -21.088       92.027       78.610       45.694     8468.902     6179.541     2087.937        4.238        0.837      259.984       46.718        0.032      337.563        9.618      853.756
11/16/2013  18:12:00     -161.480      -49.729       12.077      179.172       84.983       56.244    32102.470     7222.120     3163.442        3.558        2.124      168.964       82.039        0.236      337.564        9.620      853.761
11/16/2013  18:13:00      -83.289       -3.055       -7.719       93.215       58.127       41.648     8689.113     3378.746     1734.589        1.040        0.690       83.345       44.472        0.285      337.547        9.595      853.783
11/16/2013  18:14:00     -227.750       76.467      -33.041      117.928       93.252       54.472    13907.113     8695.941     2967.240        4.218        1.279      240.244       37.203        0.024      337.547        9.590      853.785
11/16/2013  18:15:00     -224.991      -99.594       -2.633      113.944      100.580       63.185    12983.230    10116.362     3992.385        4.381        1.355      246.049       58.683        0.057      337.541        9.581      853.820
11/16/2013  18:16:00     -225.274      -52.516       -9.220      122.545       82.872       60.175    15017.359     6867.751     3621.085        3.954        1.275      231.315       65.846        0.081      337.554        9.604      853.832
11/16/2013  18:17:00     -253.398      -11.376      -20.308       92.579       79.158       43.959     8570.888     6265.980     1932.374        4.076        0.838      253.653       43.400        0.029      337.523        9.551      853.846
11/16/2013  18:18:00      -85.339       -5.459        1.350       70.875       45.267       36.793     5023.270     2049.105     1353.754        0.787        0.421       85.514       39.254        0.211      337.525        9.557      853.867
11/16/2013  18:19:00     -159.595      -33.366       -9.781       93.464       82.857       43.350     8735.595     6865.329     1879.221        2.208        0.874      163.046       44.603        0.075      337.442        9.417      853.872
11/16/2013  18:20:00     -142.374       56.122      -26.065       69.366       56.627       42.274     4811.653     3206.669     1787.058        1.695        0.490      153.036       35.029        0.052      337.442        9.417      853.869
11/16/2013  18:21:00     -110.546       -8.328      -15.423       36.287       30.528       24.588     1316.710      931.962      604.590        0.769        0.143      110.859       11.413        0.011      337.445        9.424      853.865
11/16/2013  18:22:00     -264.223     -130.455      -34.843      125.235       71.277       53.904    15683.930     5080.453     2905.602        5.585        1.183      294.673       55.369        0.035      337.447        9.424      853.876
11/16/2013  18:23:00     -255.005      -73.897      -40.706       86.841       76.168       51.639     7541.441     5801.500     2666.619        4.407        0.800      265.497       30.825        0.013      337.453        9.433      853.885
11/16/2013  18:24:00     -177.909      -16.509      -16.830       75.523       73.378       51.351     5703.746     5384.286     2636.889        2.296        0.686      178.673       35.866        0.040      337.445        9.422      853.885
11/16/2013  18:25:00     -210.024      -24.683      -11.515      110.564       95.879       52.541    12224.363     9192.869     2760.601        3.451        1.209      211.469       58.481        0.076      337.433        9.401      853.867
11/16/2013  18:26:00     -179.420       16.548      -26.307      116.833       59.947       51.949    13649.975     3593.694     2698.661        2.655        0.997      180.181       54.671        0.092      337.424        9.385      853.856
11/16/2013  18:27:00     -151.712       60.991        3.878       99.241       65.864       50.361     9848.766     4338.097     2536.200        2.173        0.836      163.513       41.674        0.065      337.378        9.310      853.853
11/16/2013  18:28:00     -199.512       52.965      -22.544       78.401       86.778       46.969     6146.789     7530.467     2206.075        2.950        0.794      206.423       26.074        0.016      337.405        9.354      853.840
11/16/2013  18:29:00      -91.246       69.940       -2.838       73.163       77.734       47.479     5352.777     6042.561     2254.239        1.343        0.682      114.967        7.114        0.004      337.354        9.272      853.822
11/16/2013  18:30:00      -80.795       26.968      -17.749       57.347       62.023       28.598     3288.670     3846.811      817.860        0.776        0.398       85.176       24.622        0.084      337.360        9.281      853.826
11/16/2013  18:31:00     -186.079       70.238      -18.454       90.678      117.515       60.961     8222.465    13809.798     3716.209        3.282        1.287      198.894       57.933        0.085      337.353        9.269      853.824
11/16/2013  18:32:00     -191.940       30.043      -31.885       73.853       67.620       42.124     5454.209     4572.508     1774.392        2.528        0.590      194.277       33.033        0.029      337.389        9.327      853.827
11/16/2013  18:33:00     -157.677      165.067      -33.049      102.690      105.999       67.698    10545.296    11235.701     4583.040        3.978        1.318      228.274       60.707        0.071      337.383        9.318      853.839
11/16/2013  18:34:00     -124.782       91.625       -8.766      102.850       97.599       59.089    10578.102     9525.494     3491.504        2.381        1.180      154.808       43.503        0.079      337.358        9.276      853.816
11/16/2013  18:35:00     -187.953       79.274      -22.022      107.080      111.514       49.979    11466.213    12435.305     2497.942        3.424        1.320      203.987       48.368        0.056      337.375        9.303      853.789
11/16/2013  18:36:00     -270.408       43.142      -31.676      141.542       92.618       61.231    20034.226     8578.032     3749.245        5.417        1.618      273.828       45.179        0.027      337.366        9.288      853.798
11/16/2013  18:37:00     -254.006       28.946      -37.972      101.886      153.002       63.023    10380.823    23409.624     3971.892        5.227        1.888      255.650       70.286        0.076      337.349        9.259      853.796
11/16/2013  18:38:00     -126.221       49.353        1.077      117.206       90.026       53.985    13737.211     8104.659     2914.346        2.156        1.238      135.527       58.843        0.189      337.324        9.219      853.808
11/16/2013  18:39:00     -253.782      -14.629      -30.835      106.613      110.151       55.260    11366.401    12133.316     3053.715        4.606        1.328      254.204       51.715        0.041      337.308        9.191      853.833
11/16/2013  18:40:00     -237.849       88.243      -46.713      107.257       82.429       56.984    11503.989     6794.606     3247.193        4.404        1.077      253.690       51.295        0.041      337.323        9.217      853.833
11/16/2013  18:41:00     -379.011       32.036      -45.645      118.447      122.687       57.478    14029.603    15052.051     3303.760        8.957        1.619      380.362       51.606        0.018      337.321        9.212      853.829
11/16/2013  18:42:00     -325.906      -52.834      -35.542      163.402      153.494       76.807    26700.315    23560.522     5899.346        8.320        2.808      330.161       59.313        0.032      337.312        9.198      853.832
11/16/2013  18:43:00     -250.178      -51.716      -41.383      123.910       85.869       55.354    15353.650     7373.454     3064.040        4.638        1.290      255.468       37.332        0.021      337.302        9.181      853.841
11/16/2013  18:44:00     -272.994       -1.327      -47.839      128.857      127.706       71.542    16604.176    16308.930     5118.203        5.742        1.902      272.997       70.897        0.067      337.329        9.226      853.812
11/16/2013  18:45:00     -231.294      -36.942      -42.181      112.828       90.791       58.360    12730.191     8242.987     3405.943        4.051        1.219      234.225       41.354        0.031      337.323        9.216      853.809
11/16/2013  18:46:00     -237.628      -65.510      -45.529       95.672      106.318       65.346     9153.208    11303.479     4270.138        4.377        1.236      246.493       36.072        0.021      337.285        9.154      853.815
11/16/2013  18:47:00     -252.716      -12.057      -31.840       93.480      101.669       48.739     8738.572    10336.498     2375.498        4.323        1.073      253.004       33.750        0.018      337.287        9.156      853.795
11/16/2013  18:48:00     -177.257       20.703      -21.800       75.762      113.690       52.297     5739.942    12925.393     2735.004        2.686        1.070      178.462       43.335        0.059      337.271        9.132      853.784
11/16/2013  18:49:00     -160.076      -11.238      -20.381      139.589       95.557       77.458    19485.075     9131.102     5999.717        3.038        1.731      160.470       72.529        0.204      337.253        9.099      853.772
11/16/2013  18:50:00     -203.005      -49.593      -18.391      101.199       92.698       58.824    10241.146     8592.990     3460.291        3.315        1.115      208.975       36.938        0.031      337.247        9.091      853.782
11/16/2013  18:51:00     -194.155       -9.704      -22.602      103.659      139.180       63.000    10745.109    19371.171     3969.029        3.619        1.704      194.397       44.997        0.054      337.231        9.064      853.799
11/16/2013  18:52:00     -282.671      -40.863      -19.222      141.353      186.440       67.245    19980.687    34759.733     4521.909        7.059        2.963      285.610       58.267        0.042      337.196        9.004      853.823
11/16/2013  18:53:00     -222.173      -22.616      -27.207      100.923       92.494       65.926    10185.355     8555.161     4346.271        3.684        1.154      223.321       44.503        0.040      337.223        9.049      853.840
11/16/2013  18:54:00     -164.003      -10.571      -12.237      116.900       72.214       60.221    13665.659     5214.824     3626.592        2.483        1.125      164.344       60.480        0.135      337.213        9.035      853.859
11/16/2013  18:55:00     -200.128       11.661      -37.782      112.913      117.281       58.270    12749.361    13754.749     3395.434        3.575        1.495      200.468       24.879        0.015      337.272        9.133      853.859
11/16/2013  18:56:00     -159.714        7.642       -2.043      127.340      109.055       68.744    16215.440    11893.074     4725.670        2.920        1.642      159.897       67.925        0.180      337.270        9.129      853.842
11/16/2013  18:57:00     -151.542       17.802      -20.896      111.264       91.488       71.493    12379.709     8370.030     5111.194        2.478        1.293      152.584       36.080        0.056      337.272        9.133      853.842
11/16/2013  18:58:00     -232.197       66.174      -29.608      107.746      119.939       65.165    11609.184    14385.478     4246.521        4.470        1.512      241.443       50.888        0.044      337.293        9.165      853.825
11/16/2013  18:59:00     -220.204       54.980      -18.018      123.273       91.854       47.035    15196.304     8437.098     2212.253        3.884        1.292      226.964       55.018        0.059      337.292        9.166      853.833
11/16/2013  19:00:00     -236.557      115.711      -40.484      130.816      143.878       74.148    17112.752    20700.943     5497.865        5.714        2.166      263.340       85.797        0.106      337.284        9.153      853.870
11/16/2013  19:01:00     -169.838       25.737      -30.953      119.456       88.862       67.485    14269.751     7896.541     4554.259        2.859        1.336      171.777       70.047        0.166      337.285        9.155      853.914
11/16/2013  19:02:00     -148.550       74.966      -22.648      115.327      104.272       65.892    13300.223    10872.671     4341.692        2.835        1.426      166.394       57.988        0.121      337.251        9.097      853.944
11/16/2013  19:03:00     -138.212       57.802      -18.020      100.703      108.077       43.896    10141.076    11680.643     1926.831        2.325        1.187      149.811       19.780        0.017      337.260        9.114      853.970
11/16/2013  19:04:00     -132.945      124.953      -16.346       96.928      107.624       59.738     9395.054    11582.842     3568.654        2.905        1.227      182.449       68.464        0.141      337.293        9.168      853.980
11/16/2013  19:05:00     -156.635      139.748      -34.310      105.019      130.666       55.990    11028.948    17073.654     3134.925        3.823        1.562      209.914       54.548        0.068      337.338        9.243      853.970
11/16/2013  19:06:00     -125.970      192.158      -38.060      123.558       88.155       52.553    15266.489     7771.313     2761.779        4.002        1.290      229.767       59.931        0.068      337.379        9.311      853.985
11/16/2013  19:07:00     -133.615      197.283      -20.286       72.601       99.914       55.291     5270.928     9982.784     3057.129        3.774        0.916      238.273       42.911        0.032      337.303        9.182      854.014
11/16/2013  19:08:00     -175.632      218.519      -32.940      104.094      130.240       63.844    10835.630    16962.407     4075.996        5.577        1.594      280.352       61.949        0.049      337.316        9.205      854.029
11/16/2013  19:09:00     -176.423       93.058      -18.375      106.986       82.526       46.718    11446.090     6810.488     2182.544        3.028        1.022      199.462       44.386        0.050      337.295        9.171      854.033
11/16/2013  19:10:00     -154.540       79.944      -14.910      107.133       68.645       40.159    11477.497     4712.191     1612.753        2.415        0.890      173.993       31.366        0.032      337.290        9.164      854.069
11/16/2013  19:11:00      -84.501       93.398      -19.121       57.213       76.994       40.142     3273.279     5928.053     1611.359        1.352        0.541      125.951       30.145        0.057      337.277        9.143      854.123
11/16/2013  19:12:00     -186.272      185.271      -19.479      111.513      100.509       59.163    12435.061    10102.139     3500.311        4.771        1.302      262.721       59.539        0.051      337.280        9.145      854.143
11/16/2013  19:13:00     -214.933      228.064      -52.142      106.235      103.265       54.448    11285.829    10663.569     2964.638        6.292        1.246      313.384       60.891        0.038      337.310        9.195      854.133
11/16/2013  19:14:00     -133.450      174.966      -32.914       55.129       76.838       42.679     3039.172     5904.045     1821.522        3.013        0.538      220.050       37.561        0.029      337.307        9.188      854.123
11/16/2013  19:15:00     -156.484      149.273      -31.974       93.383       57.457       39.694     8720.304     3301.260     1575.587        3.069        0.680      216.263       41.627        0.037      337.306        9.189      854.125
11/16/2013  19:16:00     -207.460      136.896      -37.279      124.344       96.963       51.345    15461.465     9401.742     2636.354        4.533        1.375      248.556       54.879        0.049      337.351        9.264      854.150
11/16/2013  19:17:00     -147.152      181.721      -27.422       81.890       69.116       44.137     6705.985     4777.030     1948.070        3.443        0.672      233.830       34.675        0.022      337.327        9.223      854.166
11/16/2013  19:18:00     -128.221      160.380      -19.813       75.128       91.011       45.940     5644.276     8283.031     2110.506        2.929        0.802      205.334       47.307        0.053      337.275        9.137      854.154
11/16/2013  19:19:00     -136.681       63.605      -11.232       84.878       62.726       39.197     7204.352     3934.541     1536.401        1.776        0.634      150.756       32.181        0.046      337.287        9.159      854.191
11/16/2013  19:20:00     -120.468       57.086       -8.504       84.060      120.806       43.224     7066.134    14594.201     1868.280        2.068        1.176      133.309       41.945        0.099      337.272        9.133      854.201
11/16/2013  19:21:00     -178.919      198.678      -43.418       91.573      103.336       54.615     8385.704    10678.316     2982.750        4.770        1.102      267.366       58.332        0.048      337.313        9.201      854.184
11/16/2013  19:22:00     -175.310      257.433      -29.725       63.527      112.046       54.736     4035.647    12554.325     2996.040        5.873        0.979      311.457       37.894        0.015      337.322        9.214      854.177
11/16/2013  19:23:00     -119.339       83.640      -11.277       53.751       93.746       42.948     2889.150     8788.268     1844.517        1.744        0.676      145.731       39.517        0.074      337.303        9.185      854.197
11/16/2013  19:24:00      -67.863      118.244       -0.748       51.430       47.197       39.023     2645.052     2227.569     1522.758        1.249        0.320      136.334       33.031        0.059      337.279        9.145      854.188
11/16/2013  19:25:00     -129.952       19.708      -13.315      103.322       83.874       41.968    10675.354     7034.788     1761.329        1.846        0.974      131.438       49.904        0.144      337.327        9.224      854.193
11/16/2013  19:26:00     -227.500       16.029      -29.220      114.749       68.101       47.998    13167.417     4637.688     2303.813        3.648        1.005      228.064       51.327        0.051      337.351        9.264      854.184
11/16/2013  19:27:00     -248.786      184.109      -46.424      103.405       99.947       56.217    10692.672     9989.449     3160.302        6.089        1.192      309.501       60.892        0.039      337.359        9.277      854.185
11/16/2013  19:28:00     -209.601      128.623      -36.695       75.780      108.905       54.430     5742.543    11860.392     2962.584        4.119        1.028      245.920       61.026        0.062      337.324        9.220      854.186
11/16/2013  19:29:00     -182.182      141.612      -32.671       71.313       93.936       45.206     5085.560     8823.971     2043.558        3.513        0.798      230.747       37.924        0.027      337.315        9.202      854.182
11/16/2013  19:30:00     -175.276       94.561      -31.181       93.579       89.440       42.581     8757.037     7999.457     1813.146        2.960        0.928      199.157       41.440        0.043      337.334        9.236      854.188
11/16/2013  19:31:00     -257.412      142.512      -38.447      103.406       89.865       61.048    10692.886     8075.730     3726.827        5.527        1.125      294.229       51.121        0.030      337.369        9.294      854.208
11/16/2013  19:32:00     -211.062      134.000      -35.042      108.193      125.727       60.203    11705.656    15807.400     3624.414        4.743        1.557      250.006       42.662        0.029      337.321        9.213      854.170
11/16/2013  19:33:00     -173.968      182.794      -10.980      135.415      155.105       74.172    18337.356    24057.478     5501.514        5.584        2.395      252.346       69.773        0.076      337.237        9.074      854.130
11/16/2013  19:34:00     -192.921      142.565      -23.705       96.230      113.034       61.156     9260.175    12776.668     3740.011        4.194        1.289      239.882       49.917        0.043      337.273        9.133      854.119
11/16/2013  19:35:00     -218.496       71.689      -25.055      143.761       88.447       52.208    20667.366     7822.900     2725.666        4.236        1.561      229.956       58.874        0.066      337.280        9.144      854.122
11/16/2013  19:36:00     -208.107      129.875      -48.095       93.079      136.039       63.418     8663.631    18506.674     4021.844        4.683        1.560      245.308       56.531        0.053      337.220        9.046      854.120
11/16/2013  19:37:00     -141.619       13.947      -19.158       90.511      108.751       49.062     8192.182    11826.738     2407.054        2.152        1.121      142.304       27.400        0.037      337.207        9.024      854.102
11/16/2013  19:38:00     -300.762       43.905      -38.396      169.718      132.446       70.364    28804.268    17541.972     4951.106        7.257        2.565      303.949       65.746        0.047      337.217        9.039      854.132
11/16/2013  19:39:00     -278.213      -51.734      -49.615      118.984      134.481       71.262    14157.212    18085.035     5078.335        5.992        1.866      282.982       55.174        0.038      337.185        8.986      854.116
11/16/2013  19:40:00     -270.608      -51.108      -36.768      102.332      129.392       66.005    10471.900    16742.161     4356.646        5.438        1.579      275.392       31.848        0.013      337.107        8.854      854.168
11/16/2013  19:41:00     -307.475     -109.361      -36.132      111.661      121.715       57.956    12468.098    14814.637     3358.888        6.922        1.532      326.345       38.154        0.014      337.061        8.778      854.148
11/16/2013  19:42:00     -363.674      -52.025      -53.130      121.964      110.074       49.956    14875.155    12116.377     2495.568        8.363        1.474      367.377       15.170        0.002      337.054        8.765      854.182
11/16/2013  19:43:00     -277.206       36.514      -33.786      118.898      144.529       65.593    14136.848    20888.606     4302.503        5.931        1.966      279.600       56.257        0.040      337.142        8.913      854.191
11/16/2013  19:44:00     -234.878       51.493      -25.903      112.887      100.570       64.820    12743.455    10114.408     4201.574        4.277        1.353      240.456       48.377        0.040      337.151        8.929      854.206
11/16/2013  19:45:00     -157.154      -17.048       -4.842       98.327       84.363       54.240     9668.121     7117.072     2941.975        2.237        0.986      158.076       45.210        0.082      337.111        8.863      854.238
11/16/2013  19:46:00     -362.611      -15.651      -26.438      152.569      115.613       58.826    23277.160    13366.446     3460.445        8.626        2.005      362.949       65.803        0.033      337.101        8.844      854.310
11/16/2013  19:47:00     -327.891     -117.761      -25.244      121.399      112.499       65.452    14737.803    12656.023     4283.978        7.684        1.584      348.396       56.749        0.027      337.073        8.796      854.345
11/16/2013  19:48:00     -203.992      -79.912        2.875      145.752       82.202       62.113    21243.779     6757.186     3858.021        3.993        1.593      219.086       75.570        0.119      337.090        8.826      854.385
11/16/2013  19:49:00     -253.093     -201.184        4.841      175.525      108.982       73.576    30809.167    11877.154     5413.451        7.632        2.405      323.313       77.784        0.058      337.225        9.052      854.408
11/16/2013  19:50:00     -413.009     -185.779      -18.985      121.640       82.729       49.897    14796.247     6844.149     2489.730       11.479        1.207      452.869       48.883        0.012      337.254        9.100      854.478
11/16/2013  19:51:00     -202.033     -120.266      -16.934      126.087       87.171       45.402    15897.943     7598.709     2061.335        4.056        1.278      235.119       43.480        0.034      337.267        9.123      854.512
11/16/2013  19:52:00     -380.039     -257.835      -17.672      168.340      137.899       77.111    28338.197    19016.054     5946.160       13.225        2.665      459.248       85.895        0.035      337.293        9.167      854.514
11/16/2013  19:53:00     -337.473     -230.652        0.611      210.736      142.775       95.020    44409.567    20384.594     9028.775       12.044        3.691      408.764      111.633        0.075      337.252        9.099      854.543
11/16/2013  19:54:00     -373.364     -139.804       -3.155      136.368      126.196       73.637    18596.294    15925.452     5422.342        9.944        1.997      398.680       74.463        0.035      337.263        9.116      854.592
11/16/2013  19:55:00     -328.679      -56.986      -17.705      161.849       76.548       54.006    26195.173     5859.600     2916.628        7.327        1.749      333.582       71.524        0.046      337.315        9.203      854.581
11/16/2013  19:56:00     -268.643      -38.068       -3.052      131.793      115.540       68.131    17369.444    13349.386     4641.797        5.449        1.768      271.327       68.196        0.063      337.263        9.118      854.549
11/16/2013  19:57:00     -280.397     -128.961       -5.850      152.269      109.710       69.787    23185.802    12036.194     4870.294        6.768        2.005      308.631       70.393        0.052      337.380        9.312      854.564
11/16/2013  19:58:00     -331.473     -166.637       -8.752      135.799      119.838       62.888    18441.344    14361.051     3954.906        8.723        1.838      371.001       64.945        0.031      337.416        9.372      854.561
11/16/2013  19:59:00     -219.791      -89.472       -6.852      113.264       89.605       56.337    12828.841     8029.037     3173.851        4.019        1.202      237.305       55.701        0.055      337.441        9.415      854.544
11/16/2013  20:00:00     -221.678      -46.838       -0.280       90.236       70.382       37.553     8142.458     4953.603     1410.221        3.292        0.725      226.572       36.080        0.025      337.298        9.176      854.514
11/16/2013  20:01:00     -292.364      -84.984       -4.870      114.054       69.986       50.671    13008.383     4898.086     2567.564        5.659        1.024      304.466       56.260        0.034      337.343        9.251      854.512
11/16/2013  20:02:00     -186.017      -54.906        2.194      106.364      100.765       42.316    11313.244    10153.658     1790.613        3.043        1.163      193.950       53.075        0.075      337.276        9.139      854.527
11/16/2013  20:03:00     -230.010      -83.693        8.943      138.416       98.562       60.459    19158.859     9714.452     3655.288        4.625        1.626      244.763       70.913        0.084      337.279        9.144      854.544
11/16/2013  20:04:00     -248.841      -57.924        2.608      153.465      114.420       70.735    23551.545    13092.013     5003.415        5.346        2.082      255.494       74.084        0.084      337.276        9.139      854.548
11/16/2013  20:05:00     -323.450      -90.209       -9.992      157.216      117.129       65.476    24716.741    13719.257     4287.137        7.778        2.136      335.794       61.914        0.034      337.332        9.232      854.537
11/16/2013  20:06:00     -324.000      -98.303      -14.959      114.314       98.051       53.463    13067.657     9614.026     2858.324        7.020        1.277      338.584       53.808        0.025      337.350        9.261      854.524
11/16/2013  20:07:00     -344.521     -209.091      -14.784      198.096      139.782       83.883    39241.978    19538.991     7036.337       11.421        3.291      403.006       98.512        0.060      337.481        9.480      854.484
11/16/2013  20:08:00     -302.430     -208.834      -16.371      154.942      150.124       73.171    24006.870    22537.307     5353.947        9.361        2.595      367.526       83.244        0.051      337.542        9.583      854.461
11/16/2013  20:09:00     -337.962     -221.164        0.726      153.678      125.201       69.059    23616.805    15675.362     4769.081       10.359        2.203      403.896       82.328        0.042      337.624        9.721      854.448
11/16/2013  20:10:00     -335.211     -185.947      -20.200       99.957      112.524       60.031     9991.441    12661.640     3603.717        8.680        1.313      383.331       48.194        0.016      337.559        9.611      854.451
11/16/2013  20:11:00     -193.454      -96.927       -7.297       87.383       74.250       41.749     7635.767     5513.076     1742.975        3.088        0.745      216.378       37.438        0.030      337.488        9.492      854.480
11/16/2013  20:12:00     -197.003     -163.027        8.266      135.356      141.049       69.213    18321.154    19894.723     4790.507        5.422        2.150      255.711       85.450        0.112      337.512        9.532      854.489
11/16/2013  20:13:00     -198.972      -93.784        2.825      132.505      100.642       63.286    17557.565    10128.887     4005.062        4.004        1.585      219.967       60.815        0.076      337.513        9.534      854.512
11/16/2013  20:14:00     -189.256     -133.749        7.251      120.798       99.339       72.301    14592.265     9868.278     5227.391        4.172        1.484      231.747       71.257        0.095      337.503        9.517      854.539
11/16/2013  20:15:00     -262.113      -15.261       -8.608       92.595      135.166       61.517     8573.811    18269.814     3784.289        4.981        1.531      262.557       49.603        0.036      337.489        9.495      854.562
11/16/2013  20:16:00      -56.758       46.711       11.951       79.878       49.215       43.558     6380.544     2422.097     1897.323        0.812        0.535       73.508       46.111        0.394      337.332        9.234      854.602
11/16/2013  20:17:00      -91.336       25.886       -6.309       36.094       23.848       21.077     1302.770      568.749      444.261        0.568        0.116       94.933       18.509        0.038      337.323        9.221      854.634
11/16/2013  20:18:00      -47.027      -42.212        0.635       57.479       64.894       31.528     3303.841     4211.263      994.019        0.625        0.425       63.193       29.666        0.220      337.315        9.208      854.656
11/16/2013  20:19:00     -101.566      -65.731       -6.081       82.785       80.293       39.029     6853.418     6446.895     1523.225        1.475        0.741      120.980       43.346        0.128      337.412        9.367      854.658
11/16/2013  20:20:00      -67.410      -84.499        5.797       40.933       53.897       28.732     1675.500     2904.875      825.541        0.856        0.270      108.093       23.045        0.045      337.431        9.401      854.669
11/16/2013  20:21:00      -43.809      -16.536       19.460       77.249       63.604       30.059     5967.354     4045.446      903.560        0.674        0.546       46.826       26.318        0.316      337.425        9.391      854.708
11/16/2013  20:22:00       69.308       32.696        5.473       34.516       52.880       27.091     1191.336     2796.246      733.919        0.531        0.236       76.633       20.686        0.073      337.268        9.129      854.718
11/16/2013  20:23:00       49.664       74.819       76.154       50.523       43.806       38.261     2552.565     1918.923     1463.871        0.990        0.297       89.802       32.691        0.133      337.230        9.063      854.725
11/16/2013  20:24:00       73.973       45.746       47.339       75.709       72.890       45.589     5731.920     5312.951     2078.318        1.146        0.656       86.975       30.642        0.124      337.318        9.210      854.747
11/16/2013  20:25:00       46.708       21.482       78.906       70.076       71.306       41.119     4910.600     5084.569     1690.774        1.028        0.584       51.412       39.333        0.585      337.223        9.052      854.764
11/16/2013  20:26:00       63.277        8.998       78.468       72.302      121.929       77.231     5227.515    14866.577     5964.665        1.815        1.303       63.913       90.711        2.014      337.234        9.070      854.793
11/16/2013  20:27:00      198.697      100.999       55.170      119.225       90.690       77.219    14214.493     8224.620     5962.757        4.056        1.420      222.893       73.388        0.108      336.906        8.519      854.809
11/16/2013  20:28:00      164.288       92.209       38.045       71.379       56.816       54.470     5094.963     3228.067     2966.981        2.411        0.565      188.396       40.164        0.045      336.592        7.997      854.830
11/16/2013  20:29:00      159.734      102.444       61.109       74.582       62.775       68.371     5562.432     3940.696     4674.580        2.696        0.709      189.762       39.797        0.044      336.543        7.913      854.851
11/16/2013  20:30:00       92.103       63.270       27.634       76.626       55.060       52.353     5871.528     3031.566     2740.798        1.244        0.582      111.741       33.792        0.091      336.463        7.779      854.871
11/16/2013  20:31:00      171.872       83.615       25.145       52.280       36.909       36.248     2733.225     1362.257     1313.948        2.129        0.270      191.132       29.043        0.023      336.401        7.676      854.876
11/16/2013  20:32:00      125.822       69.727       34.237       50.181       34.054       41.765     2518.159     1159.664     1744.347        1.364        0.271      143.850       34.558        0.058      336.404        7.681      854.879
11/16/2013  20:33:00       99.322      104.482       71.840       58.415       37.663       53.974     3412.318     1418.495     2913.182        1.684        0.387      144.158       45.833        0.101      336.383        7.645      854.884
11/16/2013  20:34:00      109.235      118.140       79.928       74.630       52.695       52.851     5569.621     2776.766     2793.269        2.171        0.557      160.902       46.214        0.082      336.331        7.560      854.891
11/16/2013  20:35:00      215.263       93.790       47.039       91.807       81.290       61.437     8428.505     6608.002     3774.507        3.808        0.941      234.808       50.465        0.046      336.281        7.475      854.885
11/16/2013  20:36:00      173.466      126.450       62.085       84.880       59.755       76.735     7204.597     3570.659     5888.237        3.330        0.833      214.663       68.506        0.102      336.292        7.492      854.878
11/16/2013  20:37:00      187.378      108.506       45.455       90.016       72.283       76.062     8102.848     5224.860     5785.423        3.403        0.956      216.527       59.116        0.075      336.223        7.377      854.861
11/16/2013  20:38:00      181.298      100.866       77.411       94.400       77.622       72.643     8911.424     6025.234     5276.951        3.462        1.011      207.468       67.419        0.106      336.196        7.333      854.866
11/16/2013  20:39:00      220.052       89.046       48.008      119.614       76.738       68.640    14307.410     5888.788     4711.440        4.178        1.245      237.386       71.889        0.092      336.165        7.280      854.870
11/16/2013  20:40:00       84.716      101.715      110.759       92.095       68.256       49.204     8481.538     4658.945     2421.057        2.267        0.778      132.373       51.657        0.152      336.136        7.233      854.873
11/16/2013  20:41:00      152.239       63.871       55.236       93.810       61.517       57.715     8800.238     3784.387     3331.067        2.311        0.796      165.095       47.259        0.082      336.165        7.281      854.877
11/16/2013  20:42:00       38.160        8.496       67.356       61.882       63.522       45.243     3829.374     4035.039     2046.934        0.799        0.496       39.094       29.830        0.582      336.206        7.352      854.888
11/16/2013  20:43:00      127.388      -22.716       51.537       85.769       65.086       45.521     7356.318     4236.157     2072.192        1.653        0.683      129.397       45.767        0.125      336.219        7.371      854.951
11/16/2013  20:44:00        0.649        5.995       29.218       68.053       54.884       33.240     4631.242     3012.221     1104.901        0.482        0.437        6.030       29.844       24.492      336.156        7.267      854.989
11/16/2013  20:45:00        3.269       66.662      -17.767       55.434       66.159       29.757     3072.880     4377.026      885.466        0.655        0.417       66.742       26.176        0.154      336.197        7.337      854.974
11/16/2013  20:46:00       27.525       -9.888       25.712       34.903       39.351       27.634     1218.232     1548.538      763.638        0.252        0.177       29.247       24.093        0.679      336.159        7.274      854.966
11/16/2013  20:47:00       43.718       19.352       16.970       26.786       24.292       24.578      717.465      590.116      604.054        0.224        0.096       47.810       11.135        0.054      336.114        7.199      855.009
11/16/2013  20:48:00        6.393       12.805       -3.902       23.187       16.702       12.288      537.616      278.945      151.000        0.059        0.048       14.313       12.299        0.738      336.071        7.125      855.048
11/16/2013  20:49:00      -42.702       45.411       -7.905       26.652       22.205       20.433      710.326      493.047      417.513        0.278        0.081       62.334       17.992        0.083      336.185        7.317      855.062
11/16/2013  20:50:00        3.981       15.899       -1.151       21.194       19.418        9.914      449.187      377.066       98.288        0.060        0.046       16.390        7.308        0.199      336.272        7.464      855.090
11/16/2013  20:51:00      -75.239      -19.977      -11.248       33.847       21.554       17.000     1145.641      464.590      288.993        0.404        0.095       77.846       20.270        0.068      336.314        7.532      855.146
11/16/2013  20:52:00     -118.807      -31.385      -16.326       17.346       27.349       13.100      300.881      747.989      171.617        0.829        0.061      122.882        7.393        0.004      336.159        7.273      855.191
11/16/2013  20:53:00     -134.317        5.212      -17.233       36.665       41.848       26.057     1344.287     1751.228      678.979        1.107        0.189      134.418       21.823        0.026      336.102        7.178      855.230
11/16/2013  20:54:00     -127.709       28.686      -10.652       45.407       42.699       25.432     2061.818     1823.205      646.773        1.089        0.227      130.891       23.325        0.032      336.238        7.405      855.265
11/16/2013  20:55:00      -63.295      -43.260      -11.818       75.149       32.349       27.579     5647.366     1046.479      760.627        0.673        0.373       76.666       32.040        0.175      336.290        7.490      855.269
11/16/2013  20:56:00      -27.298       31.283       -0.326       28.704       61.206       22.383      823.897     3746.210      501.016        0.340        0.254       41.519       19.920        0.230      336.293        7.497      855.307
11/16/2013  20:57:00       64.118       12.971       19.706       62.110       54.287       35.684     3857.667     2947.058     1273.324        0.637        0.404       65.417       20.029        0.094      336.349        7.592      855.319
11/16/2013  20:58:00       76.224       43.742       38.531       46.412       31.678       25.637     2154.066     1003.497      657.231        0.651        0.191       87.883       20.807        0.056      336.332        7.563      855.316
11/16/2013  20:59:00       98.487       65.811       16.123       28.826       24.778       26.901      830.922      613.973      723.688        0.823        0.108      118.451       12.961        0.012      336.390        7.659      855.332
11/16/2013  21:00:00       16.849       50.730        2.120       45.434       39.175       26.788     2064.257     1534.686      717.584        0.359        0.216       53.455       23.447        0.192      336.383        7.648      855.368
11/16/2013  21:01:00      -47.022      110.525      -14.987       32.699       35.800       23.263     1069.199     1281.622      541.153        0.877        0.145      120.112       20.357        0.029      336.411        7.694      855.423
11/16/2013  21:02:00      -93.592       99.983      -20.221       59.665       37.738       24.490     3559.955     1424.150      599.747        1.237        0.279      136.952       25.038        0.033      336.499        7.843      855.450
11/16/2013  21:03:00      -13.096       77.716       -6.801       50.577       38.926       25.726     2558.052     1515.233      661.830        0.550        0.237       78.811       23.917        0.092      336.422        7.712      855.453
11/16/2013  21:04:00       63.270       31.908        4.430       42.005       24.701       21.670     1764.381      610.144      469.583        0.394        0.142       70.860       18.898        0.071      336.269        7.457      855.450
11/16/2013  21:05:00       63.786       21.504        9.680       42.765       25.415       27.715     1828.812      645.940      768.148        0.393        0.162       67.313        8.587        0.016      336.215        7.367      855.476
11/16/2013  21:06:00       45.180       24.480        5.168       40.082       45.811       28.405     1606.594     2098.624      806.864        0.359        0.226       51.385       13.809        0.072      336.336        7.571      855.502
11/16/2013  21:07:00       29.788       51.455       54.132       42.285       30.685       32.761     1788.012      941.597     1073.316        0.513        0.190       59.455       25.363        0.182      336.245        7.417      855.498
11/16/2013  21:08:00        6.807      112.221      102.317       30.946       44.071       27.803      957.631     1942.211      773.014        1.339        0.184      112.427       20.798        0.034      336.280        7.476      855.498
11/16/2013  21:09:00       43.541       83.083       84.279       64.600       72.884       42.723     4173.146     5312.083     1825.273        1.360        0.566       93.800       43.812        0.218      336.323        7.547      855.500
11/16/2013  21:10:00      109.557       62.381       72.360       98.439       82.240       61.406     9690.239     6763.391     3770.686        2.067        1.011      126.072       32.439        0.066      336.243        7.413      855.497
11/16/2013  21:11:00      124.538       63.932       28.721       62.776       60.653       51.362     3940.800     3678.779     2638.026        1.534        0.513      139.989       36.559        0.068      336.181        7.311      855.504
11/16/2013  21:12:00      104.318       94.637       66.468       64.094       53.632       60.594     4107.994     2876.411     3671.579        1.745        0.533      140.849       34.278        0.059      336.160        7.273      855.512
11/16/2013  21:13:00      147.660      131.041        5.210       43.815       39.949       39.243     1919.765     1595.937     1540.009        2.203        0.253      197.422        9.763        0.002      336.158        7.269      855.545
11/16/2013  21:14:00      150.015      100.938       31.226       52.433       29.666       41.634     2749.216      880.047     1733.376        1.951        0.268      180.812       21.254        0.014      336.165        7.283      855.555
11/16/2013  21:15:00      243.244      135.405       16.288       42.303       40.273       41.695     1789.576     1621.953     1738.495        4.146        0.258      278.392       22.720        0.007      336.206        7.347      855.541
11/16/2013  21:16:00      219.413      142.771        2.386       88.644       55.135       53.384     7857.841     3039.896     2849.897        4.114        0.687      261.774       30.279        0.013      336.526        7.883      855.534
11/16/2013  21:17:00      108.639       94.308        7.188       61.966       48.669       43.434     3839.748     2368.649     1886.554        1.442        0.405      143.862       33.133        0.053      336.407        7.687      855.512
11/16/2013  21:18:00      142.619      100.518       36.419       65.678       51.779       40.592     4313.602     2681.061     1647.731        2.020        0.432      174.482       29.888        0.029      336.282        7.476      855.531
11/16/2013  21:19:00       83.172       52.903       41.461       52.218       38.877       29.082     2726.688     1511.431      845.753        0.826        0.254       98.572       26.511        0.072      336.198        7.338      855.567
11/16/2013  21:20:00       25.113      -30.195        0.192       44.178       28.727       24.374     1951.718      825.240      594.073        0.246        0.169       39.273       21.204        0.292      336.176        7.301      855.622
11/16/2013  21:21:00     -103.141      -21.894       -5.610       58.888       25.572       20.705     3467.804      653.952      428.698        0.785        0.228      105.440       26.528        0.063      336.166        7.285      855.683
11/16/2013  21:22:00     -124.929       18.462       -6.585       48.370       35.405       24.503     2339.610     1253.491      600.418        1.009        0.210      126.285       21.059        0.028      336.168        7.288      855.718
11/16/2013  21:23:00      -67.960       62.242      -16.044       23.477       25.345       13.876      551.147      642.350      192.533        0.507        0.069       92.156        6.571        0.005      336.198        7.337      855.731
11/16/2013  21:24:00      -19.362       32.796        0.382       17.706       26.226       15.279      313.496      687.795      233.460        0.134        0.062       38.085       10.731        0.079      336.242        7.413      855.736
11/16/2013  21:25:00      -14.527       45.323        2.575       20.266       28.949       13.339      410.691      838.072      177.931        0.185        0.071       47.594       15.203        0.102      336.253        7.431      855.738
11/16/2013  21:26:00       24.551       69.992      -12.020       20.236       24.914       14.003      409.490      620.709      196.086        0.344        0.061       74.174       12.173        0.027      336.167        7.287      855.748
11/16/2013  21:27:00       27.996       67.700       -9.366       27.962       35.472       21.339      781.893     1258.263      455.349        0.397        0.125       73.260       21.489        0.086      336.051        7.092      855.760
11/16/2013  21:28:00       25.287      116.146      -18.851       26.407       50.651       24.932      697.340     2565.512      621.598        0.918        0.194      118.867       28.935        0.059      336.015        7.034      855.774
11/16/2013  21:29:00        4.033      131.858      -12.016       29.272       54.952       28.092      856.849     3019.685      789.136        1.111        0.233      131.920       29.752        0.051      335.996        7.001      855.801
11/16/2013  21:30:00      -15.901      154.005      -25.101       33.546       42.314       18.527     1125.309     1790.507      343.265        1.393        0.163      154.824       12.904        0.007      336.223        7.380      855.827
11/16/2013  21:31:00      -68.193      113.422      -14.063       51.903       93.089       23.127     2693.873     8665.519      534.841        1.480        0.595      132.344       23.682        0.032      336.297        7.502      855.840
11/16/2013  21:32:00      -83.584      129.548      -22.460       55.904       47.131       28.393     3125.282     2221.338      806.176        1.521        0.308      154.172       20.481        0.018      336.385        7.652      855.841
11/16/2013  21:33:00       24.379      137.070      -13.876       56.137       76.923       45.924     3151.381     5917.106     2109.022        1.537        0.559      139.221       40.991        0.087      336.246        7.418      855.840
11/16/2013  21:34:00      -39.326      274.486      -29.154       70.482      122.893       45.765     4967.663    15102.663     2094.413        4.995        1.108      277.289       60.752        0.048      336.128        7.219      855.846
11/16/2013  21:35:00      -69.920      190.964      -26.557       50.466       99.481       38.984     2546.780     9896.379     1519.773        2.801        0.698      203.362       31.633        0.024      336.090        7.155      855.858
11/16/2013  21:36:00      -88.614      115.111      -24.828       56.314       57.702       29.829     3171.248     3329.523      889.767        1.455        0.370      145.269       26.301        0.033      336.123        7.214      855.856
11/16/2013  21:37:00     -115.549      245.442      -37.424      126.146      123.737       56.942    15912.787    15310.837     3242.354        5.472        1.723      271.281       73.835        0.074      336.125        7.214      855.864
11/16/2013  21:38:00     -103.960      291.376      -34.954       90.244      104.972       55.416     8144.030    11019.052     3070.982        5.958        1.112      309.367       47.728        0.024      336.093        7.160      855.878
11/16/2013  21:39:00      -93.289      196.759      -27.316       67.149      107.851       43.282     4508.924    11631.752     1873.298        3.308        0.901      217.754       52.721        0.059      336.090        7.156      855.889
11/16/2013  21:40:00     -131.804      250.887      -36.264       64.979       88.567       48.076     4222.319     7844.165     2311.336        4.800        0.719      283.401       44.868        0.025      336.088        7.150      855.896
11/16/2013  21:41:00     -160.369      208.885      -42.294       60.453       78.090       37.193     3654.554     6098.021     1383.325        4.114        0.557      263.346       28.377        0.012      336.152        7.257      855.895
11/16/2013  21:42:00      -80.702      133.657      -18.447       43.944       84.962       33.714     1931.073     7218.467     1136.666        1.750        0.514      156.131       34.768        0.050      336.103        7.177      855.887
11/16/2013  21:43:00     -116.188       62.902      -26.150       56.666       56.530       23.919     3210.986     3195.659      572.132        1.256        0.349      132.123       18.554        0.020      336.136        7.235      855.901
11/16/2013  21:44:00      -92.806       78.621      -22.300       71.536       62.787       37.845     5117.367     3942.238     1432.216        1.289        0.525      121.632       43.363        0.127      336.156        7.267      855.912
11/16/2013  21:45:00     -194.546      215.814      -48.722       76.960       97.707       49.613     5922.833     9546.626     2461.487        5.236        0.897      290.558       46.780        0.026      336.192        7.325      855.925
11/16/2013  21:46:00     -148.522      140.711      -30.965       66.454       87.854       41.386     4416.180     7718.406     1712.834        2.833        0.692      204.593       42.960        0.044      336.116        7.199      855.926
11/16/2013  21:47:00      -95.805      139.545      -20.689       55.434      108.738       45.765     3072.913    11824.059     2094.398        2.303        0.850      169.267       38.029        0.050      336.120        7.208      855.928
11/16/2013  21:48:00     -165.299      125.783      -25.566       87.103       99.121       53.347     7586.988     9824.904     2845.858        3.202        1.013      207.714       39.860        0.037      336.172        7.293      855.942
11/16/2013  21:49:00     -209.202      117.964      -45.732       85.536       52.553       34.769     7316.488     2761.828     1208.870        3.553        0.564      240.168       36.590        0.023      336.159        7.272      855.954
11/16/2013  21:50:00     -283.127      175.689      -53.950      114.575       71.326       55.262    13127.396     5087.399     3053.864        6.760        1.063      333.208       51.655        0.024      336.077        7.133      855.973
11/16/2013  21:51:00     -128.589      174.602      -22.697       86.698       88.791       56.198     7516.572     7883.813     3158.193        3.304        0.928      216.843       50.357        0.054      336.033        7.062      855.977
11/16/2013  21:52:00     -173.845      147.566      -29.429       79.854       93.945       46.605     6376.601     8825.596     2171.986        3.512        0.869      228.030       36.406        0.025      336.051        7.091      855.982
11/16/2013  21:53:00     -195.765      155.286      -40.773       81.776       90.946       51.036     6687.267     8271.097     2604.650        4.083        0.878      249.876       54.227        0.047      336.034        7.062      855.968
11/16/2013  21:54:00     -196.882      199.555      -51.527       72.411       74.541       42.430     5243.301     5556.319     1800.323        4.692        0.630      280.329       38.274        0.019      336.006        7.016      855.970
11/16/2013  21:55:00     -207.181      189.035      -48.342       87.055       63.064       46.561     7578.641     3977.112     2167.881        4.736        0.686      280.460       46.784        0.028      336.014        7.028      855.972
11/16/2013  21:56:00     -208.409      298.782      -53.750       90.899      106.637       64.206     8262.586    11371.519     4122.378        7.967        1.188      364.287       61.510        0.029      335.994        6.996      855.977
11/16/2013  21:57:00     -250.071      265.686      -57.855      110.455      109.361       53.725    12200.240    11959.736     2886.413        8.175        1.352      364.863       49.111        0.018      336.000        7.005      855.975
11/16/2013  21:58:00     -210.960      219.347      -38.882      111.077       87.447       67.608    12338.050     7646.932     4570.798        5.934        1.228      304.331       52.051        0.029      336.008        7.019      855.968
11/16/2013  21:59:00     -175.299      228.312      -49.784      103.624      110.147       47.715    10737.974    12132.460     2276.710        5.524        1.257      287.848       47.660        0.027      336.019        7.037      855.968
11/16/2013  22:00:00     -106.848      240.628      -41.425       95.199      102.568       54.148     9062.825    10520.272     2932.054        4.677        1.126      263.284       56.867        0.047      336.077        7.134      855.963
11/16/2013  22:01:00     -123.312      216.548      -25.500       87.568      115.173       57.076     7668.107    13264.922     3257.630        4.347        1.210      249.197       67.215        0.073      336.043        7.078      855.961
11/16/2013  22:02:00     -132.530      217.004      -45.717       84.904      110.183       55.810     7208.699    12140.185     3114.730        4.460        1.123      254.274       55.887        0.048      336.063        7.111      855.965
11/16/2013  22:03:00     -214.833      158.671      -35.191       82.199       80.104       50.492     6756.741     6416.586     2549.442        4.414        0.786      267.076       48.439        0.033      336.067        7.117      855.985
11/16/2013  22:04:00     -216.474      235.471      -53.267       88.710       82.959       55.778     7869.519     6882.264     3111.142        6.150        0.893      319.855       56.768        0.031      336.067        7.116      856.015
11/16/2013  22:05:00     -170.098      132.127      -23.448       80.741       90.227       47.775     6519.059     8140.902     2282.437        3.194        0.847      215.385       39.664        0.034      336.112        7.192      856.021
11/16/2013  22:06:00     -148.678      223.671      -37.372       54.845      100.675       43.531     3007.965    10135.374     1894.983        4.428        0.752      268.577       34.753        0.017      336.232        7.391      856.018
11/16/2013  22:07:00     -165.988      245.990      -42.786       81.547       81.069       53.017     6649.978     6572.197     2810.750        5.296        0.802      296.754       53.962        0.033      336.198        7.335      856.019
11/16/2013  22:08:00     -182.206      224.006      -42.589       81.942       88.610       54.211     6714.477     7851.693     2938.780        5.134        0.875      288.752       36.777        0.016      336.048        7.083      855.993
11/16/2013  22:09:00     -141.433      210.165      -25.882       99.478       84.051       57.246     9895.869     7064.526     3277.120        4.254        1.012      253.323       59.567        0.055      335.975        6.964      855.966
11/16/2013  22:10:00     -183.886      200.860      -54.928       63.739       81.471       39.829     4062.643     6637.580     1586.371        4.473        0.614      272.321       36.396        0.018      335.965        6.945      855.944
11/16/2013  22:11:00     -155.291      172.360      -32.934       63.168       91.519       48.672     3990.229     8375.802     2368.972        3.482        0.737      231.999       39.147        0.028      335.943        6.909      855.963
11/16/2013  22:12:00     -197.188      181.310      -42.114       93.964       90.725       47.578     8829.182     8231.077     2263.623        4.642        0.966      267.874       39.739        0.022      336.029        7.054      855.979
11/16/2013  22:13:00     -159.773      141.954      -32.081       76.951      124.097       48.508     5921.444    15400.040     2353.027        3.519        1.184      213.725       54.204        0.064      335.961        6.940      855.978
11/16/2013  22:14:00     -114.972       18.169      -15.506       39.985       63.203       32.416     1598.780     3994.635     1050.824        1.022        0.332      116.399       20.575        0.031      335.969        6.955      855.978
11/16/2013  22:15:00      -85.854       72.068      -10.444       48.147       57.456       27.871     2318.166     3301.138      776.791        0.953        0.320      112.092       25.238        0.051      335.924        6.882      856.011
11/16/2013  22:16:00     -200.182      108.207      -45.235       70.845       66.183       41.062     5019.021     4380.233     1686.072        3.245        0.554      227.556       36.753        0.026      335.992        6.991      856.023
11/16/2013  22:17:00     -114.098      176.392      -27.481       59.462       84.172       42.240     3535.676     7084.927     1784.202        2.864        0.620      210.077       28.306        0.018      336.001        7.007      856.015
11/16/2013  22:18:00     -100.723       93.923      -10.321       70.388       73.809       44.945     4954.415     5447.753     2020.088        1.575        0.621      137.720       37.487        0.074      335.998        7.003      856.011
11/16/2013  22:19:00     -112.697      201.875      -34.492       59.448       66.244       46.284     3534.040     4388.236     2142.248        3.235        0.503      231.202       33.763        0.021      335.997        7.000      856.031
11/16/2013  22:20:00     -102.676      278.818      -33.526      121.918      122.142       65.931    14863.903    14918.763     4346.906        6.176        1.706      297.123       69.034        0.054      336.024        7.043      856.048
11/16/2013  22:21:00     -171.793      267.738      -33.255       84.756      104.090       66.536     7183.512    10834.770     4427.060        6.237        1.122      318.114       64.180        0.041      336.032        7.059      856.079
11/16/2013  22:22:00     -183.202      182.423      -46.968       80.699       92.986       60.213     6512.283     8646.367     3625.572        4.391        0.939      258.536       61.921        0.057      335.970        6.956      856.103
11/16/2013  22:23:00     -136.661      362.473      -43.291       99.626      117.965       60.394     9925.402    13915.769     3647.478        8.971        1.374      387.380       53.328        0.019      335.908        6.853      856.112
11/16/2013  22:24:00     -176.016      198.693      -45.824       81.220       89.001       44.422     6596.755     7921.097     1973.320        4.452        0.825      265.444       50.234        0.036      335.934        6.895      856.116
11/16/2013  22:25:00     -166.854       82.362      -21.458       87.695       59.147       48.135     7690.399     3498.309     2316.978        2.429        0.675      186.074       40.765        0.048      335.879        6.805      856.117
11/16/2013  22:26:00      -61.436      174.809      -18.295       68.871      113.538       45.369     4743.193    12890.972     2058.343        2.718        0.985      185.291       46.844        0.064      335.840        6.742      856.158
11/16/2013  22:27:00      -92.231      220.329      -12.403       83.520      131.666       50.350     6975.533    17335.853     2535.128        4.202        1.342      238.854       46.975        0.039      335.864        6.780      856.170
11/16/2013  22:28:00     -200.934      212.707      -54.731       67.579       97.379       47.958     4566.886     9482.758     2299.925        5.248        0.817      292.607       44.280        0.023      335.938        6.900      856.190
11/16/2013  22:29:00     -180.850      142.768      -28.606       84.969       94.034       49.876     7219.722     8842.457     2487.611        3.623        0.927      230.412       56.031        0.059      335.878        6.802      856.209
11/16/2013  22:30:00     -114.890      163.735      -31.797       73.972       99.917       49.080     5471.892     9983.497     2408.844        2.944        0.893      200.023       55.661        0.077      335.835        6.731      856.202
11/16/2013  22:31:00     -138.374      213.562      -22.939       78.436      106.321       53.709     6152.179    11304.150     2884.655        4.281        1.017      254.472       45.850        0.032      335.807        6.683      856.179
11/16/2013  22:32:00     -133.400      165.390      -35.642       75.284       77.078       41.622     5667.681     5940.986     1732.410        2.988        0.667      212.484       37.870        0.032      335.829        6.721      856.157
11/16/2013  22:33:00     -158.056      223.867      -34.409       82.209      110.711       50.235     6758.384    12256.981     2523.576        4.891        1.077      274.041       50.542        0.034      335.867        6.783      856.153
11/16/2013  22:34:00     -188.894      108.914      -25.980       90.495       73.087       43.354     8189.421     5341.691     1879.596        3.181        0.771      218.044       42.909        0.039      335.886        6.816      856.152
11/16/2013  22:35:00     -191.596      143.980      -32.834       76.478       56.930       43.336     5848.911     3241.037     1877.976        3.474        0.548      239.665       27.374        0.013      335.910        6.854      856.160
11/16/2013  22:36:00     -154.511      195.740      -51.609       60.725       68.653       41.672     3687.531     4713.173     1736.527        3.749        0.507      249.374       38.146        0.023      335.896        6.832      856.152
11/16/2013  22:37:00     -128.077      182.262      -29.540       69.362      106.419       43.093     4811.032    11324.996     1856.969        3.424        0.900      222.763       44.115        0.039      335.876        6.798      856.139
11/16/2013  22:38:00     -168.901      203.065      -31.380       84.925      110.770       50.644     7212.259    12270.083     2564.850        4.639        1.102      264.127       44.833        0.029      335.892        6.825      856.128
11/16/2013  22:39:00     -187.391      239.820      -39.737      104.020       97.796       55.261    10820.103     9564.039     3053.798        5.882        1.172      304.350       51.543        0.029      335.888        6.819      856.150
11/16/2013  22:40:00     -136.345      236.403      -32.939       85.913      105.008       46.499     7381.023    11026.685     2162.200        4.806        1.028      272.903       49.812        0.033      335.886        6.814      856.184
11/16/2013  22:41:00      -97.077      308.299      -31.321       87.525       83.962       49.816     7660.706     7049.548     2481.611        6.132        0.860      323.221       39.460        0.015      335.849        6.753      856.181
11/16/2013  22:42:00     -110.844      294.957      -33.600       87.335      109.054       46.711     7627.329    11892.843     2181.910        6.105        1.085      315.097       45.597        0.021      335.880        6.804      856.185
11/16/2013  22:43:00     -112.716      261.977      -30.631       65.235      101.310       42.153     4255.563    10263.690     1776.872        4.928        0.815      285.197       38.973        0.019      335.850        6.754      856.202
11/16/2013  22:44:00     -111.970      263.712      -20.724      100.076      119.299       61.381    10015.144    14232.328     3767.592        5.526        1.401      286.498       67.708        0.056      335.968        6.951      856.221
11/16/2013  22:45:00     -159.945      290.888      -32.684       87.006      116.699       53.565     7569.982    13618.727     2869.246        6.766        1.203      331.961       53.153        0.026      335.988        6.985      856.251
11/16/2013  22:46:00     -212.947      348.414      -60.416      114.544      106.612       60.735    13120.230    11366.183     3688.751        9.928        1.409      408.336       64.237        0.025      335.974        6.961      856.254
11/16/2013  22:47:00     -180.301      354.946      -46.027       86.991      109.839       62.345     7567.386    12064.685     3886.914        9.206        1.176      398.114       61.935        0.024      336.034        7.062      856.261
11/16/2013  22:48:00     -191.612      338.563      -54.594      120.006      113.124       64.286    14401.476    12797.067     4132.655        9.282        1.567      389.024       62.466        0.026      336.147        7.251      856.279
11/16/2013  22:49:00     -227.070      247.204      -49.839       69.583      106.733       47.410     4841.732    11391.866     2247.705        6.681        0.924      335.664       52.710        0.025      336.114        7.196      856.318
11/16/2013  22:50:00     -202.170       43.645      -28.622       93.901       79.042       48.378     8817.375     6247.571     2340.385        3.050        0.870      206.828       48.850        0.056      336.078        7.135      856.350
11/16/2013  22:51:00     -128.163       82.960      -20.808       58.449       74.012       39.250     3416.239     5477.782     1540.594        1.709        0.522      152.670       41.967        0.076      336.054        7.096      856.350
11/16/2013  22:52:00     -128.995      125.052      -29.976       50.214       76.279       41.957     2521.404     5818.488     1760.368        2.164        0.505      179.660       35.911        0.040      336.063        7.112      856.329
11/16/2013  22:53:00     -154.642      151.425      -33.281       51.258       63.328       39.766     2627.351     4010.436     1581.363        2.808        0.411      216.434       33.657        0.024      336.192        7.325      856.336
11/16/2013  22:54:00     -204.282       20.928      -26.269      105.733      111.267       40.889    11179.457    12380.449     1671.945        3.404        1.262      205.351       41.784        0.041      336.196        7.334      856.347
11/16/2013  22:55:00     -255.665     -120.197      -22.391      108.903       67.862       47.000    11859.890     4605.243     2209.032        4.949        0.934      282.510       34.388        0.015      336.307        7.517      856.357
11/16/2013  22:56:00     -311.859      -90.425      -11.179       71.230       75.720       42.876     5073.718     5733.532     1838.393        5.910        0.632      324.704       36.428        0.013      336.416        7.697      856.378
11/16/2013  22:57:00     -207.147      -58.396      -17.155       64.844       67.854       40.422     4204.736     4604.155     1633.974        2.853        0.522      215.220       34.213        0.025      336.364        7.613      856.382
11/16/2013  22:58:00     -228.717      -96.829       -7.843       94.664       57.568       38.563     8961.331     3314.040     1487.116        3.775        0.688      248.369       48.540        0.038      336.377        7.635      856.386
11/16/2013  22:59:00     -204.676      -60.791       -8.705       90.148       52.841       35.012     8126.742     2792.222     1225.871        2.890        0.607      213.513       36.845        0.030      336.355        7.597      856.385
11/16/2013  23:00:00     -210.566      -52.656      -10.732       79.818       81.978       39.399     6370.861     6720.442     1552.276        3.093        0.732      217.050       39.195        0.033      336.463        7.779      856.399
11/16/2013  23:01:00     -204.116      -65.565       -2.813       91.731       79.290       50.177     8414.542     6286.972     2517.740        3.159        0.861      214.388       43.318        0.041      336.467        7.784      856.427
11/16/2013  23:02:00     -163.499     -100.476       -1.814       94.281       63.845       36.796     8888.996     4076.157     1353.960        2.557        0.716      191.904       40.208        0.044      336.591        7.996      856.470
11/16/2013  23:03:00       19.555       43.346       27.335       45.356       40.807       30.783     2057.203     1665.215      947.589        0.384        0.234       47.553       29.817        0.393      336.387        7.654      856.487
11/16/2013  23:04:00      -12.565        1.207       -0.755       43.444       47.802       33.439     1887.373     2284.999     1118.190        0.272        0.265       12.623       23.559        3.483      336.515        7.869      856.513
11/16/2013  23:05:00      -31.928      -28.645       -7.363       56.547       78.307       23.590     3197.511     6131.923      556.498        0.589        0.494       42.894       24.637        0.330      336.529        7.892      856.535
11/16/2013  23:06:00      122.633     -130.837      -35.485       36.829       37.353       20.604     1356.357     1395.219      424.531        1.830        0.159      179.324       17.901        0.010      335.941        6.908      856.572
11/16/2013  23:07:00       94.885     -125.073      -27.105       63.382       80.557       40.165     4017.321     6489.432     1613.229        1.875        0.606      156.992       39.526        0.063      335.898        6.836      856.587
11/16/2013  23:08:00       72.616      -73.586       14.931       70.423       83.617       49.168     4959.409     6991.728     2417.463        1.264        0.718      103.383       56.644        0.300      335.755        6.599      856.579
11/16/2013  23:09:00       32.821       -9.775       49.365       49.403       78.779       51.412     2440.652     6206.062     2643.233        0.745        0.564       34.246       57.208        2.790      335.666        6.453      856.582
11/16/2013  23:10:00       82.021     -104.368        6.674       53.485       72.444       44.683     2860.608     5248.091     1996.555        1.388        0.505      132.740       51.237        0.149      335.754        6.597      856.589
11/16/2013  23:11:00       66.776      -90.615       -2.961       55.473       59.181       25.008     3077.213     3502.447      625.400        0.994        0.360      112.562       34.450        0.094      335.870        6.792      856.616
11/16/2013  23:12:00       -7.437      -23.767        3.519       27.455       24.588       26.789      753.762      604.572      717.649        0.135        0.104       24.904       12.171        0.239      335.796        6.668      856.647
11/16/2013  23:13:00        4.200      -17.497       -1.625       27.860       19.475       18.950      776.160      379.263      359.087        0.092        0.076       17.994       14.047        0.609      335.759        6.607      856.676
11/16/2013  23:14:00      -11.758      -26.923       -6.881       28.547       21.666       13.120      814.946      469.427      172.126        0.118        0.073       29.378        7.046        0.058      335.753        6.598      856.713
11/16/2013  23:15:00       -5.020      -11.883        9.256       25.161       19.882       20.404      633.081      395.283      416.332        0.085        0.072       12.900       16.893        1.715      335.607        6.355      856.746
11/16/2013  23:16:00      -56.749      -51.355        4.442       33.343       33.553       21.765     1111.724     1125.780      473.699        0.429        0.136       76.536       18.269        0.057      335.645        6.416      856.773
11/16/2013  23:17:00      -80.798      -72.478       -6.522       47.373       27.658       24.758     2244.230      764.949      612.965        0.772        0.181      108.542       29.414        0.073      335.690        6.493      856.790
11/16/2013  23:18:00      -51.557      -76.582       -2.512       33.012       31.272       17.317     1089.803      977.933      299.885        0.545        0.118       92.320       14.943        0.026      335.808        6.689      856.813
11/16/2013  23:19:00      -29.723      -91.287      -14.765       26.376       29.329       28.789      695.671      860.170      828.779        0.591        0.119       96.005       21.893        0.052      335.779        6.641      856.826
11/16/2013  23:20:00      -32.621       30.756      -12.122       28.192       33.512       27.254      794.815     1123.078      742.806        0.241        0.133       44.833       14.173        0.100      335.732        6.561      856.831
11/16/2013  23:21:00      -20.817       18.658       58.194       21.690       27.699       25.197      470.460      767.261      634.912        0.302        0.094       27.955       19.043        0.464      335.557        6.270      856.848
11/16/2013  23:22:00       17.390        7.433       45.853       31.885       36.823       30.484     1016.653     1355.925      929.277        0.288        0.165       18.912       25.416        1.806      335.560        6.276      856.887
11/16/2013  23:23:00       81.539      -42.695       32.192       61.670       65.659       46.559     3803.168     4311.065     2167.735        0.989        0.514       92.041       41.402        0.202      335.487        6.154      856.909
11/16/2013  23:24:00       33.819      -21.616       36.624       42.950       57.756       52.435     1844.670     3335.772     2749.435        0.544        0.396       40.137       28.281        0.496      335.403        6.014      856.921
11/16/2013  23:25:00       71.924      -59.430        3.489       69.316       61.425       56.344     4804.663     3773.003     3174.682        1.023        0.588       93.301       50.274        0.290      335.423        6.046      856.926
11/16/2013  23:26:00       81.079      -87.815      -32.806       61.281       82.498       35.001     3755.385     6805.861     1225.046        1.357        0.589      119.521       43.944        0.135      335.508        6.188      856.929
11/16/2013  23:27:00       28.290      -41.131       15.000       41.459       52.226       37.757     1718.837     2727.533     1425.590        0.429        0.294       49.920       30.865        0.382      335.507        6.187      856.937
11/16/2013  23:28:00       67.986      -87.987       12.054       54.506       60.781       39.017     2970.907     3694.275     1522.354        1.035        0.409      111.192       38.635        0.121      335.704        6.515      856.934
11/16/2013  23:29:00       44.343       11.376       30.653       54.192       40.935       36.038     2936.772     1675.639     1298.713        0.447        0.296       45.779       39.432        0.742      335.609        6.356      856.921
11/16/2013  23:30:00        9.549       41.155       59.238       24.079       27.348       15.770      579.795      747.936      248.705        0.343        0.079       42.248       15.714        0.138      335.564        6.282      856.906
11/16/2013  23:31:00       18.032       40.065       60.955       22.640       24.853       14.337      512.582      617.693      205.544        0.349        0.067       43.936       10.290        0.055      335.508        6.189      856.899
11/16/2013  23:32:00       14.490       26.784       50.814       23.178       24.012       13.144      537.200      576.589      172.759        0.240        0.064       30.452       11.957        0.154      335.387        5.986      856.907
11/16/2013  23:33:00       57.542      -72.199        4.346       43.144       35.628       22.957     1861.397     1269.349      527.038        0.610        0.183       92.324       23.329        0.064      335.606        6.353      856.923
11/16/2013  23:34:00       27.147      -53.986      -10.540       19.768       14.769       16.070      390.766      218.114      258.242        0.231        0.043       60.427       11.280        0.035      335.552        6.261      856.933
11/16/2013  23:35:00        1.936      -20.455       -0.630       14.177       12.180       15.909      200.998      148.361      253.106        0.051        0.030       20.546       10.071        0.240      335.439        6.073      856.929
11/16/2013  23:36:00        2.692       17.156        8.617       27.239       16.126       17.078      741.961      260.044      291.663        0.083        0.065       17.366       21.318        1.507      335.415        6.031      856.911
11/16/2013  23:37:00       43.748       40.759       36.418       15.266       11.690       10.891      233.043      136.657      118.624        0.269        0.024       59.793        7.050        0.014      335.260        5.774      856.893
11/16/2013  23:38:00       55.716       25.719       24.635       15.367       18.483       17.121      236.135      341.605      293.143        0.262        0.044       61.366        4.330        0.005      335.230        5.723      856.896
11/16/2013  23:39:00       18.029        8.338       18.758       20.967       15.964       12.364      439.623      254.837      152.870        0.080        0.042       19.864       10.267        0.267      335.220        5.708      856.904
11/16/2013  23:40:00        8.842       53.838       -7.951       13.787       17.650       13.308      190.078      311.520      177.099        0.186        0.034       54.559       12.640        0.054      335.106        5.519      856.903
11/16/2013  23:41:00      -16.780       42.509       -8.591       15.103       23.904       12.036      228.104      571.415      144.869        0.155        0.047       45.701       12.600        0.076      335.204        5.682      856.911
11/16/2013  23:42:00      -73.358       -7.818       -8.081       13.382       13.746       11.357      179.074      188.949      128.989        0.300        0.025       73.774        8.313        0.013      335.135        5.568      856.919
11/16/2013  23:43:00      -83.264      -22.155      -10.101       16.032       14.477       12.730      257.036      209.592      162.048        0.408        0.031       86.161       11.359        0.017      335.184        5.650      856.922
11/16/2013  23:44:00      -99.066       15.324      -10.423       21.477       17.883       11.149      461.282      319.799      124.296        0.553        0.045      100.244       10.168        0.010      335.070        5.460      856.922
11/16/2013  23:45:00      -89.902       24.978      -10.947       22.513       14.631       12.094      506.834      214.080      146.265        0.485        0.043       93.307        9.636        0.011      335.017        5.372      856.920
11/16/2013  23:46:00      -71.949       22.541       -6.352       27.877       20.206       16.499      777.124      408.276      272.201        0.359        0.073       75.397       13.348        0.031      334.958        5.276      856.926
11/16/2013  23:47:00      -59.735       36.210       -6.486       29.281       21.236       18.215      857.398      450.982      331.777        0.328        0.082       69.853       15.332        0.048      334.976        5.302      856.944
11/16/2013  23:48:00      -58.424       27.758       -7.583       24.750       13.339       11.525      612.586      177.941      132.815        0.258        0.046       64.682        6.252        0.009      335.070        5.460      856.960
11/16/2013  23:49:00      -72.105       39.531      -12.432       15.738       14.418        9.554      247.675      207.886       91.278        0.373        0.027       82.231        7.127        0.008      335.030        5.394      856.976
11/16/2013  23:50:00      -82.814       28.091      -11.147       23.200       14.372       13.577      538.232      206.559      184.328        0.435        0.046       87.449       11.568        0.018      335.037        5.406      856.991
11/16/2013  23:51:00      -72.329       22.216       -8.651       23.000       19.914       14.567      529.009      396.564      212.197        0.347        0.057       75.664       12.624        0.028      335.132        5.562      856.990
11/16/2013  23:52:00      -71.856       27.287      -13.531       18.244       19.788       12.713      332.848      391.565      161.632        0.349        0.044       76.863        4.905        0.004      335.258        5.772      856.991
11/16/2013  23:53:00      -60.659       58.730      -16.292       15.603       21.579       13.325      243.447      465.658      177.552        0.414        0.044       84.432       12.222        0.021      335.302        5.846      856.997
11/16/2013  23:54:00      -10.413       44.550        1.117       29.687       23.727       13.151      881.341      562.985      172.960        0.186        0.081       45.751       16.640        0.132      335.442        6.077      856.994
11/16/2013  23:55:00       -2.717       36.422       -0.713       23.159       18.325       12.452      536.336      335.823      155.064        0.118        0.051       36.523       12.614        0.119      335.423        6.045      857.001
11/16/2013  23:56:00      -56.342       -6.776      -11.491       17.725       20.404        7.741      314.170      416.305       59.925        0.207        0.040       56.748        8.479        0.022      335.213        5.697      857.019
11/16/2013  23:57:00     -103.498      -42.123      -14.513       21.326       25.327       13.414      454.796      641.478      179.924        0.699        0.064      111.741        7.773        0.005      334.950        5.260      857.030
11/16/2013  23:58:00      -63.931      -51.711       -2.171       40.196       27.492       22.899     1615.738      755.835      524.357        0.483        0.145       82.227       20.347        0.061      334.879        5.143      857.042
11/16/2013  23:59:00      -82.581      -60.797        4.878       56.002       55.259       29.312     3136.242     3053.606      859.171        0.879        0.352      102.547       29.280        0.082      334.873        5.132      857.057
